<?xml version="1.0" encoding="UTF-8" standalone="no" ?>
<gpx xmlns="http://www.topografix.com/GPX/1/1" xmlns:xsi="http://www.w3.org/2001/XMLSchema-instance" xsi:schemaLocation="http://www.topografix.com/GPX/1/1 http://www.topografix.com/GPX/1/1/gpx.xsd" version="1.1" creator="VisuGPX - https://www.visugpx.com">
  <metadata>
    <name>Islande Cascade Haifoss et Granni</name>
    <desc><![CDATA[Rando pour atteindre les cascade Haifoss et Granni]]></desc>
  </metadata>
  <trk>
    <name><![CDATA[Haïfoss]]></name>
    <trkseg>
      <trkpt lat="64.14994" lon="-19.75635">
        <time>2015-07-10T11:47:37Z</time>
      </trkpt>
      <trkpt lat="64.14994" lon="-19.75635">
        <ele>221</ele>
        <time>2015-07-10T11:47:37Z</time>
      </trkpt>
      <trkpt lat="64.14993" lon="-19.75626">
        <ele>192.1</ele>
        <time>2015-07-10T11:47:40Z</time>
      </trkpt>
      <trkpt lat="64.14992" lon="-19.75626">
        <ele>178</ele>
        <time>2015-07-10T11:47:49Z</time>
      </trkpt>
      <trkpt lat="64.14992" lon="-19.75626">
        <time>2015-07-10T11:47:49Z</time>
      </trkpt>
      <trkpt lat="64.14992" lon="-19.75626">
        <time>2015-07-10T11:48:51Z</time>
      </trkpt>
      <trkpt lat="64.14984" lon="-19.75626">
        <ele>172</ele>
        <time>2015-07-10T11:48:57Z</time>
      </trkpt>
      <trkpt lat="64.14992" lon="-19.75614">
        <ele>172</ele>
        <time>2015-07-10T11:49:05Z</time>
      </trkpt>
      <trkpt lat="64.14994" lon="-19.75604">
        <ele>172</ele>
        <time>2015-07-10T11:49:10Z</time>
      </trkpt>
      <trkpt lat="64.14999" lon="-19.75585">
        <ele>172</ele>
        <time>2015-07-10T11:49:19Z</time>
      </trkpt>
      <trkpt lat="64.15002" lon="-19.75576">
        <ele>172</ele>
        <time>2015-07-10T11:49:25Z</time>
      </trkpt>
      <trkpt lat="64.15005" lon="-19.75563">
        <ele>172</ele>
        <time>2015-07-10T11:49:27Z</time>
      </trkpt>
      <trkpt lat="64.15008" lon="-19.75554">
        <ele>172</ele>
        <time>2015-07-10T11:49:31Z</time>
      </trkpt>
      <trkpt lat="64.15012" lon="-19.75554">
        <ele>172</ele>
        <time>2015-07-10T11:49:33Z</time>
      </trkpt>
      <trkpt lat="64.15018" lon="-19.75544">
        <ele>172</ele>
        <time>2015-07-10T11:49:38Z</time>
      </trkpt>
      <trkpt lat="64.15018" lon="-19.7553">
        <ele>172</ele>
        <time>2015-07-10T11:49:41Z</time>
      </trkpt>
      <trkpt lat="64.15028" lon="-19.75522">
        <ele>173</ele>
        <time>2015-07-10T11:49:48Z</time>
      </trkpt>
      <trkpt lat="64.15032" lon="-19.75514">
        <ele>174</ele>
        <time>2015-07-10T11:49:55Z</time>
      </trkpt>
      <trkpt lat="64.15036" lon="-19.75495">
        <ele>174</ele>
        <time>2015-07-10T11:50:03Z</time>
      </trkpt>
      <trkpt lat="64.1504" lon="-19.75474">
        <ele>174</ele>
        <time>2015-07-10T11:50:10Z</time>
      </trkpt>
      <trkpt lat="64.15043" lon="-19.75467">
        <ele>174</ele>
        <time>2015-07-10T11:50:15Z</time>
      </trkpt>
      <trkpt lat="64.15048" lon="-19.75461">
        <ele>174.8</ele>
        <time>2015-07-10T11:50:19Z</time>
      </trkpt>
      <trkpt lat="64.15047" lon="-19.75439">
        <ele>175</ele>
        <time>2015-07-10T11:50:26Z</time>
      </trkpt>
      <trkpt lat="64.15049" lon="-19.7542">
        <ele>175</ele>
        <time>2015-07-10T11:50:30Z</time>
      </trkpt>
      <trkpt lat="64.15057" lon="-19.75412">
        <ele>176</ele>
        <time>2015-07-10T11:50:45Z</time>
      </trkpt>
      <trkpt lat="64.15061" lon="-19.75393">
        <ele>176</ele>
        <time>2015-07-10T11:50:49Z</time>
      </trkpt>
      <trkpt lat="64.15063" lon="-19.75373">
        <ele>176</ele>
        <time>2015-07-10T11:50:55Z</time>
      </trkpt>
      <trkpt lat="64.15066" lon="-19.75361">
        <ele>176</ele>
        <time>2015-07-10T11:50:58Z</time>
      </trkpt>
      <trkpt lat="64.15071" lon="-19.75337">
        <ele>176.5</ele>
        <time>2015-07-10T11:51:09Z</time>
      </trkpt>
      <trkpt lat="64.15074" lon="-19.75325">
        <ele>177</ele>
        <time>2015-07-10T11:51:14Z</time>
      </trkpt>
      <trkpt lat="64.15076" lon="-19.75317">
        <ele>177</ele>
        <time>2015-07-10T11:51:20Z</time>
      </trkpt>
      <trkpt lat="64.15075" lon="-19.75305">
        <ele>176</ele>
        <time>2015-07-10T11:51:40Z</time>
      </trkpt>
      <trkpt lat="64.15082" lon="-19.75289">
        <ele>176</ele>
        <time>2015-07-10T11:51:45Z</time>
      </trkpt>
      <trkpt lat="64.15086" lon="-19.75271">
        <ele>176</ele>
        <time>2015-07-10T11:51:56Z</time>
      </trkpt>
      <trkpt lat="64.15087" lon="-19.75259">
        <ele>176</ele>
        <time>2015-07-10T11:52:01Z</time>
      </trkpt>
      <trkpt lat="64.15092" lon="-19.75229">
        <ele>176</ele>
        <time>2015-07-10T11:52:15Z</time>
      </trkpt>
      <trkpt lat="64.15094" lon="-19.75217">
        <ele>179.9</ele>
        <time>2015-07-10T11:52:18Z</time>
      </trkpt>
      <trkpt lat="64.15098" lon="-19.75198">
        <ele>180</ele>
        <time>2015-07-10T11:52:26Z</time>
      </trkpt>
      <trkpt lat="64.15103" lon="-19.75191">
        <ele>180</ele>
        <time>2015-07-10T11:52:34Z</time>
      </trkpt>
      <trkpt lat="64.15105" lon="-19.75181">
        <ele>180</ele>
        <time>2015-07-10T11:52:38Z</time>
      </trkpt>
      <trkpt lat="64.15109" lon="-19.75172">
        <ele>180</ele>
        <time>2015-07-10T11:52:45Z</time>
      </trkpt>
      <trkpt lat="64.15105" lon="-19.75166">
        <ele>180.8</ele>
        <time>2015-07-10T11:52:54Z</time>
      </trkpt>
      <trkpt lat="64.1511" lon="-19.75136">
        <ele>181</ele>
        <time>2015-07-10T11:53:00Z</time>
      </trkpt>
      <trkpt lat="64.15112" lon="-19.75127">
        <ele>181</ele>
        <time>2015-07-10T11:53:05Z</time>
      </trkpt>
      <trkpt lat="64.15114" lon="-19.75118">
        <ele>183.6</ele>
        <time>2015-07-10T11:53:10Z</time>
      </trkpt>
      <trkpt lat="64.15114" lon="-19.75105">
        <ele>185.9</ele>
        <time>2015-07-10T11:53:16Z</time>
      </trkpt>
      <trkpt lat="64.15114" lon="-19.75093">
        <ele>186</ele>
        <time>2015-07-10T11:53:20Z</time>
      </trkpt>
      <trkpt lat="64.15116" lon="-19.75062">
        <ele>186</ele>
        <time>2015-07-10T11:53:27Z</time>
      </trkpt>
      <trkpt lat="64.15115" lon="-19.75051">
        <ele>188</ele>
        <time>2015-07-10T11:53:31Z</time>
      </trkpt>
      <trkpt lat="64.15116" lon="-19.7504">
        <ele>188</ele>
        <time>2015-07-10T11:53:50Z</time>
      </trkpt>
      <trkpt lat="64.15115" lon="-19.75024">
        <ele>188.5</ele>
        <time>2015-07-10T11:53:53Z</time>
      </trkpt>
      <trkpt lat="64.15115" lon="-19.7501">
        <ele>188.5</ele>
        <time>2015-07-10T11:53:55Z</time>
      </trkpt>
      <trkpt lat="64.15118" lon="-19.74984">
        <ele>189</ele>
        <time>2015-07-10T11:54:07Z</time>
      </trkpt>
      <trkpt lat="64.1512" lon="-19.74973">
        <ele>189.8</ele>
        <time>2015-07-10T11:54:12Z</time>
      </trkpt>
      <trkpt lat="64.1511" lon="-19.74972">
        <ele>191</ele>
        <time>2015-07-10T11:54:19Z</time>
      </trkpt>
      <trkpt lat="64.15105" lon="-19.74977">
        <ele>193.8</ele>
        <time>2015-07-10T11:54:24Z</time>
      </trkpt>
      <trkpt lat="64.15106" lon="-19.74966">
        <ele>194</ele>
        <time>2015-07-10T11:54:30Z</time>
      </trkpt>
      <trkpt lat="64.15109" lon="-19.74953">
        <ele>194.7</ele>
        <time>2015-07-10T11:54:33Z</time>
      </trkpt>
      <trkpt lat="64.15113" lon="-19.74943">
        <ele>194.7</ele>
        <time>2015-07-10T11:54:36Z</time>
      </trkpt>
      <trkpt lat="64.15117" lon="-19.7494">
        <ele>196.7</ele>
        <time>2015-07-10T11:54:42Z</time>
      </trkpt>
      <trkpt lat="64.15118" lon="-19.74922">
        <ele>198.9</ele>
        <time>2015-07-10T11:54:52Z</time>
      </trkpt>
      <trkpt lat="64.15114" lon="-19.74928">
        <ele>198.9</ele>
        <time>2015-07-10T11:54:56Z</time>
      </trkpt>
      <trkpt lat="64.15106" lon="-19.7492">
        <ele>198.3</ele>
        <time>2015-07-10T11:55:03Z</time>
      </trkpt>
      <trkpt lat="64.15101" lon="-19.74921">
        <ele>198.3</ele>
        <time>2015-07-10T11:55:07Z</time>
      </trkpt>
      <trkpt lat="64.15091" lon="-19.74919">
        <ele>197</ele>
        <time>2015-07-10T11:55:15Z</time>
      </trkpt>
      <trkpt lat="64.15087" lon="-19.74914">
        <ele>196</ele>
        <time>2015-07-10T11:55:18Z</time>
      </trkpt>
      <trkpt lat="64.15083" lon="-19.74905">
        <ele>196</ele>
        <time>2015-07-10T11:55:21Z</time>
      </trkpt>
      <trkpt lat="64.15079" lon="-19.74884">
        <ele>195.5</ele>
        <time>2015-07-10T11:55:31Z</time>
      </trkpt>
      <trkpt lat="64.15075" lon="-19.74872">
        <ele>195</ele>
        <time>2015-07-10T11:55:38Z</time>
      </trkpt>
      <trkpt lat="64.15072" lon="-19.74861">
        <ele>195</ele>
        <time>2015-07-10T11:55:41Z</time>
      </trkpt>
      <trkpt lat="64.15067" lon="-19.74841">
        <ele>195</ele>
        <time>2015-07-10T11:55:46Z</time>
      </trkpt>
      <trkpt lat="64.15062" lon="-19.74822">
        <ele>195</ele>
        <time>2015-07-10T11:55:50Z</time>
      </trkpt>
      <trkpt lat="64.15052" lon="-19.74814">
        <ele>195</ele>
        <time>2015-07-10T11:56:04Z</time>
      </trkpt>
      <trkpt lat="64.15047" lon="-19.74803">
        <ele>195</ele>
        <time>2015-07-10T11:56:07Z</time>
      </trkpt>
      <trkpt lat="64.15044" lon="-19.7479">
        <ele>195</ele>
        <time>2015-07-10T11:56:11Z</time>
      </trkpt>
      <trkpt lat="64.15042" lon="-19.74779">
        <ele>195</ele>
        <time>2015-07-10T11:56:14Z</time>
      </trkpt>
      <trkpt lat="64.15037" lon="-19.74764">
        <ele>195.9</ele>
        <time>2015-07-10T11:56:20Z</time>
      </trkpt>
      <trkpt lat="64.15035" lon="-19.74743">
        <ele>197</ele>
        <time>2015-07-10T11:56:28Z</time>
      </trkpt>
      <trkpt lat="64.15032" lon="-19.74723">
        <ele>197.7</ele>
        <time>2015-07-10T11:56:36Z</time>
      </trkpt>
      <trkpt lat="64.15031" lon="-19.74696">
        <ele>198</ele>
        <time>2015-07-10T11:56:43Z</time>
      </trkpt>
      <trkpt lat="64.15028" lon="-19.74675">
        <ele>198</ele>
        <time>2015-07-10T11:56:47Z</time>
      </trkpt>
      <trkpt lat="64.15033" lon="-19.74676">
        <ele>199</ele>
        <time>2015-07-10T11:56:59Z</time>
      </trkpt>
      <trkpt lat="64.15037" lon="-19.74675">
        <ele>199.7</ele>
        <time>2015-07-10T11:57:03Z</time>
      </trkpt>
      <trkpt lat="64.15034" lon="-19.74686">
        <ele>204</ele>
        <time>2015-07-10T11:58:08Z</time>
      </trkpt>
      <trkpt lat="64.15034" lon="-19.74698">
        <ele>204</ele>
        <time>2015-07-10T11:58:11Z</time>
      </trkpt>
      <trkpt lat="64.15035" lon="-19.74719">
        <ele>204</ele>
        <time>2015-07-10T11:58:16Z</time>
      </trkpt>
      <trkpt lat="64.15034" lon="-19.74744">
        <ele>204</ele>
        <time>2015-07-10T11:58:21Z</time>
      </trkpt>
      <trkpt lat="64.15042" lon="-19.74771">
        <ele>204</ele>
        <time>2015-07-10T11:58:33Z</time>
      </trkpt>
      <trkpt lat="64.15045" lon="-19.74778">
        <ele>212</ele>
        <time>2015-07-10T12:00:11Z</time>
      </trkpt>
      <trkpt lat="64.15051" lon="-19.74797">
        <ele>212</ele>
        <time>2015-07-10T12:00:17Z</time>
      </trkpt>
      <trkpt lat="64.15054" lon="-19.74805">
        <ele>212</ele>
        <time>2015-07-10T12:00:20Z</time>
      </trkpt>
      <trkpt lat="64.15063" lon="-19.7482">
        <ele>213.4</ele>
        <time>2015-07-10T12:00:26Z</time>
      </trkpt>
      <trkpt lat="64.15066" lon="-19.7484">
        <ele>215</ele>
        <time>2015-07-10T12:00:39Z</time>
      </trkpt>
      <trkpt lat="64.15073" lon="-19.74854">
        <ele>215.7</ele>
        <time>2015-07-10T12:00:44Z</time>
      </trkpt>
      <trkpt lat="64.15077" lon="-19.74862">
        <ele>216</ele>
        <time>2015-07-10T12:00:47Z</time>
      </trkpt>
      <trkpt lat="64.15082" lon="-19.74876">
        <ele>217</ele>
        <time>2015-07-10T12:00:52Z</time>
      </trkpt>
      <trkpt lat="64.15084" lon="-19.74889">
        <ele>217</ele>
        <time>2015-07-10T12:00:56Z</time>
      </trkpt>
      <trkpt lat="64.1509" lon="-19.74904">
        <ele>217.9</ele>
        <time>2015-07-10T12:01:02Z</time>
      </trkpt>
      <trkpt lat="64.15091" lon="-19.74913">
        <ele>217.9</ele>
        <time>2015-07-10T12:01:05Z</time>
      </trkpt>
      <trkpt lat="64.15094" lon="-19.74922">
        <ele>220.5</ele>
        <time>2015-07-10T12:01:09Z</time>
      </trkpt>
      <trkpt lat="64.15102" lon="-19.74935">
        <ele>222.5</ele>
        <time>2015-07-10T12:01:17Z</time>
      </trkpt>
      <trkpt lat="64.15112" lon="-19.74943">
        <ele>223</ele>
        <time>2015-07-10T12:01:23Z</time>
      </trkpt>
      <trkpt lat="64.15121" lon="-19.74944">
        <ele>224</ele>
        <time>2015-07-10T12:01:33Z</time>
      </trkpt>
      <trkpt lat="64.15126" lon="-19.74952">
        <ele>224</ele>
        <time>2015-07-10T12:02:03Z</time>
      </trkpt>
      <trkpt lat="64.15132" lon="-19.74981">
        <ele>222.1</ele>
        <time>2015-07-10T12:02:15Z</time>
      </trkpt>
      <trkpt lat="64.15133" lon="-19.74994">
        <ele>220.1</ele>
        <time>2015-07-10T12:02:20Z</time>
      </trkpt>
      <trkpt lat="64.15129" lon="-19.75002">
        <ele>219.1</ele>
        <time>2015-07-10T12:02:28Z</time>
      </trkpt>
      <trkpt lat="64.15133" lon="-19.75009">
        <ele>219.1</ele>
        <time>2015-07-10T12:02:32Z</time>
      </trkpt>
      <trkpt lat="64.15137" lon="-19.75016">
        <ele>218.5</ele>
        <time>2015-07-10T12:02:36Z</time>
      </trkpt>
      <trkpt lat="64.15134" lon="-19.75027">
        <ele>217.3</ele>
        <time>2015-07-10T12:02:44Z</time>
      </trkpt>
      <trkpt lat="64.15132" lon="-19.75038">
        <ele>217.3</ele>
        <time>2015-07-10T12:02:47Z</time>
      </trkpt>
      <trkpt lat="64.15126" lon="-19.75066">
        <ele>217</ele>
        <time>2015-07-10T12:02:56Z</time>
      </trkpt>
      <trkpt lat="64.15126" lon="-19.75076">
        <ele>215.5</ele>
        <time>2015-07-10T12:02:59Z</time>
      </trkpt>
      <trkpt lat="64.15128" lon="-19.75087">
        <ele>214</ele>
        <time>2015-07-10T12:03:03Z</time>
      </trkpt>
      <trkpt lat="64.15132" lon="-19.75093">
        <ele>214</ele>
        <time>2015-07-10T12:03:06Z</time>
      </trkpt>
      <trkpt lat="64.15138" lon="-19.75109">
        <ele>212.1</ele>
        <time>2015-07-10T12:03:14Z</time>
      </trkpt>
      <trkpt lat="64.15144" lon="-19.75127">
        <ele>207.1</ele>
        <time>2015-07-10T12:03:22Z</time>
      </trkpt>
      <trkpt lat="64.15154" lon="-19.75127">
        <ele>207</ele>
        <time>2015-07-10T12:03:32Z</time>
      </trkpt>
      <trkpt lat="64.15157" lon="-19.75136">
        <ele>213</ele>
        <time>2015-07-10T12:04:13Z</time>
      </trkpt>
      <trkpt lat="64.15147" lon="-19.75144">
        <ele>216</ele>
        <time>2015-07-10T12:04:44Z</time>
      </trkpt>
      <trkpt lat="64.1514" lon="-19.75161">
        <ele>216</ele>
        <time>2015-07-10T12:04:53Z</time>
      </trkpt>
      <trkpt lat="64.15135" lon="-19.75183">
        <ele>215.1</ele>
        <time>2015-07-10T12:05:00Z</time>
      </trkpt>
      <trkpt lat="64.1513" lon="-19.75204">
        <ele>214</ele>
        <time>2015-07-10T12:05:07Z</time>
      </trkpt>
      <trkpt lat="64.15125" lon="-19.75222">
        <ele>206.1</ele>
        <time>2015-07-10T12:05:16Z</time>
      </trkpt>
      <trkpt lat="64.15128" lon="-19.75232">
        <ele>206</ele>
        <time>2015-07-10T12:05:20Z</time>
      </trkpt>
      <trkpt lat="64.1513" lon="-19.75244">
        <ele>205.1</ele>
        <time>2015-07-10T12:05:23Z</time>
      </trkpt>
      <trkpt lat="64.15135" lon="-19.7525">
        <ele>203.8</ele>
        <time>2015-07-10T12:05:29Z</time>
      </trkpt>
      <trkpt lat="64.15135" lon="-19.75272">
        <ele>197.7</ele>
        <time>2015-07-10T12:05:39Z</time>
      </trkpt>
      <trkpt lat="64.15142" lon="-19.75289">
        <ele>196</ele>
        <time>2015-07-10T12:05:45Z</time>
      </trkpt>
      <trkpt lat="64.15147" lon="-19.75296">
        <ele>195</ele>
        <time>2015-07-10T12:05:52Z</time>
      </trkpt>
      <trkpt lat="64.1515" lon="-19.75305">
        <ele>195</ele>
        <time>2015-07-10T12:05:54Z</time>
      </trkpt>
      <trkpt lat="64.15153" lon="-19.75316">
        <ele>194</ele>
        <time>2015-07-10T12:06:04Z</time>
      </trkpt>
      <trkpt lat="64.15157" lon="-19.75326">
        <ele>190.2</ele>
        <time>2015-07-10T12:06:28Z</time>
      </trkpt>
      <trkpt lat="64.15167" lon="-19.7533">
        <ele>189.3</ele>
        <time>2015-07-10T12:06:37Z</time>
      </trkpt>
      <trkpt lat="64.15172" lon="-19.75333">
        <ele>186.4</ele>
        <time>2015-07-10T12:06:39Z</time>
      </trkpt>
      <trkpt lat="64.15181" lon="-19.75339">
        <ele>186</ele>
        <time>2015-07-10T12:06:47Z</time>
      </trkpt>
      <trkpt lat="64.15185" lon="-19.75348">
        <ele>185</ele>
        <time>2015-07-10T12:06:55Z</time>
      </trkpt>
      <trkpt lat="64.15198" lon="-19.75362">
        <ele>185</ele>
        <time>2015-07-10T12:07:05Z</time>
      </trkpt>
      <trkpt lat="64.15207" lon="-19.75372">
        <ele>185</ele>
        <time>2015-07-10T12:07:13Z</time>
      </trkpt>
      <trkpt lat="64.15217" lon="-19.75378">
        <ele>185.5</ele>
        <time>2015-07-10T12:07:19Z</time>
      </trkpt>
      <trkpt lat="64.15227" lon="-19.75381">
        <ele>187.6</ele>
        <time>2015-07-10T12:07:27Z</time>
      </trkpt>
      <trkpt lat="64.15235" lon="-19.75391">
        <ele>192.4</ele>
        <time>2015-07-10T12:07:35Z</time>
      </trkpt>
      <trkpt lat="64.15242" lon="-19.75396">
        <ele>194</ele>
        <time>2015-07-10T12:07:40Z</time>
      </trkpt>
      <trkpt lat="64.15254" lon="-19.7541">
        <ele>194</ele>
        <time>2015-07-10T12:07:47Z</time>
      </trkpt>
      <trkpt lat="64.15261" lon="-19.75418">
        <ele>195</ele>
        <time>2015-07-10T12:07:52Z</time>
      </trkpt>
      <trkpt lat="64.15267" lon="-19.75424">
        <ele>196</ele>
        <time>2015-07-10T12:07:56Z</time>
      </trkpt>
      <trkpt lat="64.15271" lon="-19.7543">
        <ele>196</ele>
        <time>2015-07-10T12:08:00Z</time>
      </trkpt>
      <trkpt lat="64.1528" lon="-19.75437">
        <ele>196.5</ele>
        <time>2015-07-10T12:08:08Z</time>
      </trkpt>
      <trkpt lat="64.1529" lon="-19.75443">
        <ele>196.5</ele>
        <time>2015-07-10T12:08:18Z</time>
      </trkpt>
      <trkpt lat="64.15299" lon="-19.75449">
        <ele>197</ele>
        <time>2015-07-10T12:08:27Z</time>
      </trkpt>
      <trkpt lat="64.1531" lon="-19.75466">
        <ele>197</ele>
        <time>2015-07-10T12:08:37Z</time>
      </trkpt>
      <trkpt lat="64.15323" lon="-19.75485">
        <ele>197</ele>
        <time>2015-07-10T12:08:47Z</time>
      </trkpt>
      <trkpt lat="64.15326" lon="-19.75504">
        <ele>196.2</ele>
        <time>2015-07-10T12:08:55Z</time>
      </trkpt>
      <trkpt lat="64.1533" lon="-19.75515">
        <ele>196</ele>
        <time>2015-07-10T12:08:58Z</time>
      </trkpt>
      <trkpt lat="64.15333" lon="-19.75521">
        <ele>195.1</ele>
        <time>2015-07-10T12:09:05Z</time>
      </trkpt>
      <trkpt lat="64.15342" lon="-19.75526">
        <ele>195</ele>
        <time>2015-07-10T12:09:14Z</time>
      </trkpt>
      <trkpt lat="64.15346" lon="-19.7553">
        <ele>192.4</ele>
        <time>2015-07-10T12:09:18Z</time>
      </trkpt>
      <trkpt lat="64.15344" lon="-19.75519">
        <ele>187.5</ele>
        <time>2015-07-10T12:09:20Z</time>
      </trkpt>
      <trkpt lat="64.1534" lon="-19.75511">
        <ele>187.5</ele>
        <time>2015-07-10T12:09:22Z</time>
      </trkpt>
      <trkpt lat="64.15353" lon="-19.75524">
        <ele>186</ele>
        <time>2015-07-10T12:09:29Z</time>
      </trkpt>
      <trkpt lat="64.15359" lon="-19.75537">
        <ele>184.1</ele>
        <time>2015-07-10T12:09:33Z</time>
      </trkpt>
      <trkpt lat="64.15364" lon="-19.75542">
        <ele>184.1</ele>
        <time>2015-07-10T12:09:36Z</time>
      </trkpt>
      <trkpt lat="64.15377" lon="-19.75541">
        <ele>182.3</ele>
        <time>2015-07-10T12:09:42Z</time>
      </trkpt>
      <trkpt lat="64.15391" lon="-19.75535">
        <ele>180.2</ele>
        <time>2015-07-10T12:09:49Z</time>
      </trkpt>
      <trkpt lat="64.15395" lon="-19.7553">
        <ele>180</ele>
        <time>2015-07-10T12:09:53Z</time>
      </trkpt>
      <trkpt lat="64.15399" lon="-19.75524">
        <ele>180</ele>
        <time>2015-07-10T12:10:00Z</time>
      </trkpt>
      <trkpt lat="64.15408" lon="-19.75522">
        <ele>180</ele>
        <time>2015-07-10T12:10:06Z</time>
      </trkpt>
      <trkpt lat="64.15418" lon="-19.75529">
        <ele>180</ele>
        <time>2015-07-10T12:10:11Z</time>
      </trkpt>
      <trkpt lat="64.15433" lon="-19.75528">
        <ele>180</ele>
        <time>2015-07-10T12:10:18Z</time>
      </trkpt>
      <trkpt lat="64.15444" lon="-19.7553">
        <ele>180.5</ele>
        <time>2015-07-10T12:10:23Z</time>
      </trkpt>
      <trkpt lat="64.15457" lon="-19.75527">
        <ele>181.9</ele>
        <time>2015-07-10T12:10:33Z</time>
      </trkpt>
      <trkpt lat="64.15463" lon="-19.75529">
        <ele>182.9</ele>
        <time>2015-07-10T12:10:39Z</time>
      </trkpt>
      <trkpt lat="64.15468" lon="-19.75527">
        <ele>184.7</ele>
        <time>2015-07-10T12:10:44Z</time>
      </trkpt>
      <trkpt lat="64.15477" lon="-19.75518">
        <ele>194.4</ele>
        <time>2015-07-10T12:10:51Z</time>
      </trkpt>
      <trkpt lat="64.15481" lon="-19.75517">
        <ele>195</ele>
        <time>2015-07-10T12:10:56Z</time>
      </trkpt>
      <trkpt lat="64.15486" lon="-19.75519">
        <ele>196</ele>
        <time>2015-07-10T12:11:02Z</time>
      </trkpt>
      <trkpt lat="64.15491" lon="-19.75525">
        <ele>196</ele>
        <time>2015-07-10T12:11:06Z</time>
      </trkpt>
      <trkpt lat="64.15502" lon="-19.75534">
        <ele>196.5</ele>
        <time>2015-07-10T12:11:09Z</time>
      </trkpt>
      <trkpt lat="64.15505" lon="-19.75522">
        <ele>198</ele>
        <time>2015-07-10T12:11:16Z</time>
      </trkpt>
      <trkpt lat="64.15504" lon="-19.7551">
        <ele>198</ele>
        <time>2015-07-10T12:11:19Z</time>
      </trkpt>
      <trkpt lat="64.15501" lon="-19.75495">
        <ele>198.9</ele>
        <time>2015-07-10T12:11:25Z</time>
      </trkpt>
      <trkpt lat="64.15506" lon="-19.755">
        <ele>198.9</ele>
        <time>2015-07-10T12:11:28Z</time>
      </trkpt>
      <trkpt lat="64.15516" lon="-19.75504">
        <ele>200.2</ele>
        <time>2015-07-10T12:11:32Z</time>
      </trkpt>
      <trkpt lat="64.15526" lon="-19.75507">
        <ele>201</ele>
        <time>2015-07-10T12:11:36Z</time>
      </trkpt>
      <trkpt lat="64.15536" lon="-19.75504">
        <ele>201</ele>
        <time>2015-07-10T12:11:42Z</time>
      </trkpt>
      <trkpt lat="64.15546" lon="-19.75502">
        <ele>201</ele>
        <time>2015-07-10T12:11:46Z</time>
      </trkpt>
      <trkpt lat="64.1556" lon="-19.75495">
        <ele>200.1</ele>
        <time>2015-07-10T12:11:58Z</time>
      </trkpt>
      <trkpt lat="64.15575" lon="-19.75497">
        <ele>199</ele>
        <time>2015-07-10T12:12:09Z</time>
      </trkpt>
      <trkpt lat="64.15579" lon="-19.75498">
        <ele>198</ele>
        <time>2015-07-10T12:12:13Z</time>
      </trkpt>
      <trkpt lat="64.15593" lon="-19.75482">
        <ele>198</ele>
        <time>2015-07-10T12:12:24Z</time>
      </trkpt>
      <trkpt lat="64.15602" lon="-19.75488">
        <ele>198</ele>
        <time>2015-07-10T12:12:31Z</time>
      </trkpt>
      <trkpt lat="64.15606" lon="-19.75494">
        <ele>197</ele>
        <time>2015-07-10T12:12:36Z</time>
      </trkpt>
      <trkpt lat="64.15612" lon="-19.75497">
        <ele>197</ele>
        <time>2015-07-10T12:12:40Z</time>
      </trkpt>
      <trkpt lat="64.15621" lon="-19.755">
        <ele>196.1</ele>
        <time>2015-07-10T12:12:47Z</time>
      </trkpt>
      <trkpt lat="64.15635" lon="-19.75506">
        <ele>195</ele>
        <time>2015-07-10T12:12:56Z</time>
      </trkpt>
      <trkpt lat="64.15639" lon="-19.75493">
        <ele>194</ele>
        <time>2015-07-10T12:13:05Z</time>
      </trkpt>
      <trkpt lat="64.15645" lon="-19.75496">
        <ele>194</ele>
        <time>2015-07-10T12:13:09Z</time>
      </trkpt>
      <trkpt lat="64.15651" lon="-19.75493">
        <ele>194</ele>
        <time>2015-07-10T12:13:12Z</time>
      </trkpt>
      <trkpt lat="64.15655" lon="-19.75489">
        <ele>194</ele>
        <time>2015-07-10T12:13:14Z</time>
      </trkpt>
      <trkpt lat="64.15662" lon="-19.75479">
        <ele>194</ele>
        <time>2015-07-10T12:13:20Z</time>
      </trkpt>
      <trkpt lat="64.15668" lon="-19.75462">
        <ele>194.9</ele>
        <time>2015-07-10T12:13:29Z</time>
      </trkpt>
      <trkpt lat="64.15673" lon="-19.75459">
        <ele>195</ele>
        <time>2015-07-10T12:13:36Z</time>
      </trkpt>
      <trkpt lat="64.15687" lon="-19.75461">
        <ele>195</ele>
        <time>2015-07-10T12:13:46Z</time>
      </trkpt>
      <trkpt lat="64.15696" lon="-19.75455">
        <ele>195</ele>
        <time>2015-07-10T12:13:53Z</time>
      </trkpt>
      <trkpt lat="64.15705" lon="-19.75458">
        <ele>195.9</ele>
        <time>2015-07-10T12:14:00Z</time>
      </trkpt>
      <trkpt lat="64.15708" lon="-19.75467">
        <ele>197</ele>
        <time>2015-07-10T12:14:05Z</time>
      </trkpt>
      <trkpt lat="64.15712" lon="-19.75468">
        <ele>197</ele>
        <time>2015-07-10T12:14:09Z</time>
      </trkpt>
      <trkpt lat="64.15721" lon="-19.75474">
        <ele>198.5</ele>
        <time>2015-07-10T12:14:17Z</time>
      </trkpt>
      <trkpt lat="64.15725" lon="-19.75479">
        <ele>199.9</ele>
        <time>2015-07-10T12:14:21Z</time>
      </trkpt>
      <trkpt lat="64.1574" lon="-19.75475">
        <ele>203.4</ele>
        <time>2015-07-10T12:14:34Z</time>
      </trkpt>
      <trkpt lat="64.15748" lon="-19.75463">
        <ele>207.6</ele>
        <time>2015-07-10T12:14:43Z</time>
      </trkpt>
      <trkpt lat="64.15752" lon="-19.75458">
        <ele>208</ele>
        <time>2015-07-10T12:14:47Z</time>
      </trkpt>
      <trkpt lat="64.15765" lon="-19.75447">
        <ele>208</ele>
        <time>2015-07-10T12:14:59Z</time>
      </trkpt>
      <trkpt lat="64.1578" lon="-19.75449">
        <ele>208</ele>
        <time>2015-07-10T12:15:10Z</time>
      </trkpt>
      <trkpt lat="64.15794" lon="-19.75443">
        <ele>207</ele>
        <time>2015-07-10T12:15:17Z</time>
      </trkpt>
      <trkpt lat="64.15803" lon="-19.75445">
        <ele>206.1</ele>
        <time>2015-07-10T12:15:24Z</time>
      </trkpt>
      <trkpt lat="64.15818" lon="-19.7544">
        <ele>206</ele>
        <time>2015-07-10T12:15:30Z</time>
      </trkpt>
      <trkpt lat="64.15828" lon="-19.75439">
        <ele>206</ele>
        <time>2015-07-10T12:15:33Z</time>
      </trkpt>
      <trkpt lat="64.15836" lon="-19.75427">
        <ele>206</ele>
        <time>2015-07-10T12:15:44Z</time>
      </trkpt>
      <trkpt lat="64.1585" lon="-19.75431">
        <ele>206.5</ele>
        <time>2015-07-10T12:15:53Z</time>
      </trkpt>
      <trkpt lat="64.15855" lon="-19.75434">
        <ele>215.2</ele>
        <time>2015-07-10T12:15:57Z</time>
      </trkpt>
      <trkpt lat="64.15866" lon="-19.75427">
        <ele>217.8</ele>
        <time>2015-07-10T12:16:05Z</time>
      </trkpt>
      <trkpt lat="64.15877" lon="-19.75426">
        <ele>222</ele>
        <time>2015-07-10T12:16:12Z</time>
      </trkpt>
      <trkpt lat="64.15887" lon="-19.75433">
        <ele>223.9</ele>
        <time>2015-07-10T12:16:19Z</time>
      </trkpt>
      <trkpt lat="64.15901" lon="-19.75431">
        <ele>224</ele>
        <time>2015-07-10T12:16:33Z</time>
      </trkpt>
      <trkpt lat="64.15911" lon="-19.75435">
        <ele>224</ele>
        <time>2015-07-10T12:16:43Z</time>
      </trkpt>
      <trkpt lat="64.1592" lon="-19.75433">
        <ele>224</ele>
        <time>2015-07-10T12:16:50Z</time>
      </trkpt>
      <trkpt lat="64.15934" lon="-19.75431">
        <ele>212</ele>
        <time>2015-07-10T12:17:02Z</time>
      </trkpt>
      <trkpt lat="64.15937" lon="-19.7544">
        <ele>209</ele>
        <time>2015-07-10T12:17:09Z</time>
      </trkpt>
      <trkpt lat="64.15952" lon="-19.75442">
        <ele>208</ele>
        <time>2015-07-10T12:17:21Z</time>
      </trkpt>
      <trkpt lat="64.15962" lon="-19.75439">
        <ele>207</ele>
        <time>2015-07-10T12:17:29Z</time>
      </trkpt>
      <trkpt lat="64.15972" lon="-19.75438">
        <ele>207</ele>
        <time>2015-07-10T12:17:36Z</time>
      </trkpt>
      <trkpt lat="64.15979" lon="-19.75452">
        <ele>207.1</ele>
        <time>2015-07-10T12:17:46Z</time>
      </trkpt>
      <trkpt lat="64.15982" lon="-19.7546">
        <ele>204.1</ele>
        <time>2015-07-10T12:17:51Z</time>
      </trkpt>
      <trkpt lat="64.15987" lon="-19.75464">
        <ele>204.1</ele>
        <time>2015-07-10T12:17:55Z</time>
      </trkpt>
      <trkpt lat="64.15995" lon="-19.75469">
        <ele>203.1</ele>
        <time>2015-07-10T12:17:59Z</time>
      </trkpt>
      <trkpt lat="64.16008" lon="-19.75469">
        <ele>202.1</ele>
        <time>2015-07-10T12:18:11Z</time>
      </trkpt>
      <trkpt lat="64.16022" lon="-19.7547">
        <ele>203</ele>
        <time>2015-07-10T12:18:20Z</time>
      </trkpt>
      <trkpt lat="64.16027" lon="-19.75471">
        <ele>203</ele>
        <time>2015-07-10T12:18:24Z</time>
      </trkpt>
      <trkpt lat="64.16036" lon="-19.75485">
        <ele>203</ele>
        <time>2015-07-10T12:18:32Z</time>
      </trkpt>
      <trkpt lat="64.1604" lon="-19.75475">
        <ele>203</ele>
        <time>2015-07-10T12:18:39Z</time>
      </trkpt>
      <trkpt lat="64.16045" lon="-19.75471">
        <ele>203</ele>
        <time>2015-07-10T12:18:44Z</time>
      </trkpt>
      <trkpt lat="64.16054" lon="-19.75466">
        <ele>203</ele>
        <time>2015-07-10T12:18:52Z</time>
      </trkpt>
      <trkpt lat="64.16059" lon="-19.75466">
        <ele>203</ele>
        <time>2015-07-10T12:18:58Z</time>
      </trkpt>
      <trkpt lat="64.16067" lon="-19.75457">
        <ele>203</ele>
        <time>2015-07-10T12:19:04Z</time>
      </trkpt>
      <trkpt lat="64.16072" lon="-19.75455">
        <ele>203</ele>
        <time>2015-07-10T12:19:08Z</time>
      </trkpt>
      <trkpt lat="64.16078" lon="-19.75458">
        <ele>203</ele>
        <time>2015-07-10T12:19:12Z</time>
      </trkpt>
      <trkpt lat="64.16083" lon="-19.75458">
        <ele>203</ele>
        <time>2015-07-10T12:19:16Z</time>
      </trkpt>
      <trkpt lat="64.16097" lon="-19.75461">
        <ele>202.2</ele>
        <time>2015-07-10T12:19:27Z</time>
      </trkpt>
      <trkpt lat="64.16102" lon="-19.75459">
        <ele>202</ele>
        <time>2015-07-10T12:19:31Z</time>
      </trkpt>
      <trkpt lat="64.16111" lon="-19.75465">
        <ele>201</ele>
        <time>2015-07-10T12:19:39Z</time>
      </trkpt>
      <trkpt lat="64.16115" lon="-19.75466">
        <ele>201</ele>
        <time>2015-07-10T12:19:41Z</time>
      </trkpt>
      <trkpt lat="64.16125" lon="-19.75463">
        <ele>200.1</ele>
        <time>2015-07-10T12:19:49Z</time>
      </trkpt>
      <trkpt lat="64.16136" lon="-19.75464">
        <ele>199</ele>
        <time>2015-07-10T12:19:55Z</time>
      </trkpt>
      <trkpt lat="64.16144" lon="-19.75455">
        <ele>198</ele>
        <time>2015-07-10T12:20:01Z</time>
      </trkpt>
      <trkpt lat="64.16152" lon="-19.75429">
        <ele>197.1</ele>
        <time>2015-07-10T12:20:15Z</time>
      </trkpt>
      <trkpt lat="64.16157" lon="-19.75426">
        <ele>197</ele>
        <time>2015-07-10T12:20:21Z</time>
      </trkpt>
      <trkpt lat="64.16163" lon="-19.75429">
        <ele>197</ele>
        <time>2015-07-10T12:20:25Z</time>
      </trkpt>
      <trkpt lat="64.16178" lon="-19.75435">
        <ele>196.2</ele>
        <time>2015-07-10T12:20:35Z</time>
      </trkpt>
      <trkpt lat="64.16187" lon="-19.75438">
        <ele>190.9</ele>
        <time>2015-07-10T12:20:44Z</time>
      </trkpt>
      <trkpt lat="64.16201" lon="-19.75427">
        <ele>188</ele>
        <time>2015-07-10T12:20:52Z</time>
      </trkpt>
      <trkpt lat="64.16209" lon="-19.75413">
        <ele>185.5</ele>
        <time>2015-07-10T12:21:03Z</time>
      </trkpt>
      <trkpt lat="64.16218" lon="-19.75404">
        <ele>184.1</ele>
        <time>2015-07-10T12:21:13Z</time>
      </trkpt>
      <trkpt lat="64.16223" lon="-19.75396">
        <ele>184</ele>
        <time>2015-07-10T12:21:18Z</time>
      </trkpt>
      <trkpt lat="64.16232" lon="-19.75393">
        <ele>184</ele>
        <time>2015-07-10T12:21:23Z</time>
      </trkpt>
      <trkpt lat="64.16241" lon="-19.75383">
        <ele>184</ele>
        <time>2015-07-10T12:21:32Z</time>
      </trkpt>
      <trkpt lat="64.1625" lon="-19.75377">
        <ele>184</ele>
        <time>2015-07-10T12:21:37Z</time>
      </trkpt>
      <trkpt lat="64.16257" lon="-19.75372">
        <ele>184</ele>
        <time>2015-07-10T12:21:45Z</time>
      </trkpt>
      <trkpt lat="64.16263" lon="-19.7537">
        <ele>184</ele>
        <time>2015-07-10T12:21:47Z</time>
      </trkpt>
      <trkpt lat="64.16276" lon="-19.7537">
        <ele>185.8</ele>
        <time>2015-07-10T12:21:57Z</time>
      </trkpt>
      <trkpt lat="64.16282" lon="-19.75369">
        <ele>186.9</ele>
        <time>2015-07-10T12:22:01Z</time>
      </trkpt>
      <trkpt lat="64.16295" lon="-19.75359">
        <ele>189.7</ele>
        <time>2015-07-10T12:22:16Z</time>
      </trkpt>
      <trkpt lat="64.16307" lon="-19.75358">
        <ele>194.6</ele>
        <time>2015-07-10T12:22:23Z</time>
      </trkpt>
      <trkpt lat="64.16317" lon="-19.75352">
        <ele>197.7</ele>
        <time>2015-07-10T12:22:28Z</time>
      </trkpt>
      <trkpt lat="64.16321" lon="-19.7535">
        <ele>198.9</ele>
        <time>2015-07-10T12:22:32Z</time>
      </trkpt>
      <trkpt lat="64.16335" lon="-19.75345">
        <ele>199</ele>
        <time>2015-07-10T12:22:46Z</time>
      </trkpt>
      <trkpt lat="64.16343" lon="-19.75336">
        <ele>199.9</ele>
        <time>2015-07-10T12:22:52Z</time>
      </trkpt>
      <trkpt lat="64.16347" lon="-19.75329">
        <ele>200</ele>
        <time>2015-07-10T12:22:57Z</time>
      </trkpt>
      <trkpt lat="64.16351" lon="-19.75327">
        <ele>200</ele>
        <time>2015-07-10T12:23:03Z</time>
      </trkpt>
      <trkpt lat="64.16357" lon="-19.75323">
        <ele>200</ele>
        <time>2015-07-10T12:23:07Z</time>
      </trkpt>
      <trkpt lat="64.16363" lon="-19.75321">
        <ele>200</ele>
        <time>2015-07-10T12:23:12Z</time>
      </trkpt>
      <trkpt lat="64.16369" lon="-19.75316">
        <ele>200</ele>
        <time>2015-07-10T12:23:16Z</time>
      </trkpt>
      <trkpt lat="64.16378" lon="-19.75314">
        <ele>200</ele>
        <time>2015-07-10T12:23:23Z</time>
      </trkpt>
      <trkpt lat="64.1639" lon="-19.75317">
        <ele>201</ele>
        <time>2015-07-10T12:23:32Z</time>
      </trkpt>
      <trkpt lat="64.16396" lon="-19.75315">
        <ele>201</ele>
        <time>2015-07-10T12:23:37Z</time>
      </trkpt>
      <trkpt lat="64.164" lon="-19.75309">
        <ele>202</ele>
        <time>2015-07-10T12:23:42Z</time>
      </trkpt>
      <trkpt lat="64.16406" lon="-19.75306">
        <ele>202</ele>
        <time>2015-07-10T12:23:47Z</time>
      </trkpt>
      <trkpt lat="64.16416" lon="-19.75302">
        <ele>204.2</ele>
        <time>2015-07-10T12:23:51Z</time>
      </trkpt>
      <trkpt lat="64.16421" lon="-19.75298">
        <ele>206.7</ele>
        <time>2015-07-10T12:23:55Z</time>
      </trkpt>
      <trkpt lat="64.16425" lon="-19.75293">
        <ele>207.5</ele>
        <time>2015-07-10T12:24:00Z</time>
      </trkpt>
      <trkpt lat="64.16434" lon="-19.75284">
        <ele>208</ele>
        <time>2015-07-10T12:24:10Z</time>
      </trkpt>
      <trkpt lat="64.16441" lon="-19.75277">
        <ele>209.5</ele>
        <time>2015-07-10T12:24:15Z</time>
      </trkpt>
      <trkpt lat="64.16445" lon="-19.75273">
        <ele>212.9</ele>
        <time>2015-07-10T12:24:20Z</time>
      </trkpt>
      <trkpt lat="64.16455" lon="-19.75277">
        <ele>213</ele>
        <time>2015-07-10T12:24:26Z</time>
      </trkpt>
      <trkpt lat="64.16469" lon="-19.75279">
        <ele>214</ele>
        <time>2015-07-10T12:24:37Z</time>
      </trkpt>
      <trkpt lat="64.16484" lon="-19.75275">
        <ele>215</ele>
        <time>2015-07-10T12:24:51Z</time>
      </trkpt>
      <trkpt lat="64.16498" lon="-19.7527">
        <ele>215</ele>
        <time>2015-07-10T12:25:07Z</time>
      </trkpt>
      <trkpt lat="64.16507" lon="-19.75273">
        <ele>215</ele>
        <time>2015-07-10T12:25:13Z</time>
      </trkpt>
      <trkpt lat="64.1652" lon="-19.75264">
        <ele>216</ele>
        <time>2015-07-10T12:25:26Z</time>
      </trkpt>
      <trkpt lat="64.16529" lon="-19.75255">
        <ele>216</ele>
        <time>2015-07-10T12:25:32Z</time>
      </trkpt>
      <trkpt lat="64.16536" lon="-19.75254">
        <ele>215</ele>
        <time>2015-07-10T12:25:39Z</time>
      </trkpt>
      <trkpt lat="64.16546" lon="-19.75246">
        <ele>215</ele>
        <time>2015-07-10T12:25:49Z</time>
      </trkpt>
      <trkpt lat="64.16554" lon="-19.75237">
        <ele>215</ele>
        <time>2015-07-10T12:25:56Z</time>
      </trkpt>
      <trkpt lat="64.16562" lon="-19.75239">
        <ele>215.9</ele>
        <time>2015-07-10T12:26:01Z</time>
      </trkpt>
      <trkpt lat="64.16562" lon="-19.75252">
        <ele>215.9</ele>
        <time>2015-07-10T12:26:05Z</time>
      </trkpt>
      <trkpt lat="64.16571" lon="-19.75256">
        <ele>214.5</ele>
        <time>2015-07-10T12:26:16Z</time>
      </trkpt>
      <trkpt lat="64.16579" lon="-19.75264">
        <ele>214</ele>
        <time>2015-07-10T12:26:25Z</time>
      </trkpt>
      <trkpt lat="64.16588" lon="-19.75262">
        <ele>213.5</ele>
        <time>2015-07-10T12:26:30Z</time>
      </trkpt>
      <trkpt lat="64.16596" lon="-19.75256">
        <ele>213</ele>
        <time>2015-07-10T12:26:36Z</time>
      </trkpt>
      <trkpt lat="64.16601" lon="-19.75253">
        <ele>212</ele>
        <time>2015-07-10T12:26:46Z</time>
      </trkpt>
      <trkpt lat="64.16605" lon="-19.75246">
        <ele>212</ele>
        <time>2015-07-10T12:26:53Z</time>
      </trkpt>
      <trkpt lat="64.1661" lon="-19.75245">
        <ele>212</ele>
        <time>2015-07-10T12:26:56Z</time>
      </trkpt>
      <trkpt lat="64.16617" lon="-19.75239">
        <ele>212</ele>
        <time>2015-07-10T12:27:03Z</time>
      </trkpt>
      <trkpt lat="64.16622" lon="-19.75229">
        <ele>212</ele>
        <time>2015-07-10T12:27:10Z</time>
      </trkpt>
      <trkpt lat="64.16626" lon="-19.75222">
        <ele>212</ele>
        <time>2015-07-10T12:27:14Z</time>
      </trkpt>
      <trkpt lat="64.16638" lon="-19.75202">
        <ele>212</ele>
        <time>2015-07-10T12:27:24Z</time>
      </trkpt>
      <trkpt lat="64.16642" lon="-19.75195">
        <ele>212.8</ele>
        <time>2015-07-10T12:27:29Z</time>
      </trkpt>
      <trkpt lat="64.16653" lon="-19.75171">
        <ele>213.5</ele>
        <time>2015-07-10T12:27:41Z</time>
      </trkpt>
      <trkpt lat="64.16658" lon="-19.75153">
        <ele>214</ele>
        <time>2015-07-10T12:27:46Z</time>
      </trkpt>
      <trkpt lat="64.1666" lon="-19.75128">
        <ele>214</ele>
        <time>2015-07-10T12:27:52Z</time>
      </trkpt>
      <trkpt lat="64.16662" lon="-19.7512">
        <ele>214</ele>
        <time>2015-07-10T12:27:59Z</time>
      </trkpt>
      <trkpt lat="64.16666" lon="-19.75125">
        <ele>213.2</ele>
        <time>2015-07-10T12:28:02Z</time>
      </trkpt>
      <trkpt lat="64.16671" lon="-19.75134">
        <ele>211.5</ele>
        <time>2015-07-10T12:28:11Z</time>
      </trkpt>
      <trkpt lat="64.16677" lon="-19.75127">
        <ele>207</ele>
        <time>2015-07-10T12:28:35Z</time>
      </trkpt>
      <trkpt lat="64.16677" lon="-19.75106">
        <ele>202</ele>
        <time>2015-07-10T12:29:11Z</time>
      </trkpt>
      <trkpt lat="64.16681" lon="-19.75101">
        <ele>202</ele>
        <time>2015-07-10T12:29:15Z</time>
      </trkpt>
      <trkpt lat="64.16684" lon="-19.75111">
        <ele>202</ele>
        <time>2015-07-10T12:29:20Z</time>
      </trkpt>
      <trkpt lat="64.1669" lon="-19.75116">
        <ele>202</ele>
        <time>2015-07-10T12:29:32Z</time>
      </trkpt>
      <trkpt lat="64.16686" lon="-19.75122">
        <ele>202</ele>
        <time>2015-07-10T12:29:34Z</time>
      </trkpt>
      <trkpt lat="64.16682" lon="-19.75128">
        <ele>202</ele>
        <time>2015-07-10T12:29:37Z</time>
      </trkpt>
      <trkpt lat="64.16683" lon="-19.75116">
        <ele>202</ele>
        <time>2015-07-10T12:30:31Z</time>
      </trkpt>
      <trkpt lat="64.16687" lon="-19.75108">
        <ele>202.9</ele>
        <time>2015-07-10T12:30:36Z</time>
      </trkpt>
      <trkpt lat="64.16691" lon="-19.75103">
        <ele>203</ele>
        <time>2015-07-10T12:30:40Z</time>
      </trkpt>
      <trkpt lat="64.16696" lon="-19.75093">
        <ele>203</ele>
        <time>2015-07-10T12:30:45Z</time>
      </trkpt>
      <trkpt lat="64.16701" lon="-19.75074">
        <ele>203.8</ele>
        <time>2015-07-10T12:30:51Z</time>
      </trkpt>
      <trkpt lat="64.16705" lon="-19.75071">
        <ele>204</ele>
        <time>2015-07-10T12:30:55Z</time>
      </trkpt>
      <trkpt lat="64.16715" lon="-19.75074">
        <ele>204</ele>
        <time>2015-07-10T12:31:02Z</time>
      </trkpt>
      <trkpt lat="64.16728" lon="-19.75066">
        <ele>204</ele>
        <time>2015-07-10T12:31:10Z</time>
      </trkpt>
      <trkpt lat="64.16737" lon="-19.75064">
        <ele>205</ele>
        <time>2015-07-10T12:31:19Z</time>
      </trkpt>
      <trkpt lat="64.16742" lon="-19.75071">
        <ele>205.7</ele>
        <time>2015-07-10T12:31:24Z</time>
      </trkpt>
      <trkpt lat="64.16749" lon="-19.75073">
        <ele>208.5</ele>
        <time>2015-07-10T12:31:33Z</time>
      </trkpt>
      <trkpt lat="64.16749" lon="-19.75087">
        <ele>210</ele>
        <time>2015-07-10T12:31:38Z</time>
      </trkpt>
      <trkpt lat="64.16755" lon="-19.75091">
        <ele>210</ele>
        <time>2015-07-10T12:31:42Z</time>
      </trkpt>
      <trkpt lat="64.16768" lon="-19.751">
        <ele>211</ele>
        <time>2015-07-10T12:31:56Z</time>
      </trkpt>
      <trkpt lat="64.16777" lon="-19.75096">
        <ele>212</ele>
        <time>2015-07-10T12:32:05Z</time>
      </trkpt>
      <trkpt lat="64.16791" lon="-19.75095">
        <ele>212</ele>
        <time>2015-07-10T12:32:14Z</time>
      </trkpt>
      <trkpt lat="64.16794" lon="-19.75103">
        <ele>212</ele>
        <time>2015-07-10T12:32:18Z</time>
      </trkpt>
      <trkpt lat="64.16807" lon="-19.75097">
        <ele>211.1</ele>
        <time>2015-07-10T12:32:30Z</time>
      </trkpt>
      <trkpt lat="64.16811" lon="-19.75099">
        <ele>211</ele>
        <time>2015-07-10T12:32:35Z</time>
      </trkpt>
      <trkpt lat="64.16821" lon="-19.75097">
        <ele>210</ele>
        <time>2015-07-10T12:32:44Z</time>
      </trkpt>
      <trkpt lat="64.16835" lon="-19.75095">
        <ele>210</ele>
        <time>2015-07-10T12:32:58Z</time>
      </trkpt>
      <trkpt lat="64.16844" lon="-19.75091">
        <ele>210.9</ele>
        <time>2015-07-10T12:33:07Z</time>
      </trkpt>
      <trkpt lat="64.16853" lon="-19.75095">
        <ele>211.9</ele>
        <time>2015-07-10T12:33:14Z</time>
      </trkpt>
      <trkpt lat="64.16866" lon="-19.75104">
        <ele>212.7</ele>
        <time>2015-07-10T12:33:23Z</time>
      </trkpt>
      <trkpt lat="64.16879" lon="-19.75116">
        <ele>213</ele>
        <time>2015-07-10T12:33:29Z</time>
      </trkpt>
      <trkpt lat="64.16888" lon="-19.7511">
        <ele>213</ele>
        <time>2015-07-10T12:33:33Z</time>
      </trkpt>
      <trkpt lat="64.16897" lon="-19.75102">
        <ele>214.9</ele>
        <time>2015-07-10T12:33:45Z</time>
      </trkpt>
      <trkpt lat="64.16911" lon="-19.75093">
        <ele>218.5</ele>
        <time>2015-07-10T12:33:57Z</time>
      </trkpt>
      <trkpt lat="64.16919" lon="-19.75091">
        <ele>219</ele>
        <time>2015-07-10T12:34:03Z</time>
      </trkpt>
      <trkpt lat="64.16925" lon="-19.75087">
        <ele>219</ele>
        <time>2015-07-10T12:34:07Z</time>
      </trkpt>
      <trkpt lat="64.16928" lon="-19.75095">
        <ele>219</ele>
        <time>2015-07-10T12:34:14Z</time>
      </trkpt>
      <trkpt lat="64.16931" lon="-19.75104">
        <ele>219</ele>
        <time>2015-07-10T12:34:18Z</time>
      </trkpt>
      <trkpt lat="64.16935" lon="-19.75106">
        <ele>219</ele>
        <time>2015-07-10T12:34:21Z</time>
      </trkpt>
      <trkpt lat="64.16941" lon="-19.7511">
        <ele>219</ele>
        <time>2015-07-10T12:34:25Z</time>
      </trkpt>
      <trkpt lat="64.16946" lon="-19.75115">
        <ele>219</ele>
        <time>2015-07-10T12:34:50Z</time>
      </trkpt>
      <trkpt lat="64.16955" lon="-19.75107">
        <ele>220</ele>
        <time>2015-07-10T12:34:56Z</time>
      </trkpt>
      <trkpt lat="64.16959" lon="-19.75106">
        <ele>220</ele>
        <time>2015-07-10T12:35:00Z</time>
      </trkpt>
      <trkpt lat="64.16969" lon="-19.75103">
        <ele>222</ele>
        <time>2015-07-10T12:35:08Z</time>
      </trkpt>
      <trkpt lat="64.1698" lon="-19.75107">
        <ele>223</ele>
        <time>2015-07-10T12:35:13Z</time>
      </trkpt>
      <trkpt lat="64.16989" lon="-19.751">
        <ele>223</ele>
        <time>2015-07-10T12:35:21Z</time>
      </trkpt>
      <trkpt lat="64.16994" lon="-19.75103">
        <ele>223</ele>
        <time>2015-07-10T12:35:26Z</time>
      </trkpt>
      <trkpt lat="64.17" lon="-19.75102">
        <ele>223</ele>
        <time>2015-07-10T12:35:29Z</time>
      </trkpt>
      <trkpt lat="64.17001" lon="-19.75091">
        <ele>222.1</ele>
        <time>2015-07-10T12:35:35Z</time>
      </trkpt>
      <trkpt lat="64.17005" lon="-19.75082">
        <ele>221.3</ele>
        <time>2015-07-10T12:35:41Z</time>
      </trkpt>
      <trkpt lat="64.17011" lon="-19.75069">
        <ele>220.1</ele>
        <time>2015-07-10T12:35:47Z</time>
      </trkpt>
      <trkpt lat="64.17015" lon="-19.75067">
        <ele>219.1</ele>
        <time>2015-07-10T12:35:52Z</time>
      </trkpt>
      <trkpt lat="64.1702" lon="-19.75064">
        <ele>219</ele>
        <time>2015-07-10T12:35:56Z</time>
      </trkpt>
      <trkpt lat="64.17028" lon="-19.75072">
        <ele>214.1</ele>
        <time>2015-07-10T12:36:07Z</time>
      </trkpt>
      <trkpt lat="64.17034" lon="-19.75076">
        <ele>214</ele>
        <time>2015-07-10T12:36:11Z</time>
      </trkpt>
      <trkpt lat="64.17048" lon="-19.75075">
        <ele>214</ele>
        <time>2015-07-10T12:36:22Z</time>
      </trkpt>
      <trkpt lat="64.17063" lon="-19.75071">
        <ele>213.2</ele>
        <time>2015-07-10T12:36:30Z</time>
      </trkpt>
      <trkpt lat="64.17072" lon="-19.75067">
        <ele>213.5</ele>
        <time>2015-07-10T12:36:39Z</time>
      </trkpt>
      <trkpt lat="64.17078" lon="-19.75065">
        <ele>214</ele>
        <time>2015-07-10T12:36:43Z</time>
      </trkpt>
      <trkpt lat="64.17083" lon="-19.75064">
        <ele>214.9</ele>
        <time>2015-07-10T12:36:48Z</time>
      </trkpt>
      <trkpt lat="64.17087" lon="-19.75058">
        <ele>215</ele>
        <time>2015-07-10T12:36:54Z</time>
      </trkpt>
      <trkpt lat="64.17092" lon="-19.75055">
        <ele>215</ele>
        <time>2015-07-10T12:36:56Z</time>
      </trkpt>
      <trkpt lat="64.17097" lon="-19.75052">
        <ele>215</ele>
        <time>2015-07-10T12:37:02Z</time>
      </trkpt>
      <trkpt lat="64.17101" lon="-19.75051">
        <ele>215</ele>
        <time>2015-07-10T12:37:08Z</time>
      </trkpt>
      <trkpt lat="64.17104" lon="-19.75043">
        <ele>210.4</ele>
        <time>2015-07-10T12:37:22Z</time>
      </trkpt>
      <trkpt lat="64.17109" lon="-19.75045">
        <ele>210</ele>
        <time>2015-07-10T12:37:26Z</time>
      </trkpt>
      <trkpt lat="64.17114" lon="-19.75041">
        <ele>209</ele>
        <time>2015-07-10T12:37:32Z</time>
      </trkpt>
      <trkpt lat="64.17117" lon="-19.75032">
        <ele>209</ele>
        <time>2015-07-10T12:37:35Z</time>
      </trkpt>
      <trkpt lat="64.17125" lon="-19.75033">
        <ele>207.1</ele>
        <time>2015-07-10T12:37:43Z</time>
      </trkpt>
      <trkpt lat="64.17127" lon="-19.75043">
        <ele>207</ele>
        <time>2015-07-10T12:37:50Z</time>
      </trkpt>
      <trkpt lat="64.17141" lon="-19.75046">
        <ele>203.2</ele>
        <time>2015-07-10T12:38:01Z</time>
      </trkpt>
      <trkpt lat="64.17146" lon="-19.75048">
        <ele>202</ele>
        <time>2015-07-10T12:38:04Z</time>
      </trkpt>
      <trkpt lat="64.1715" lon="-19.75045">
        <ele>202</ele>
        <time>2015-07-10T12:38:07Z</time>
      </trkpt>
      <trkpt lat="64.17155" lon="-19.75037">
        <ele>200</ele>
        <time>2015-07-10T12:38:17Z</time>
      </trkpt>
      <trkpt lat="64.17165" lon="-19.75037">
        <ele>198.3</ele>
        <time>2015-07-10T12:38:27Z</time>
      </trkpt>
      <trkpt lat="64.17166" lon="-19.75058">
        <ele>197</ele>
        <time>2015-07-10T12:38:34Z</time>
      </trkpt>
      <trkpt lat="64.1718" lon="-19.7505">
        <ele>197</ele>
        <time>2015-07-10T12:38:42Z</time>
      </trkpt>
      <trkpt lat="64.17191" lon="-19.75038">
        <ele>197.5</ele>
        <time>2015-07-10T12:38:48Z</time>
      </trkpt>
      <trkpt lat="64.17204" lon="-19.75028">
        <ele>198</ele>
        <time>2015-07-10T12:38:55Z</time>
      </trkpt>
      <trkpt lat="64.1721" lon="-19.75024">
        <ele>199.5</ele>
        <time>2015-07-10T12:39:00Z</time>
      </trkpt>
      <trkpt lat="64.17219" lon="-19.75025">
        <ele>198</ele>
        <time>2015-07-10T12:39:13Z</time>
      </trkpt>
      <trkpt lat="64.1724" lon="-19.75034">
        <ele>198</ele>
        <time>2015-07-10T12:39:19Z</time>
      </trkpt>
      <trkpt lat="64.17255" lon="-19.75032">
        <ele>200.5</ele>
        <time>2015-07-10T12:39:32Z</time>
      </trkpt>
      <trkpt lat="64.17261" lon="-19.75033">
        <ele>201</ele>
        <time>2015-07-10T12:39:35Z</time>
      </trkpt>
      <trkpt lat="64.17274" lon="-19.75029">
        <ele>201.9</ele>
        <time>2015-07-10T12:39:43Z</time>
      </trkpt>
      <trkpt lat="64.1728" lon="-19.75029">
        <ele>202</ele>
        <time>2015-07-10T12:39:49Z</time>
      </trkpt>
      <trkpt lat="64.17284" lon="-19.75035">
        <ele>202.9</ele>
        <time>2015-07-10T12:39:54Z</time>
      </trkpt>
      <trkpt lat="64.17293" lon="-19.75031">
        <ele>219</ele>
        <time>2015-07-10T12:40:20Z</time>
      </trkpt>
      <trkpt lat="64.17297" lon="-19.75033">
        <ele>219</ele>
        <time>2015-07-10T12:40:23Z</time>
      </trkpt>
      <trkpt lat="64.17302" lon="-19.75039">
        <ele>219.9</ele>
        <time>2015-07-10T12:40:30Z</time>
      </trkpt>
      <trkpt lat="64.17308" lon="-19.75041">
        <ele>220</ele>
        <time>2015-07-10T12:40:36Z</time>
      </trkpt>
      <trkpt lat="64.17316" lon="-19.75044">
        <ele>220</ele>
        <time>2015-07-10T12:40:44Z</time>
      </trkpt>
      <trkpt lat="64.17325" lon="-19.75041">
        <ele>219</ele>
        <time>2015-07-10T12:40:50Z</time>
      </trkpt>
      <trkpt lat="64.17332" lon="-19.75041">
        <ele>219.5</ele>
        <time>2015-07-10T12:40:53Z</time>
      </trkpt>
      <trkpt lat="64.17341" lon="-19.75037">
        <ele>219.9</ele>
        <time>2015-07-10T12:40:57Z</time>
      </trkpt>
      <trkpt lat="64.17351" lon="-19.75033">
        <ele>220</ele>
        <time>2015-07-10T12:41:02Z</time>
      </trkpt>
      <trkpt lat="64.1736" lon="-19.75009">
        <ele>220</ele>
        <time>2015-07-10T12:41:12Z</time>
      </trkpt>
      <trkpt lat="64.17365" lon="-19.75002">
        <ele>220.5</ele>
        <time>2015-07-10T12:41:15Z</time>
      </trkpt>
      <trkpt lat="64.17371" lon="-19.74999">
        <ele>220.5</ele>
        <time>2015-07-10T12:41:18Z</time>
      </trkpt>
      <trkpt lat="64.17376" lon="-19.74995">
        <ele>225.8</ele>
        <time>2015-07-10T12:41:21Z</time>
      </trkpt>
      <trkpt lat="64.17376" lon="-19.74984">
        <ele>229.9</ele>
        <time>2015-07-10T12:41:27Z</time>
      </trkpt>
      <trkpt lat="64.17385" lon="-19.74977">
        <ele>230</ele>
        <time>2015-07-10T12:41:36Z</time>
      </trkpt>
      <trkpt lat="64.17394" lon="-19.74949">
        <ele>230</ele>
        <time>2015-07-10T12:41:45Z</time>
      </trkpt>
      <trkpt lat="64.17398" lon="-19.74944">
        <ele>230</ele>
        <time>2015-07-10T12:41:50Z</time>
      </trkpt>
      <trkpt lat="64.17402" lon="-19.74938">
        <ele>230</ele>
        <time>2015-07-10T12:41:55Z</time>
      </trkpt>
      <trkpt lat="64.17405" lon="-19.74917">
        <ele>227.6</ele>
        <time>2015-07-10T12:42:03Z</time>
      </trkpt>
      <trkpt lat="64.1741" lon="-19.74914">
        <ele>226.1</ele>
        <time>2015-07-10T12:42:07Z</time>
      </trkpt>
      <trkpt lat="64.17416" lon="-19.74914">
        <ele>226.1</ele>
        <time>2015-07-10T12:42:10Z</time>
      </trkpt>
      <trkpt lat="64.17417" lon="-19.7489">
        <ele>221.3</ele>
        <time>2015-07-10T12:42:20Z</time>
      </trkpt>
      <trkpt lat="64.17419" lon="-19.74871">
        <ele>219.1</ele>
        <time>2015-07-10T12:42:26Z</time>
      </trkpt>
      <trkpt lat="64.17422" lon="-19.74862">
        <ele>219</ele>
        <time>2015-07-10T12:42:29Z</time>
      </trkpt>
      <trkpt lat="64.17428" lon="-19.74851">
        <ele>219</ele>
        <time>2015-07-10T12:42:34Z</time>
      </trkpt>
      <trkpt lat="64.17431" lon="-19.74841">
        <ele>219</ele>
        <time>2015-07-10T12:42:37Z</time>
      </trkpt>
      <trkpt lat="64.1744" lon="-19.7483">
        <ele>219</ele>
        <time>2015-07-10T12:42:44Z</time>
      </trkpt>
      <trkpt lat="64.17445" lon="-19.74827">
        <ele>219</ele>
        <time>2015-07-10T12:42:49Z</time>
      </trkpt>
      <trkpt lat="64.17455" lon="-19.74827">
        <ele>219</ele>
        <time>2015-07-10T12:42:53Z</time>
      </trkpt>
      <trkpt lat="64.17459" lon="-19.74823">
        <ele>221.7</ele>
        <time>2015-07-10T12:42:58Z</time>
      </trkpt>
      <trkpt lat="64.17464" lon="-19.74829">
        <ele>223.4</ele>
        <time>2015-07-10T12:43:07Z</time>
      </trkpt>
      <trkpt lat="64.17469" lon="-19.74827">
        <ele>226.8</ele>
        <time>2015-07-10T12:43:18Z</time>
      </trkpt>
      <trkpt lat="64.17474" lon="-19.74816">
        <ele>227</ele>
        <time>2015-07-10T12:43:26Z</time>
      </trkpt>
      <trkpt lat="64.17484" lon="-19.74793">
        <ele>227</ele>
        <time>2015-07-10T12:43:35Z</time>
      </trkpt>
      <trkpt lat="64.17493" lon="-19.74769">
        <ele>227</ele>
        <time>2015-07-10T12:43:43Z</time>
      </trkpt>
      <trkpt lat="64.17503" lon="-19.74756">
        <ele>227</ele>
        <time>2015-07-10T12:43:51Z</time>
      </trkpt>
      <trkpt lat="64.17512" lon="-19.7475">
        <ele>227</ele>
        <time>2015-07-10T12:44:08Z</time>
      </trkpt>
      <trkpt lat="64.17516" lon="-19.74721">
        <ele>226.1</ele>
        <time>2015-07-10T12:44:16Z</time>
      </trkpt>
      <trkpt lat="64.17519" lon="-19.74708">
        <ele>226</ele>
        <time>2015-07-10T12:44:19Z</time>
      </trkpt>
      <trkpt lat="64.17528" lon="-19.74684">
        <ele>226</ele>
        <time>2015-07-10T12:44:29Z</time>
      </trkpt>
      <trkpt lat="64.17534" lon="-19.74667">
        <ele>226</ele>
        <time>2015-07-10T12:44:36Z</time>
      </trkpt>
      <trkpt lat="64.17537" lon="-19.74657">
        <ele>226</ele>
        <time>2015-07-10T12:44:40Z</time>
      </trkpt>
      <trkpt lat="64.17543" lon="-19.74654">
        <ele>227</ele>
        <time>2015-07-10T12:44:45Z</time>
      </trkpt>
      <trkpt lat="64.17547" lon="-19.74645">
        <ele>227</ele>
        <time>2015-07-10T12:44:50Z</time>
      </trkpt>
      <trkpt lat="64.17552" lon="-19.7464">
        <ele>227</ele>
        <time>2015-07-10T12:44:53Z</time>
      </trkpt>
      <trkpt lat="64.17561" lon="-19.74632">
        <ele>227</ele>
        <time>2015-07-10T12:44:59Z</time>
      </trkpt>
      <trkpt lat="64.17563" lon="-19.74624">
        <ele>227</ele>
        <time>2015-07-10T12:45:03Z</time>
      </trkpt>
      <trkpt lat="64.17568" lon="-19.74603">
        <ele>228</ele>
        <time>2015-07-10T12:45:11Z</time>
      </trkpt>
      <trkpt lat="64.17573" lon="-19.74599">
        <ele>228.7</ele>
        <time>2015-07-10T12:45:14Z</time>
      </trkpt>
      <trkpt lat="64.17576" lon="-19.7459">
        <ele>229</ele>
        <time>2015-07-10T12:45:20Z</time>
      </trkpt>
      <trkpt lat="64.17581" lon="-19.74587">
        <ele>230.2</ele>
        <time>2015-07-10T12:45:25Z</time>
      </trkpt>
      <trkpt lat="64.17585" lon="-19.7458">
        <ele>230.2</ele>
        <time>2015-07-10T12:45:28Z</time>
      </trkpt>
      <trkpt lat="64.17591" lon="-19.74562">
        <ele>231</ele>
        <time>2015-07-10T12:45:37Z</time>
      </trkpt>
      <trkpt lat="64.17595" lon="-19.74558">
        <ele>231</ele>
        <time>2015-07-10T12:45:41Z</time>
      </trkpt>
      <trkpt lat="64.17602" lon="-19.74545">
        <ele>231</ele>
        <time>2015-07-10T12:45:49Z</time>
      </trkpt>
      <trkpt lat="64.17606" lon="-19.74535">
        <ele>231</ele>
        <time>2015-07-10T12:45:52Z</time>
      </trkpt>
      <trkpt lat="64.17615" lon="-19.74528">
        <ele>230.5</ele>
        <time>2015-07-10T12:46:07Z</time>
      </trkpt>
      <trkpt lat="64.17624" lon="-19.74517">
        <ele>231</ele>
        <time>2015-07-10T12:46:13Z</time>
      </trkpt>
      <trkpt lat="64.17628" lon="-19.74509">
        <ele>230</ele>
        <time>2015-07-10T12:46:22Z</time>
      </trkpt>
      <trkpt lat="64.1763" lon="-19.74496">
        <ele>230</ele>
        <time>2015-07-10T12:46:26Z</time>
      </trkpt>
      <trkpt lat="64.17633" lon="-19.74482">
        <ele>230</ele>
        <time>2015-07-10T12:46:28Z</time>
      </trkpt>
      <trkpt lat="64.17637" lon="-19.74472">
        <ele>230</ele>
        <time>2015-07-10T12:46:31Z</time>
      </trkpt>
      <trkpt lat="64.17643" lon="-19.74455">
        <ele>229.2</ele>
        <time>2015-07-10T12:46:40Z</time>
      </trkpt>
      <trkpt lat="64.1765" lon="-19.74435">
        <ele>228.5</ele>
        <time>2015-07-10T12:46:48Z</time>
      </trkpt>
      <trkpt lat="64.17654" lon="-19.74426">
        <ele>228</ele>
        <time>2015-07-10T12:46:52Z</time>
      </trkpt>
      <trkpt lat="64.1766" lon="-19.74415">
        <ele>228</ele>
        <time>2015-07-10T12:46:56Z</time>
      </trkpt>
      <trkpt lat="64.17666" lon="-19.744">
        <ele>228</ele>
        <time>2015-07-10T12:47:04Z</time>
      </trkpt>
      <trkpt lat="64.17667" lon="-19.74389">
        <ele>227</ele>
        <time>2015-07-10T12:47:09Z</time>
      </trkpt>
      <trkpt lat="64.1767" lon="-19.74381">
        <ele>227</ele>
        <time>2015-07-10T12:47:12Z</time>
      </trkpt>
      <trkpt lat="64.17673" lon="-19.74372">
        <ele>227</ele>
        <time>2015-07-10T12:47:15Z</time>
      </trkpt>
      <trkpt lat="64.17677" lon="-19.74365">
        <ele>226.5</ele>
        <time>2015-07-10T12:47:18Z</time>
      </trkpt>
      <trkpt lat="64.17682" lon="-19.74364">
        <ele>226</ele>
        <time>2015-07-10T12:47:32Z</time>
      </trkpt>
      <trkpt lat="64.17696" lon="-19.74354">
        <ele>226</ele>
        <time>2015-07-10T12:47:38Z</time>
      </trkpt>
      <trkpt lat="64.17711" lon="-19.74339">
        <ele>226</ele>
        <time>2015-07-10T12:47:45Z</time>
      </trkpt>
      <trkpt lat="64.1772" lon="-19.74332">
        <ele>226.9</ele>
        <time>2015-07-10T12:47:48Z</time>
      </trkpt>
      <trkpt lat="64.17725" lon="-19.74328">
        <ele>227</ele>
        <time>2015-07-10T12:47:50Z</time>
      </trkpt>
      <trkpt lat="64.17728" lon="-19.7432">
        <ele>227</ele>
        <time>2015-07-10T12:47:54Z</time>
      </trkpt>
      <trkpt lat="64.1773" lon="-19.7431">
        <ele>227</ele>
        <time>2015-07-10T12:47:58Z</time>
      </trkpt>
      <trkpt lat="64.17735" lon="-19.74302">
        <ele>227</ele>
        <time>2015-07-10T12:48:02Z</time>
      </trkpt>
      <trkpt lat="64.17743" lon="-19.74291">
        <ele>232</ele>
        <time>2015-07-10T12:48:17Z</time>
      </trkpt>
      <trkpt lat="64.17748" lon="-19.74287">
        <ele>232.7</ele>
        <time>2015-07-10T12:48:21Z</time>
      </trkpt>
      <trkpt lat="64.17749" lon="-19.74273">
        <ele>233</ele>
        <time>2015-07-10T12:48:27Z</time>
      </trkpt>
      <trkpt lat="64.17754" lon="-19.74267">
        <ele>233</ele>
        <time>2015-07-10T12:48:32Z</time>
      </trkpt>
      <trkpt lat="64.17762" lon="-19.74258">
        <ele>233</ele>
        <time>2015-07-10T12:48:39Z</time>
      </trkpt>
      <trkpt lat="64.17766" lon="-19.7425">
        <ele>233</ele>
        <time>2015-07-10T12:48:43Z</time>
      </trkpt>
      <trkpt lat="64.1777" lon="-19.74239">
        <ele>232.1</ele>
        <time>2015-07-10T12:48:47Z</time>
      </trkpt>
      <trkpt lat="64.17773" lon="-19.74229">
        <ele>231.5</ele>
        <time>2015-07-10T12:48:52Z</time>
      </trkpt>
      <trkpt lat="64.17779" lon="-19.74212">
        <ele>231</ele>
        <time>2015-07-10T12:48:57Z</time>
      </trkpt>
      <trkpt lat="64.17782" lon="-19.74191">
        <ele>231</ele>
        <time>2015-07-10T12:49:05Z</time>
      </trkpt>
      <trkpt lat="64.17785" lon="-19.74182">
        <ele>231</ele>
        <time>2015-07-10T12:49:10Z</time>
      </trkpt>
      <trkpt lat="64.1779" lon="-19.74175">
        <ele>231</ele>
        <time>2015-07-10T12:49:14Z</time>
      </trkpt>
      <trkpt lat="64.17794" lon="-19.7417">
        <ele>231</ele>
        <time>2015-07-10T12:49:17Z</time>
      </trkpt>
      <trkpt lat="64.17798" lon="-19.74162">
        <ele>231</ele>
        <time>2015-07-10T12:49:20Z</time>
      </trkpt>
      <trkpt lat="64.178" lon="-19.74148">
        <ele>233</ele>
        <time>2015-07-10T12:49:26Z</time>
      </trkpt>
      <trkpt lat="64.17803" lon="-19.74137">
        <ele>233</ele>
        <time>2015-07-10T12:49:29Z</time>
      </trkpt>
      <trkpt lat="64.17804" lon="-19.74126">
        <ele>233</ele>
        <time>2015-07-10T12:49:34Z</time>
      </trkpt>
      <trkpt lat="64.17804" lon="-19.74114">
        <ele>233</ele>
        <time>2015-07-10T12:49:40Z</time>
      </trkpt>
      <trkpt lat="64.17809" lon="-19.74095">
        <ele>233.9</ele>
        <time>2015-07-10T12:49:49Z</time>
      </trkpt>
      <trkpt lat="64.17816" lon="-19.74068">
        <ele>234</ele>
        <time>2015-07-10T12:49:58Z</time>
      </trkpt>
      <trkpt lat="64.17818" lon="-19.74045">
        <ele>234.8</ele>
        <time>2015-07-10T12:50:08Z</time>
      </trkpt>
      <trkpt lat="64.17819" lon="-19.74033">
        <ele>235</ele>
        <time>2015-07-10T12:50:13Z</time>
      </trkpt>
      <trkpt lat="64.17815" lon="-19.74004">
        <ele>235</ele>
        <time>2015-07-10T12:50:27Z</time>
      </trkpt>
      <trkpt lat="64.17817" lon="-19.73995">
        <ele>235</ele>
        <time>2015-07-10T12:50:41Z</time>
      </trkpt>
      <trkpt lat="64.17819" lon="-19.7398">
        <ele>234.5</ele>
        <time>2015-07-10T12:50:47Z</time>
      </trkpt>
      <trkpt lat="64.1783" lon="-19.73979">
        <ele>233</ele>
        <time>2015-07-10T12:51:05Z</time>
      </trkpt>
      <trkpt lat="64.17834" lon="-19.73974">
        <ele>232.5</ele>
        <time>2015-07-10T12:51:06Z</time>
      </trkpt>
      <trkpt lat="64.17838" lon="-19.73967">
        <ele>232.5</ele>
        <time>2015-07-10T12:51:08Z</time>
      </trkpt>
      <trkpt lat="64.17842" lon="-19.73959">
        <ele>232</ele>
        <time>2015-07-10T12:51:11Z</time>
      </trkpt>
      <trkpt lat="64.17845" lon="-19.73944">
        <ele>232</ele>
        <time>2015-07-10T12:51:17Z</time>
      </trkpt>
      <trkpt lat="64.17849" lon="-19.7394">
        <ele>232</ele>
        <time>2015-07-10T12:51:23Z</time>
      </trkpt>
      <trkpt lat="64.17851" lon="-19.7393">
        <ele>232</ele>
        <time>2015-07-10T12:51:28Z</time>
      </trkpt>
      <trkpt lat="64.17858" lon="-19.73921">
        <ele>232.8</ele>
        <time>2015-07-10T12:51:35Z</time>
      </trkpt>
      <trkpt lat="64.17861" lon="-19.7391">
        <ele>233.7</ele>
        <time>2015-07-10T12:51:42Z</time>
      </trkpt>
      <trkpt lat="64.17863" lon="-19.73898">
        <ele>234.9</ele>
        <time>2015-07-10T12:51:52Z</time>
      </trkpt>
      <trkpt lat="64.17864" lon="-19.73885">
        <ele>236</ele>
        <time>2015-07-10T12:51:55Z</time>
      </trkpt>
      <trkpt lat="64.17871" lon="-19.73893">
        <ele>239.7</ele>
        <time>2015-07-10T12:52:07Z</time>
      </trkpt>
      <trkpt lat="64.17874" lon="-19.73883">
        <ele>240</ele>
        <time>2015-07-10T12:52:13Z</time>
      </trkpt>
      <trkpt lat="64.1788" lon="-19.73864">
        <ele>240</ele>
        <time>2015-07-10T12:52:19Z</time>
      </trkpt>
      <trkpt lat="64.17881" lon="-19.73849">
        <ele>240</ele>
        <time>2015-07-10T12:52:24Z</time>
      </trkpt>
      <trkpt lat="64.17889" lon="-19.73832">
        <ele>240</ele>
        <time>2015-07-10T12:52:31Z</time>
      </trkpt>
      <trkpt lat="64.17897" lon="-19.73821">
        <ele>240</ele>
        <time>2015-07-10T12:52:37Z</time>
      </trkpt>
      <trkpt lat="64.17908" lon="-19.73812">
        <ele>240</ele>
        <time>2015-07-10T12:52:44Z</time>
      </trkpt>
      <trkpt lat="64.17913" lon="-19.738">
        <ele>240.9</ele>
        <time>2015-07-10T12:52:50Z</time>
      </trkpt>
      <trkpt lat="64.17918" lon="-19.73794">
        <ele>240.9</ele>
        <time>2015-07-10T12:52:52Z</time>
      </trkpt>
      <trkpt lat="64.17924" lon="-19.73787">
        <ele>243</ele>
        <time>2015-07-10T12:52:56Z</time>
      </trkpt>
      <trkpt lat="64.17934" lon="-19.73782">
        <ele>243</ele>
        <time>2015-07-10T12:53:05Z</time>
      </trkpt>
      <trkpt lat="64.1794" lon="-19.73762">
        <ele>243</ele>
        <time>2015-07-10T12:53:13Z</time>
      </trkpt>
      <trkpt lat="64.17943" lon="-19.73752">
        <ele>243</ele>
        <time>2015-07-10T12:53:17Z</time>
      </trkpt>
      <trkpt lat="64.17948" lon="-19.73754">
        <ele>243</ele>
        <time>2015-07-10T12:53:22Z</time>
      </trkpt>
      <trkpt lat="64.17958" lon="-19.73747">
        <ele>240.8</ele>
        <time>2015-07-10T12:53:27Z</time>
      </trkpt>
      <trkpt lat="64.17964" lon="-19.73747">
        <ele>238.5</ele>
        <time>2015-07-10T12:53:31Z</time>
      </trkpt>
      <trkpt lat="64.17968" lon="-19.73742">
        <ele>238.5</ele>
        <time>2015-07-10T12:53:34Z</time>
      </trkpt>
      <trkpt lat="64.17972" lon="-19.73735">
        <ele>237.3</ele>
        <time>2015-07-10T12:53:38Z</time>
      </trkpt>
      <trkpt lat="64.17973" lon="-19.73723">
        <ele>237</ele>
        <time>2015-07-10T12:53:46Z</time>
      </trkpt>
      <trkpt lat="64.17977" lon="-19.73716">
        <ele>237</ele>
        <time>2015-07-10T12:53:50Z</time>
      </trkpt>
      <trkpt lat="64.17982" lon="-19.73697">
        <ele>236.1</ele>
        <time>2015-07-10T12:53:57Z</time>
      </trkpt>
      <trkpt lat="64.17983" lon="-19.73681">
        <ele>236.8</ele>
        <time>2015-07-10T12:54:02Z</time>
      </trkpt>
      <trkpt lat="64.17985" lon="-19.73671">
        <ele>236.8</ele>
        <time>2015-07-10T12:54:06Z</time>
      </trkpt>
      <trkpt lat="64.17989" lon="-19.73662">
        <ele>237</ele>
        <time>2015-07-10T12:54:12Z</time>
      </trkpt>
      <trkpt lat="64.17991" lon="-19.7365">
        <ele>237</ele>
        <time>2015-07-10T12:54:17Z</time>
      </trkpt>
      <trkpt lat="64.17991" lon="-19.73637">
        <ele>237</ele>
        <time>2015-07-10T12:54:23Z</time>
      </trkpt>
      <trkpt lat="64.17993" lon="-19.73627">
        <ele>237</ele>
        <time>2015-07-10T12:54:28Z</time>
      </trkpt>
      <trkpt lat="64.18001" lon="-19.73601">
        <ele>236</ele>
        <time>2015-07-10T12:54:39Z</time>
      </trkpt>
      <trkpt lat="64.18004" lon="-19.7359">
        <ele>236</ele>
        <time>2015-07-10T12:54:43Z</time>
      </trkpt>
      <trkpt lat="64.18013" lon="-19.73566">
        <ele>235.1</ele>
        <time>2015-07-10T12:54:52Z</time>
      </trkpt>
      <trkpt lat="64.18016" lon="-19.73558">
        <ele>235</ele>
        <time>2015-07-10T12:54:56Z</time>
      </trkpt>
      <trkpt lat="64.18019" lon="-19.73551">
        <ele>235</ele>
        <time>2015-07-10T12:54:58Z</time>
      </trkpt>
      <trkpt lat="64.18025" lon="-19.73547">
        <ele>234</ele>
        <time>2015-07-10T12:55:07Z</time>
      </trkpt>
      <trkpt lat="64.18033" lon="-19.73554">
        <ele>232.5</ele>
        <time>2015-07-10T12:55:24Z</time>
      </trkpt>
      <trkpt lat="64.18038" lon="-19.73556">
        <ele>232</ele>
        <time>2015-07-10T12:55:32Z</time>
      </trkpt>
      <trkpt lat="64.18042" lon="-19.73549">
        <ele>232</ele>
        <time>2015-07-10T12:55:37Z</time>
      </trkpt>
      <trkpt lat="64.1805" lon="-19.73545">
        <ele>230.5</ele>
        <time>2015-07-10T12:55:43Z</time>
      </trkpt>
      <trkpt lat="64.18054" lon="-19.7354">
        <ele>230.5</ele>
        <time>2015-07-10T12:55:47Z</time>
      </trkpt>
      <trkpt lat="64.18059" lon="-19.73531">
        <ele>229.5</ele>
        <time>2015-07-10T12:55:51Z</time>
      </trkpt>
      <trkpt lat="64.18062" lon="-19.73524">
        <ele>229.5</ele>
        <time>2015-07-10T12:55:54Z</time>
      </trkpt>
      <trkpt lat="64.18065" lon="-19.73513">
        <ele>228.3</ele>
        <time>2015-07-10T12:55:59Z</time>
      </trkpt>
      <trkpt lat="64.18067" lon="-19.73503">
        <ele>228</ele>
        <time>2015-07-10T12:56:04Z</time>
      </trkpt>
      <trkpt lat="64.1807" lon="-19.73494">
        <ele>227.3</ele>
        <time>2015-07-10T12:56:13Z</time>
      </trkpt>
      <trkpt lat="64.18083" lon="-19.7348">
        <ele>226.3</ele>
        <time>2015-07-10T12:56:21Z</time>
      </trkpt>
      <trkpt lat="64.18087" lon="-19.73472">
        <ele>226</ele>
        <time>2015-07-10T12:56:26Z</time>
      </trkpt>
      <trkpt lat="64.18091" lon="-19.73465">
        <ele>225</ele>
        <time>2015-07-10T12:56:30Z</time>
      </trkpt>
      <trkpt lat="64.18094" lon="-19.73455">
        <ele>225</ele>
        <time>2015-07-10T12:56:33Z</time>
      </trkpt>
      <trkpt lat="64.181" lon="-19.73435">
        <ele>222.1</ele>
        <time>2015-07-10T12:56:41Z</time>
      </trkpt>
      <trkpt lat="64.18105" lon="-19.73435">
        <ele>222</ele>
        <time>2015-07-10T12:56:46Z</time>
      </trkpt>
      <trkpt lat="64.18109" lon="-19.73426">
        <ele>222</ele>
        <time>2015-07-10T12:56:52Z</time>
      </trkpt>
      <trkpt lat="64.18111" lon="-19.73415">
        <ele>222</ele>
        <time>2015-07-10T12:56:56Z</time>
      </trkpt>
      <trkpt lat="64.18115" lon="-19.73382">
        <ele>221</ele>
        <time>2015-07-10T12:57:05Z</time>
      </trkpt>
      <trkpt lat="64.1812" lon="-19.73379">
        <ele>221</ele>
        <time>2015-07-10T12:57:11Z</time>
      </trkpt>
      <trkpt lat="64.18124" lon="-19.73371">
        <ele>220.2</ele>
        <time>2015-07-10T12:57:14Z</time>
      </trkpt>
      <trkpt lat="64.18127" lon="-19.7336">
        <ele>220</ele>
        <time>2015-07-10T12:57:19Z</time>
      </trkpt>
      <trkpt lat="64.18132" lon="-19.7336">
        <ele>219</ele>
        <time>2015-07-10T12:57:29Z</time>
      </trkpt>
      <trkpt lat="64.18143" lon="-19.73359">
        <ele>217.6</ele>
        <time>2015-07-10T12:57:43Z</time>
      </trkpt>
      <trkpt lat="64.18147" lon="-19.73355">
        <ele>214.7</ele>
        <time>2015-07-10T12:57:48Z</time>
      </trkpt>
      <trkpt lat="64.18151" lon="-19.73345">
        <ele>212.7</ele>
        <time>2015-07-10T12:57:52Z</time>
      </trkpt>
      <trkpt lat="64.18157" lon="-19.73327">
        <ele>212</ele>
        <time>2015-07-10T12:57:58Z</time>
      </trkpt>
      <trkpt lat="64.18161" lon="-19.73319">
        <ele>211.3</ele>
        <time>2015-07-10T12:58:02Z</time>
      </trkpt>
      <trkpt lat="64.18172" lon="-19.73296">
        <ele>211</ele>
        <time>2015-07-10T12:58:10Z</time>
      </trkpt>
      <trkpt lat="64.18175" lon="-19.73287">
        <ele>209.3</ele>
        <time>2015-07-10T12:58:13Z</time>
      </trkpt>
      <trkpt lat="64.18179" lon="-19.7328">
        <ele>209</ele>
        <time>2015-07-10T12:58:19Z</time>
      </trkpt>
      <trkpt lat="64.18183" lon="-19.73267">
        <ele>209</ele>
        <time>2015-07-10T12:58:25Z</time>
      </trkpt>
      <trkpt lat="64.1819" lon="-19.73249">
        <ele>209</ele>
        <time>2015-07-10T12:58:32Z</time>
      </trkpt>
      <trkpt lat="64.18196" lon="-19.73257">
        <ele>208</ele>
        <time>2015-07-10T12:58:44Z</time>
      </trkpt>
      <trkpt lat="64.182" lon="-19.73262">
        <ele>208</ele>
        <time>2015-07-10T12:58:47Z</time>
      </trkpt>
      <trkpt lat="64.18206" lon="-19.73257">
        <ele>208</ele>
        <time>2015-07-10T12:58:51Z</time>
      </trkpt>
      <trkpt lat="64.18209" lon="-19.73249">
        <ele>207</ele>
        <time>2015-07-10T12:58:55Z</time>
      </trkpt>
      <trkpt lat="64.18204" lon="-19.73249">
        <ele>207</ele>
        <time>2015-07-10T12:59:07Z</time>
      </trkpt>
      <trkpt lat="64.18201" lon="-19.73242">
        <ele>208</ele>
        <time>2015-07-10T12:59:13Z</time>
      </trkpt>
      <trkpt lat="64.18198" lon="-19.73233">
        <ele>212</ele>
        <time>2015-07-10T12:59:45Z</time>
      </trkpt>
      <trkpt lat="64.18205" lon="-19.73218">
        <ele>212</ele>
        <time>2015-07-10T13:00:00Z</time>
      </trkpt>
      <trkpt lat="64.18213" lon="-19.73204">
        <ele>212</ele>
        <time>2015-07-10T13:00:06Z</time>
      </trkpt>
      <trkpt lat="64.18219" lon="-19.73188">
        <ele>211.1</ele>
        <time>2015-07-10T13:00:14Z</time>
      </trkpt>
      <trkpt lat="64.18223" lon="-19.73178">
        <ele>210.5</ele>
        <time>2015-07-10T13:00:19Z</time>
      </trkpt>
      <trkpt lat="64.18228" lon="-19.7317">
        <ele>209.3</ele>
        <time>2015-07-10T13:00:23Z</time>
      </trkpt>
      <trkpt lat="64.18235" lon="-19.73149">
        <ele>209</ele>
        <time>2015-07-10T13:00:29Z</time>
      </trkpt>
      <trkpt lat="64.18236" lon="-19.73138">
        <ele>208.1</ele>
        <time>2015-07-10T13:00:33Z</time>
      </trkpt>
      <trkpt lat="64.18239" lon="-19.73129">
        <ele>203.1</ele>
        <time>2015-07-10T13:00:43Z</time>
      </trkpt>
      <trkpt lat="64.18241" lon="-19.7312">
        <ele>202</ele>
        <time>2015-07-10T13:00:56Z</time>
      </trkpt>
      <trkpt lat="64.18245" lon="-19.73111">
        <ele>201</ele>
        <time>2015-07-10T13:01:00Z</time>
      </trkpt>
      <trkpt lat="64.1825" lon="-19.73109">
        <ele>200.1</ele>
        <time>2015-07-10T13:01:06Z</time>
      </trkpt>
      <trkpt lat="64.18254" lon="-19.73104">
        <ele>200</ele>
        <time>2015-07-10T13:01:14Z</time>
      </trkpt>
      <trkpt lat="64.18264" lon="-19.73101">
        <ele>198</ele>
        <time>2015-07-10T13:01:24Z</time>
      </trkpt>
      <trkpt lat="64.18269" lon="-19.73098">
        <ele>198</ele>
        <time>2015-07-10T13:01:28Z</time>
      </trkpt>
      <trkpt lat="64.18274" lon="-19.73096">
        <ele>198</ele>
        <time>2015-07-10T13:01:32Z</time>
      </trkpt>
      <trkpt lat="64.18277" lon="-19.73087">
        <ele>198</ele>
        <time>2015-07-10T13:01:36Z</time>
      </trkpt>
      <trkpt lat="64.1828" lon="-19.73069">
        <ele>198</ele>
        <time>2015-07-10T13:01:46Z</time>
      </trkpt>
      <trkpt lat="64.18281" lon="-19.73059">
        <ele>199.8</ele>
        <time>2015-07-10T13:01:55Z</time>
      </trkpt>
      <trkpt lat="64.1829" lon="-19.73043">
        <ele>201.7</ele>
        <time>2015-07-10T13:02:01Z</time>
      </trkpt>
      <trkpt lat="64.18297" lon="-19.73024">
        <ele>204</ele>
        <time>2015-07-10T13:02:12Z</time>
      </trkpt>
      <trkpt lat="64.18303" lon="-19.73008">
        <ele>205</ele>
        <time>2015-07-10T13:02:21Z</time>
      </trkpt>
      <trkpt lat="64.18307" lon="-19.73015">
        <ele>205</ele>
        <time>2015-07-10T13:02:49Z</time>
      </trkpt>
      <trkpt lat="64.18315" lon="-19.73011">
        <ele>205</ele>
        <time>2015-07-10T13:02:53Z</time>
      </trkpt>
      <trkpt lat="64.18319" lon="-19.73007">
        <ele>205</ele>
        <time>2015-07-10T13:02:56Z</time>
      </trkpt>
      <trkpt lat="64.18327" lon="-19.7299">
        <ele>205</ele>
        <time>2015-07-10T13:03:01Z</time>
      </trkpt>
      <trkpt lat="64.18335" lon="-19.72962">
        <ele>206</ele>
        <time>2015-07-10T13:03:08Z</time>
      </trkpt>
      <trkpt lat="64.18338" lon="-19.72956">
        <ele>206</ele>
        <time>2015-07-10T13:03:12Z</time>
      </trkpt>
      <trkpt lat="64.18343" lon="-19.72952">
        <ele>206</ele>
        <time>2015-07-10T13:03:13Z</time>
      </trkpt>
      <trkpt lat="64.18352" lon="-19.72943">
        <ele>205.6</ele>
        <time>2015-07-10T13:03:19Z</time>
      </trkpt>
      <trkpt lat="64.1836" lon="-19.72921">
        <ele>205.1</ele>
        <time>2015-07-10T13:03:25Z</time>
      </trkpt>
      <trkpt lat="64.18369" lon="-19.7291">
        <ele>205</ele>
        <time>2015-07-10T13:03:31Z</time>
      </trkpt>
      <trkpt lat="64.18373" lon="-19.72904">
        <ele>205</ele>
        <time>2015-07-10T13:03:35Z</time>
      </trkpt>
      <trkpt lat="64.18369" lon="-19.72925">
        <ele>205</ele>
        <time>2015-07-10T13:03:54Z</time>
      </trkpt>
      <trkpt lat="64.18375" lon="-19.72905">
        <ele>206</ele>
        <time>2015-07-10T13:04:14Z</time>
      </trkpt>
      <trkpt lat="64.18384" lon="-19.72878">
        <ele>206</ele>
        <time>2015-07-10T13:04:22Z</time>
      </trkpt>
      <trkpt lat="64.18387" lon="-19.72858">
        <ele>207</ele>
        <time>2015-07-10T13:04:28Z</time>
      </trkpt>
      <trkpt lat="64.18391" lon="-19.72838">
        <ele>207</ele>
        <time>2015-07-10T13:04:35Z</time>
      </trkpt>
      <trkpt lat="64.18394" lon="-19.7283">
        <ele>207</ele>
        <time>2015-07-10T13:04:39Z</time>
      </trkpt>
      <trkpt lat="64.18395" lon="-19.72819">
        <ele>207</ele>
        <time>2015-07-10T13:04:44Z</time>
      </trkpt>
      <trkpt lat="64.18394" lon="-19.72796">
        <ele>207.5</ele>
        <time>2015-07-10T13:04:52Z</time>
      </trkpt>
      <trkpt lat="64.18391" lon="-19.72772">
        <ele>208</ele>
        <time>2015-07-10T13:05:03Z</time>
      </trkpt>
      <trkpt lat="64.1839" lon="-19.72752">
        <ele>208</ele>
        <time>2015-07-10T13:05:14Z</time>
      </trkpt>
      <trkpt lat="64.18392" lon="-19.72742">
        <ele>207</ele>
        <time>2015-07-10T13:05:20Z</time>
      </trkpt>
      <trkpt lat="64.18398" lon="-19.72726">
        <ele>206</ele>
        <time>2015-07-10T13:05:25Z</time>
      </trkpt>
      <trkpt lat="64.18398" lon="-19.72715">
        <ele>206</ele>
        <time>2015-07-10T13:05:31Z</time>
      </trkpt>
      <trkpt lat="64.18403" lon="-19.72709">
        <ele>206</ele>
        <time>2015-07-10T13:05:39Z</time>
      </trkpt>
      <trkpt lat="64.18409" lon="-19.72693">
        <ele>206.1</ele>
        <time>2015-07-10T13:05:54Z</time>
      </trkpt>
      <trkpt lat="64.18423" lon="-19.72682">
        <ele>205.1</ele>
        <time>2015-07-10T13:06:03Z</time>
      </trkpt>
      <trkpt lat="64.18426" lon="-19.72675">
        <ele>205.5</ele>
        <time>2015-07-10T13:06:07Z</time>
      </trkpt>
      <trkpt lat="64.18435" lon="-19.72664">
        <ele>206</ele>
        <time>2015-07-10T13:06:14Z</time>
      </trkpt>
      <trkpt lat="64.18441" lon="-19.7266">
        <ele>206</ele>
        <time>2015-07-10T13:06:22Z</time>
      </trkpt>
      <trkpt lat="64.18447" lon="-19.72653">
        <ele>206</ele>
        <time>2015-07-10T13:06:25Z</time>
      </trkpt>
      <trkpt lat="64.18455" lon="-19.72643">
        <ele>206</ele>
        <time>2015-07-10T13:06:32Z</time>
      </trkpt>
      <trkpt lat="64.1846" lon="-19.72641">
        <ele>206</ele>
        <time>2015-07-10T13:06:36Z</time>
      </trkpt>
      <trkpt lat="64.18465" lon="-19.72636">
        <ele>206</ele>
        <time>2015-07-10T13:06:40Z</time>
      </trkpt>
      <trkpt lat="64.18469" lon="-19.72627">
        <ele>206</ele>
        <time>2015-07-10T13:06:44Z</time>
      </trkpt>
      <trkpt lat="64.18472" lon="-19.72617">
        <ele>206</ele>
        <time>2015-07-10T13:06:48Z</time>
      </trkpt>
      <trkpt lat="64.18478" lon="-19.72595">
        <ele>209</ele>
        <time>2015-07-10T13:06:58Z</time>
      </trkpt>
      <trkpt lat="64.18479" lon="-19.72584">
        <ele>209.5</ele>
        <time>2015-07-10T13:07:02Z</time>
      </trkpt>
      <trkpt lat="64.18486" lon="-19.72569">
        <ele>210</ele>
        <time>2015-07-10T13:07:08Z</time>
      </trkpt>
      <trkpt lat="64.1849" lon="-19.7256">
        <ele>211</ele>
        <time>2015-07-10T13:07:13Z</time>
      </trkpt>
      <trkpt lat="64.18493" lon="-19.7255">
        <ele>211</ele>
        <time>2015-07-10T13:07:16Z</time>
      </trkpt>
      <trkpt lat="64.18497" lon="-19.72542">
        <ele>211</ele>
        <time>2015-07-10T13:07:20Z</time>
      </trkpt>
      <trkpt lat="64.18506" lon="-19.72553">
        <ele>211.9</ele>
        <time>2015-07-10T13:07:31Z</time>
      </trkpt>
      <trkpt lat="64.18519" lon="-19.72547">
        <ele>212.9</ele>
        <time>2015-07-10T13:07:43Z</time>
      </trkpt>
      <trkpt lat="64.18524" lon="-19.72548">
        <ele>214</ele>
        <time>2015-07-10T13:07:48Z</time>
      </trkpt>
      <trkpt lat="64.18527" lon="-19.72557">
        <ele>214.7</ele>
        <time>2015-07-10T13:07:55Z</time>
      </trkpt>
      <trkpt lat="64.18535" lon="-19.72548">
        <ele>215</ele>
        <time>2015-07-10T13:08:05Z</time>
      </trkpt>
      <trkpt lat="64.1854" lon="-19.72541">
        <ele>215</ele>
        <time>2015-07-10T13:08:09Z</time>
      </trkpt>
      <trkpt lat="64.18544" lon="-19.72537">
        <ele>215</ele>
        <time>2015-07-10T13:08:11Z</time>
      </trkpt>
      <trkpt lat="64.1855" lon="-19.72534">
        <ele>214.9</ele>
        <time>2015-07-10T13:08:16Z</time>
      </trkpt>
      <trkpt lat="64.18564" lon="-19.72527">
        <ele>217</ele>
        <time>2015-07-10T13:08:30Z</time>
      </trkpt>
      <trkpt lat="64.18579" lon="-19.7253">
        <ele>217</ele>
        <time>2015-07-10T13:08:37Z</time>
      </trkpt>
      <trkpt lat="64.18584" lon="-19.72532">
        <ele>217</ele>
        <time>2015-07-10T13:08:43Z</time>
      </trkpt>
      <trkpt lat="64.18595" lon="-19.72525">
        <ele>217</ele>
        <time>2015-07-10T13:08:51Z</time>
      </trkpt>
      <trkpt lat="64.18603" lon="-19.72533">
        <ele>217</ele>
        <time>2015-07-10T13:08:55Z</time>
      </trkpt>
      <trkpt lat="64.18598" lon="-19.72541">
        <ele>217</ele>
        <time>2015-07-10T13:08:57Z</time>
      </trkpt>
      <trkpt lat="64.18607" lon="-19.72531">
        <ele>222</ele>
        <time>2015-07-10T13:09:15Z</time>
      </trkpt>
      <trkpt lat="64.18617" lon="-19.72524">
        <ele>222</ele>
        <time>2015-07-10T13:09:24Z</time>
      </trkpt>
      <trkpt lat="64.18621" lon="-19.7252">
        <ele>222</ele>
        <time>2015-07-10T13:09:27Z</time>
      </trkpt>
      <trkpt lat="64.18624" lon="-19.72514">
        <ele>222</ele>
        <time>2015-07-10T13:09:31Z</time>
      </trkpt>
      <trkpt lat="64.18628" lon="-19.72506">
        <ele>222</ele>
        <time>2015-07-10T13:09:34Z</time>
      </trkpt>
      <trkpt lat="64.18632" lon="-19.725">
        <ele>222</ele>
        <time>2015-07-10T13:09:37Z</time>
      </trkpt>
      <trkpt lat="64.18641" lon="-19.72493">
        <ele>217.5</ele>
        <time>2015-07-10T13:09:44Z</time>
      </trkpt>
      <trkpt lat="64.18647" lon="-19.72492">
        <ele>212.6</ele>
        <time>2015-07-10T13:09:48Z</time>
      </trkpt>
      <trkpt lat="64.18652" lon="-19.72487">
        <ele>212.3</ele>
        <time>2015-07-10T13:09:53Z</time>
      </trkpt>
      <trkpt lat="64.18664" lon="-19.72472">
        <ele>211.1</ele>
        <time>2015-07-10T13:10:04Z</time>
      </trkpt>
      <trkpt lat="64.18669" lon="-19.72467">
        <ele>210.3</ele>
        <time>2015-07-10T13:10:08Z</time>
      </trkpt>
      <trkpt lat="64.18681" lon="-19.72454">
        <ele>208</ele>
        <time>2015-07-10T13:10:19Z</time>
      </trkpt>
      <trkpt lat="64.18687" lon="-19.72451">
        <ele>208</ele>
        <time>2015-07-10T13:10:23Z</time>
      </trkpt>
      <trkpt lat="64.18691" lon="-19.72447">
        <ele>208</ele>
        <time>2015-07-10T13:10:28Z</time>
      </trkpt>
      <trkpt lat="64.18696" lon="-19.72446">
        <ele>207</ele>
        <time>2015-07-10T13:10:33Z</time>
      </trkpt>
      <trkpt lat="64.18708" lon="-19.72428">
        <ele>207</ele>
        <time>2015-07-10T13:10:44Z</time>
      </trkpt>
      <trkpt lat="64.18721" lon="-19.72414">
        <ele>207</ele>
        <time>2015-07-10T13:10:56Z</time>
      </trkpt>
      <trkpt lat="64.18725" lon="-19.7241">
        <ele>207</ele>
        <time>2015-07-10T13:10:59Z</time>
      </trkpt>
      <trkpt lat="64.18734" lon="-19.72398">
        <ele>207</ele>
        <time>2015-07-10T13:11:05Z</time>
      </trkpt>
      <trkpt lat="64.1874" lon="-19.72384">
        <ele>208</ele>
        <time>2015-07-10T13:11:11Z</time>
      </trkpt>
      <trkpt lat="64.18743" lon="-19.72358">
        <ele>208</ele>
        <time>2015-07-10T13:11:18Z</time>
      </trkpt>
      <trkpt lat="64.18745" lon="-19.72328">
        <ele>208.9</ele>
        <time>2015-07-10T13:11:28Z</time>
      </trkpt>
      <trkpt lat="64.18748" lon="-19.72316">
        <ele>209</ele>
        <time>2015-07-10T13:11:32Z</time>
      </trkpt>
      <trkpt lat="64.18748" lon="-19.72294">
        <ele>211.7</ele>
        <time>2015-07-10T13:11:42Z</time>
      </trkpt>
      <trkpt lat="64.18749" lon="-19.72284">
        <ele>212</ele>
        <time>2015-07-10T13:11:45Z</time>
      </trkpt>
      <trkpt lat="64.18748" lon="-19.72272">
        <ele>212</ele>
        <time>2015-07-10T13:11:51Z</time>
      </trkpt>
      <trkpt lat="64.1875" lon="-19.7226">
        <ele>212</ele>
        <time>2015-07-10T13:11:56Z</time>
      </trkpt>
      <trkpt lat="64.18761" lon="-19.72244">
        <ele>213</ele>
        <time>2015-07-10T13:12:08Z</time>
      </trkpt>
      <trkpt lat="64.18766" lon="-19.72236">
        <ele>213.9</ele>
        <time>2015-07-10T13:12:13Z</time>
      </trkpt>
      <trkpt lat="64.18771" lon="-19.7223">
        <ele>213.9</ele>
        <time>2015-07-10T13:12:17Z</time>
      </trkpt>
      <trkpt lat="64.18778" lon="-19.72218">
        <ele>216.9</ele>
        <time>2015-07-10T13:12:24Z</time>
      </trkpt>
      <trkpt lat="64.18782" lon="-19.72212">
        <ele>216.9</ele>
        <time>2015-07-10T13:12:28Z</time>
      </trkpt>
      <trkpt lat="64.18789" lon="-19.72205">
        <ele>217.9</ele>
        <time>2015-07-10T13:12:33Z</time>
      </trkpt>
      <trkpt lat="64.18793" lon="-19.72202">
        <ele>218</ele>
        <time>2015-07-10T13:12:38Z</time>
      </trkpt>
      <trkpt lat="64.18796" lon="-19.7219">
        <ele>218</ele>
        <time>2015-07-10T13:12:44Z</time>
      </trkpt>
      <trkpt lat="64.18802" lon="-19.72193">
        <ele>218</ele>
        <time>2015-07-10T13:12:51Z</time>
      </trkpt>
      <trkpt lat="64.18801" lon="-19.72204">
        <ele>218</ele>
        <time>2015-07-10T13:12:55Z</time>
      </trkpt>
      <trkpt lat="64.18802" lon="-19.72215">
        <ele>218</ele>
        <time>2015-07-10T13:13:04Z</time>
      </trkpt>
      <trkpt lat="64.18799" lon="-19.72225">
        <ele>218</ele>
        <time>2015-07-10T13:13:10Z</time>
      </trkpt>
      <trkpt lat="64.18805" lon="-19.72241">
        <ele>218</ele>
        <time>2015-07-10T13:13:16Z</time>
      </trkpt>
      <trkpt lat="64.1881" lon="-19.72241">
        <ele>218</ele>
        <time>2015-07-10T13:13:23Z</time>
      </trkpt>
      <trkpt lat="64.18815" lon="-19.72242">
        <ele>218</ele>
        <time>2015-07-10T13:13:30Z</time>
      </trkpt>
      <trkpt lat="64.18828" lon="-19.72246">
        <ele>219.9</ele>
        <time>2015-07-10T13:13:43Z</time>
      </trkpt>
      <trkpt lat="64.18832" lon="-19.72231">
        <ele>221</ele>
        <time>2015-07-10T13:13:56Z</time>
      </trkpt>
      <trkpt lat="64.18836" lon="-19.72223">
        <ele>221</ele>
        <time>2015-07-10T13:14:03Z</time>
      </trkpt>
      <trkpt lat="64.1884" lon="-19.72198">
        <ele>221</ele>
        <time>2015-07-10T13:14:12Z</time>
      </trkpt>
      <trkpt lat="64.1884" lon="-19.72187">
        <ele>223</ele>
        <time>2015-07-10T13:14:22Z</time>
      </trkpt>
      <trkpt lat="64.18843" lon="-19.72164">
        <ele>223.9</ele>
        <time>2015-07-10T13:14:29Z</time>
      </trkpt>
      <trkpt lat="64.18848" lon="-19.72153">
        <ele>225.7</ele>
        <time>2015-07-10T13:14:36Z</time>
      </trkpt>
      <trkpt lat="64.18854" lon="-19.7213">
        <ele>226.9</ele>
        <time>2015-07-10T13:14:48Z</time>
      </trkpt>
      <trkpt lat="64.18856" lon="-19.72121">
        <ele>227</ele>
        <time>2015-07-10T13:14:52Z</time>
      </trkpt>
      <trkpt lat="64.18858" lon="-19.72112">
        <ele>227</ele>
        <time>2015-07-10T13:14:55Z</time>
      </trkpt>
      <trkpt lat="64.18862" lon="-19.72102">
        <ele>228</ele>
        <time>2015-07-10T13:15:00Z</time>
      </trkpt>
      <trkpt lat="64.18867" lon="-19.721">
        <ele>228</ele>
        <time>2015-07-10T13:15:07Z</time>
      </trkpt>
      <trkpt lat="64.1887" lon="-19.72091">
        <ele>228</ele>
        <time>2015-07-10T13:15:11Z</time>
      </trkpt>
      <trkpt lat="64.18877" lon="-19.72077">
        <ele>229</ele>
        <time>2015-07-10T13:15:17Z</time>
      </trkpt>
      <trkpt lat="64.18886" lon="-19.72068">
        <ele>229</ele>
        <time>2015-07-10T13:15:23Z</time>
      </trkpt>
      <trkpt lat="64.18889" lon="-19.72061">
        <ele>229</ele>
        <time>2015-07-10T13:15:28Z</time>
      </trkpt>
      <trkpt lat="64.18893" lon="-19.72046">
        <ele>231</ele>
        <time>2015-07-10T13:15:31Z</time>
      </trkpt>
      <trkpt lat="64.18898" lon="-19.72039">
        <ele>231</ele>
        <time>2015-07-10T13:15:36Z</time>
      </trkpt>
      <trkpt lat="64.18903" lon="-19.72034">
        <ele>232.9</ele>
        <time>2015-07-10T13:15:40Z</time>
      </trkpt>
      <trkpt lat="64.18908" lon="-19.72014">
        <ele>233</ele>
        <time>2015-07-10T13:15:46Z</time>
      </trkpt>
      <trkpt lat="64.18911" lon="-19.72005">
        <ele>233</ele>
        <time>2015-07-10T13:15:51Z</time>
      </trkpt>
      <trkpt lat="64.18918" lon="-19.71993">
        <ele>233</ele>
        <time>2015-07-10T13:16:01Z</time>
      </trkpt>
      <trkpt lat="64.18919" lon="-19.71961">
        <ele>233</ele>
        <time>2015-07-10T13:16:12Z</time>
      </trkpt>
      <trkpt lat="64.18918" lon="-19.71942">
        <ele>234</ele>
        <time>2015-07-10T13:16:19Z</time>
      </trkpt>
      <trkpt lat="64.18921" lon="-19.71934">
        <ele>234</ele>
        <time>2015-07-10T13:16:24Z</time>
      </trkpt>
      <trkpt lat="64.18926" lon="-19.71918">
        <ele>234</ele>
        <time>2015-07-10T13:16:30Z</time>
      </trkpt>
      <trkpt lat="64.18929" lon="-19.71909">
        <ele>234</ele>
        <time>2015-07-10T13:16:33Z</time>
      </trkpt>
      <trkpt lat="64.18934" lon="-19.71903">
        <ele>234</ele>
        <time>2015-07-10T13:16:38Z</time>
      </trkpt>
      <trkpt lat="64.18941" lon="-19.71893">
        <ele>235</ele>
        <time>2015-07-10T13:16:45Z</time>
      </trkpt>
      <trkpt lat="64.18945" lon="-19.71884">
        <ele>235.7</ele>
        <time>2015-07-10T13:16:49Z</time>
      </trkpt>
      <trkpt lat="64.18951" lon="-19.71867">
        <ele>237.9</ele>
        <time>2015-07-10T13:16:56Z</time>
      </trkpt>
      <trkpt lat="64.18953" lon="-19.71856">
        <ele>238</ele>
        <time>2015-07-10T13:17:01Z</time>
      </trkpt>
      <trkpt lat="64.18954" lon="-19.71846">
        <ele>238</ele>
        <time>2015-07-10T13:17:05Z</time>
      </trkpt>
      <trkpt lat="64.18957" lon="-19.71835">
        <ele>239.8</ele>
        <time>2015-07-10T13:17:10Z</time>
      </trkpt>
      <trkpt lat="64.1896" lon="-19.71826">
        <ele>241</ele>
        <time>2015-07-10T13:17:18Z</time>
      </trkpt>
      <trkpt lat="64.18973" lon="-19.71818">
        <ele>243.5</ele>
        <time>2015-07-10T13:17:33Z</time>
      </trkpt>
      <trkpt lat="64.18982" lon="-19.71812">
        <ele>245.7</ele>
        <time>2015-07-10T13:17:44Z</time>
      </trkpt>
      <trkpt lat="64.18987" lon="-19.71801">
        <ele>252.7</ele>
        <time>2015-07-10T13:18:20Z</time>
      </trkpt>
      <trkpt lat="64.18995" lon="-19.718">
        <ele>253</ele>
        <time>2015-07-10T13:18:31Z</time>
      </trkpt>
      <trkpt lat="64.18999" lon="-19.71793">
        <ele>253</ele>
        <time>2015-07-10T13:18:36Z</time>
      </trkpt>
      <trkpt lat="64.19009" lon="-19.71772">
        <ele>254</ele>
        <time>2015-07-10T13:18:47Z</time>
      </trkpt>
      <trkpt lat="64.19014" lon="-19.71765">
        <ele>254</ele>
        <time>2015-07-10T13:18:52Z</time>
      </trkpt>
      <trkpt lat="64.19019" lon="-19.71761">
        <ele>254</ele>
        <time>2015-07-10T13:18:56Z</time>
      </trkpt>
      <trkpt lat="64.19025" lon="-19.71757">
        <ele>255</ele>
        <time>2015-07-10T13:19:01Z</time>
      </trkpt>
      <trkpt lat="64.19026" lon="-19.71742">
        <ele>255</ele>
        <time>2015-07-10T13:19:11Z</time>
      </trkpt>
      <trkpt lat="64.19031" lon="-19.71724">
        <ele>256.4</ele>
        <time>2015-07-10T13:19:22Z</time>
      </trkpt>
      <trkpt lat="64.19035" lon="-19.71706">
        <ele>257.7</ele>
        <time>2015-07-10T13:19:29Z</time>
      </trkpt>
      <trkpt lat="64.19038" lon="-19.71696">
        <ele>258</ele>
        <time>2015-07-10T13:19:33Z</time>
      </trkpt>
      <trkpt lat="64.19041" lon="-19.71687">
        <ele>258</ele>
        <time>2015-07-10T13:19:38Z</time>
      </trkpt>
      <trkpt lat="64.19046" lon="-19.71668">
        <ele>259.7</ele>
        <time>2015-07-10T13:19:49Z</time>
      </trkpt>
      <trkpt lat="64.19051" lon="-19.71646">
        <ele>260.9</ele>
        <time>2015-07-10T13:19:57Z</time>
      </trkpt>
      <trkpt lat="64.19054" lon="-19.71638">
        <ele>262.7</ele>
        <time>2015-07-10T13:20:02Z</time>
      </trkpt>
      <trkpt lat="64.19056" lon="-19.71627">
        <ele>263.5</ele>
        <time>2015-07-10T13:20:06Z</time>
      </trkpt>
      <trkpt lat="64.19064" lon="-19.71618">
        <ele>264.7</ele>
        <time>2015-07-10T13:20:14Z</time>
      </trkpt>
      <trkpt lat="64.19069" lon="-19.7161">
        <ele>266.7</ele>
        <time>2015-07-10T13:20:18Z</time>
      </trkpt>
      <trkpt lat="64.19072" lon="-19.71601">
        <ele>266.7</ele>
        <time>2015-07-10T13:20:21Z</time>
      </trkpt>
      <trkpt lat="64.19077" lon="-19.71582">
        <ele>268</ele>
        <time>2015-07-10T13:20:31Z</time>
      </trkpt>
      <trkpt lat="64.19081" lon="-19.71575">
        <ele>268</ele>
        <time>2015-07-10T13:20:35Z</time>
      </trkpt>
      <trkpt lat="64.19089" lon="-19.71549">
        <ele>270.4</ele>
        <time>2015-07-10T13:20:44Z</time>
      </trkpt>
      <trkpt lat="64.19095" lon="-19.71534">
        <ele>271.7</ele>
        <time>2015-07-10T13:20:51Z</time>
      </trkpt>
      <trkpt lat="64.19104" lon="-19.71526">
        <ele>272</ele>
        <time>2015-07-10T13:20:58Z</time>
      </trkpt>
      <trkpt lat="64.19113" lon="-19.71518">
        <ele>272</ele>
        <time>2015-07-10T13:21:05Z</time>
      </trkpt>
      <trkpt lat="64.19118" lon="-19.71517">
        <ele>273.7</ele>
        <time>2015-07-10T13:21:13Z</time>
      </trkpt>
      <trkpt lat="64.19124" lon="-19.71513">
        <ele>273.7</ele>
        <time>2015-07-10T13:21:17Z</time>
      </trkpt>
      <trkpt lat="64.19131" lon="-19.71498">
        <ele>276.3</ele>
        <time>2015-07-10T13:21:23Z</time>
      </trkpt>
      <trkpt lat="64.19136" lon="-19.71479">
        <ele>277</ele>
        <time>2015-07-10T13:21:30Z</time>
      </trkpt>
      <trkpt lat="64.1914" lon="-19.71464">
        <ele>277</ele>
        <time>2015-07-10T13:21:36Z</time>
      </trkpt>
      <trkpt lat="64.19148" lon="-19.71445">
        <ele>277</ele>
        <time>2015-07-10T13:21:46Z</time>
      </trkpt>
      <trkpt lat="64.19152" lon="-19.71436">
        <ele>277</ele>
        <time>2015-07-10T13:21:50Z</time>
      </trkpt>
      <trkpt lat="64.1916" lon="-19.71422">
        <ele>275.3</ele>
        <time>2015-07-10T13:22:02Z</time>
      </trkpt>
      <trkpt lat="64.19165" lon="-19.71417">
        <ele>273.4</ele>
        <time>2015-07-10T13:22:07Z</time>
      </trkpt>
      <trkpt lat="64.19169" lon="-19.71409">
        <ele>272.1</ele>
        <time>2015-07-10T13:22:10Z</time>
      </trkpt>
      <trkpt lat="64.19172" lon="-19.71388">
        <ele>270.3</ele>
        <time>2015-07-10T13:22:16Z</time>
      </trkpt>
      <trkpt lat="64.1918" lon="-19.7138">
        <ele>269.1</ele>
        <time>2015-07-10T13:22:23Z</time>
      </trkpt>
      <trkpt lat="64.19188" lon="-19.7137">
        <ele>269</ele>
        <time>2015-07-10T13:22:33Z</time>
      </trkpt>
      <trkpt lat="64.19192" lon="-19.71365">
        <ele>268.1</ele>
        <time>2015-07-10T13:22:40Z</time>
      </trkpt>
      <trkpt lat="64.19194" lon="-19.71349">
        <ele>267.1</ele>
        <time>2015-07-10T13:22:45Z</time>
      </trkpt>
      <trkpt lat="64.19199" lon="-19.71343">
        <ele>267</ele>
        <time>2015-07-10T13:22:50Z</time>
      </trkpt>
      <trkpt lat="64.19203" lon="-19.71347">
        <ele>267</ele>
        <time>2015-07-10T13:22:53Z</time>
      </trkpt>
      <trkpt lat="64.19209" lon="-19.7136">
        <ele>267</ele>
        <time>2015-07-10T13:22:59Z</time>
      </trkpt>
      <trkpt lat="64.19213" lon="-19.71366">
        <ele>267</ele>
        <time>2015-07-10T13:23:05Z</time>
      </trkpt>
      <trkpt lat="64.19217" lon="-19.71376">
        <ele>267</ele>
        <time>2015-07-10T13:23:11Z</time>
      </trkpt>
      <trkpt lat="64.19223" lon="-19.71391">
        <ele>266</ele>
        <time>2015-07-10T13:23:55Z</time>
      </trkpt>
      <trkpt lat="64.19228" lon="-19.71406">
        <ele>266</ele>
        <time>2015-07-10T13:24:02Z</time>
      </trkpt>
      <trkpt lat="64.19236" lon="-19.71419">
        <ele>266</ele>
        <time>2015-07-10T13:24:14Z</time>
      </trkpt>
      <trkpt lat="64.19241" lon="-19.71423">
        <ele>266</ele>
        <time>2015-07-10T13:24:19Z</time>
      </trkpt>
      <trkpt lat="64.19246" lon="-19.71425">
        <ele>266</ele>
        <time>2015-07-10T13:24:23Z</time>
      </trkpt>
      <trkpt lat="64.19256" lon="-19.7142">
        <ele>266</ele>
        <time>2015-07-10T13:24:32Z</time>
      </trkpt>
      <trkpt lat="64.1927" lon="-19.71419">
        <ele>266</ele>
        <time>2015-07-10T13:24:43Z</time>
      </trkpt>
      <trkpt lat="64.19279" lon="-19.71423">
        <ele>267</ele>
        <time>2015-07-10T13:24:51Z</time>
      </trkpt>
      <trkpt lat="64.19285" lon="-19.71426">
        <ele>269</ele>
        <time>2015-07-10T13:25:24Z</time>
      </trkpt>
      <trkpt lat="64.19294" lon="-19.71422">
        <ele>268.5</ele>
        <time>2015-07-10T13:25:30Z</time>
      </trkpt>
      <trkpt lat="64.19298" lon="-19.71421">
        <ele>268</ele>
        <time>2015-07-10T13:25:32Z</time>
      </trkpt>
      <trkpt lat="64.19302" lon="-19.71412">
        <ele>268</ele>
        <time>2015-07-10T13:25:36Z</time>
      </trkpt>
      <trkpt lat="64.19311" lon="-19.7139">
        <ele>268</ele>
        <time>2015-07-10T13:25:46Z</time>
      </trkpt>
      <trkpt lat="64.19316" lon="-19.71385">
        <ele>268</ele>
        <time>2015-07-10T13:25:51Z</time>
      </trkpt>
      <trkpt lat="64.1932" lon="-19.71388">
        <ele>268</ele>
        <time>2015-07-10T13:25:54Z</time>
      </trkpt>
      <trkpt lat="64.19325" lon="-19.71386">
        <ele>268</ele>
        <time>2015-07-10T13:25:58Z</time>
      </trkpt>
      <trkpt lat="64.19334" lon="-19.71384">
        <ele>269</ele>
        <time>2015-07-10T13:26:08Z</time>
      </trkpt>
      <trkpt lat="64.19347" lon="-19.71371">
        <ele>269</ele>
        <time>2015-07-10T13:26:22Z</time>
      </trkpt>
      <trkpt lat="64.19352" lon="-19.71366">
        <ele>269</ele>
        <time>2015-07-10T13:26:26Z</time>
      </trkpt>
      <trkpt lat="64.19357" lon="-19.71361">
        <ele>269</ele>
        <time>2015-07-10T13:26:31Z</time>
      </trkpt>
      <trkpt lat="64.19362" lon="-19.71356">
        <ele>269</ele>
        <time>2015-07-10T13:26:36Z</time>
      </trkpt>
      <trkpt lat="64.19367" lon="-19.71354">
        <ele>266</ele>
        <time>2015-07-10T13:26:46Z</time>
      </trkpt>
      <trkpt lat="64.19373" lon="-19.7136">
        <ele>263</ele>
        <time>2015-07-10T13:26:52Z</time>
      </trkpt>
      <trkpt lat="64.19378" lon="-19.71362">
        <ele>263</ele>
        <time>2015-07-10T13:26:55Z</time>
      </trkpt>
      <trkpt lat="64.19384" lon="-19.71361">
        <ele>263</ele>
        <time>2015-07-10T13:27:04Z</time>
      </trkpt>
      <trkpt lat="64.19388" lon="-19.71351">
        <ele>263</ele>
        <time>2015-07-10T13:27:08Z</time>
      </trkpt>
      <trkpt lat="64.19393" lon="-19.71345">
        <ele>264.9</ele>
        <time>2015-07-10T13:27:20Z</time>
      </trkpt>
      <trkpt lat="64.19403" lon="-19.71334">
        <ele>265</ele>
        <time>2015-07-10T13:27:24Z</time>
      </trkpt>
      <trkpt lat="64.19407" lon="-19.71325">
        <ele>265</ele>
        <time>2015-07-10T13:27:27Z</time>
      </trkpt>
      <trkpt lat="64.19412" lon="-19.71323">
        <ele>265</ele>
        <time>2015-07-10T13:27:30Z</time>
      </trkpt>
      <trkpt lat="64.19419" lon="-19.71321">
        <ele>265</ele>
        <time>2015-07-10T13:27:35Z</time>
      </trkpt>
      <trkpt lat="64.19424" lon="-19.71317">
        <ele>265</ele>
        <time>2015-07-10T13:27:39Z</time>
      </trkpt>
      <trkpt lat="64.19428" lon="-19.7131">
        <ele>265</ele>
        <time>2015-07-10T13:27:42Z</time>
      </trkpt>
      <trkpt lat="64.19437" lon="-19.71298">
        <ele>265</ele>
        <time>2015-07-10T13:27:50Z</time>
      </trkpt>
      <trkpt lat="64.19441" lon="-19.71296">
        <ele>265</ele>
        <time>2015-07-10T13:27:55Z</time>
      </trkpt>
      <trkpt lat="64.19446" lon="-19.7129">
        <ele>265</ele>
        <time>2015-07-10T13:28:00Z</time>
      </trkpt>
      <trkpt lat="64.19451" lon="-19.71284">
        <ele>265</ele>
        <time>2015-07-10T13:28:05Z</time>
      </trkpt>
      <trkpt lat="64.19462" lon="-19.71266">
        <ele>264</ele>
        <time>2015-07-10T13:28:14Z</time>
      </trkpt>
      <trkpt lat="64.19471" lon="-19.71252">
        <ele>263</ele>
        <time>2015-07-10T13:28:22Z</time>
      </trkpt>
      <trkpt lat="64.1948" lon="-19.71246">
        <ele>263</ele>
        <time>2015-07-10T13:28:28Z</time>
      </trkpt>
      <trkpt lat="64.19485" lon="-19.71241">
        <ele>262.3</ele>
        <time>2015-07-10T13:28:33Z</time>
      </trkpt>
      <trkpt lat="64.19492" lon="-19.7123">
        <ele>262</ele>
        <time>2015-07-10T13:28:37Z</time>
      </trkpt>
      <trkpt lat="64.19501" lon="-19.71218">
        <ele>263</ele>
        <time>2015-07-10T13:28:43Z</time>
      </trkpt>
      <trkpt lat="64.19505" lon="-19.71209">
        <ele>263.9</ele>
        <time>2015-07-10T13:28:46Z</time>
      </trkpt>
      <trkpt lat="64.19508" lon="-19.71201">
        <ele>263.2</ele>
        <time>2015-07-10T13:28:49Z</time>
      </trkpt>
      <trkpt lat="64.19512" lon="-19.71198">
        <ele>263.2</ele>
        <time>2015-07-10T13:28:53Z</time>
      </trkpt>
      <trkpt lat="64.19518" lon="-19.71196">
        <ele>261.3</ele>
        <time>2015-07-10T13:28:59Z</time>
      </trkpt>
      <trkpt lat="64.19522" lon="-19.71192">
        <ele>261.3</ele>
        <time>2015-07-10T13:29:03Z</time>
      </trkpt>
      <trkpt lat="64.19531" lon="-19.71184">
        <ele>260.3</ele>
        <time>2015-07-10T13:29:09Z</time>
      </trkpt>
      <trkpt lat="64.19537" lon="-19.71177">
        <ele>260</ele>
        <time>2015-07-10T13:29:16Z</time>
      </trkpt>
      <trkpt lat="64.19543" lon="-19.71177">
        <ele>260</ele>
        <time>2015-07-10T13:29:19Z</time>
      </trkpt>
      <trkpt lat="64.19549" lon="-19.71179">
        <ele>260.5</ele>
        <time>2015-07-10T13:29:24Z</time>
      </trkpt>
      <trkpt lat="64.1956" lon="-19.71176">
        <ele>261</ele>
        <time>2015-07-10T13:29:31Z</time>
      </trkpt>
      <trkpt lat="64.19568" lon="-19.71167">
        <ele>261</ele>
        <time>2015-07-10T13:29:35Z</time>
      </trkpt>
      <trkpt lat="64.19573" lon="-19.71164">
        <ele>260.1</ele>
        <time>2015-07-10T13:29:38Z</time>
      </trkpt>
      <trkpt lat="64.19577" lon="-19.71159">
        <ele>259.5</ele>
        <time>2015-07-10T13:29:46Z</time>
      </trkpt>
      <trkpt lat="64.19582" lon="-19.7116">
        <ele>259.1</ele>
        <time>2015-07-10T13:29:51Z</time>
      </trkpt>
      <trkpt lat="64.19589" lon="-19.71159">
        <ele>258.9</ele>
        <time>2015-07-10T13:30:00Z</time>
      </trkpt>
      <trkpt lat="64.19593" lon="-19.71152">
        <ele>258.9</ele>
        <time>2015-07-10T13:30:02Z</time>
      </trkpt>
      <trkpt lat="64.196" lon="-19.71132">
        <ele>259</ele>
        <time>2015-07-10T13:30:07Z</time>
      </trkpt>
      <trkpt lat="64.19607" lon="-19.71116">
        <ele>259.9</ele>
        <time>2015-07-10T13:30:14Z</time>
      </trkpt>
      <trkpt lat="64.1961" lon="-19.71108">
        <ele>260.9</ele>
        <time>2015-07-10T13:30:19Z</time>
      </trkpt>
      <trkpt lat="64.19624" lon="-19.71096">
        <ele>261</ele>
        <time>2015-07-10T13:30:27Z</time>
      </trkpt>
      <trkpt lat="64.19633" lon="-19.71089">
        <ele>262</ele>
        <time>2015-07-10T13:30:35Z</time>
      </trkpt>
      <trkpt lat="64.19644" lon="-19.71083">
        <ele>262</ele>
        <time>2015-07-10T13:30:43Z</time>
      </trkpt>
      <trkpt lat="64.19648" lon="-19.71083">
        <ele>262</ele>
        <time>2015-07-10T13:30:45Z</time>
      </trkpt>
      <trkpt lat="64.19657" lon="-19.71071">
        <ele>263</ele>
        <time>2015-07-10T13:30:54Z</time>
      </trkpt>
      <trkpt lat="64.19659" lon="-19.71061">
        <ele>263.9</ele>
        <time>2015-07-10T13:30:58Z</time>
      </trkpt>
      <trkpt lat="64.19672" lon="-19.71045">
        <ele>264</ele>
        <time>2015-07-10T13:31:06Z</time>
      </trkpt>
      <trkpt lat="64.19679" lon="-19.7103">
        <ele>264</ele>
        <time>2015-07-10T13:31:12Z</time>
      </trkpt>
      <trkpt lat="64.19683" lon="-19.71024">
        <ele>264</ele>
        <time>2015-07-10T13:31:18Z</time>
      </trkpt>
      <trkpt lat="64.19692" lon="-19.71008">
        <ele>264</ele>
        <time>2015-07-10T13:31:26Z</time>
      </trkpt>
      <trkpt lat="64.19696" lon="-19.70989">
        <ele>263</ele>
        <time>2015-07-10T13:31:32Z</time>
      </trkpt>
      <trkpt lat="64.19701" lon="-19.70985">
        <ele>262</ele>
        <time>2015-07-10T13:31:37Z</time>
      </trkpt>
      <trkpt lat="64.19706" lon="-19.7098">
        <ele>262</ele>
        <time>2015-07-10T13:31:42Z</time>
      </trkpt>
      <trkpt lat="64.19709" lon="-19.70971">
        <ele>259.4</ele>
        <time>2015-07-10T13:31:48Z</time>
      </trkpt>
      <trkpt lat="64.19718" lon="-19.70948">
        <ele>259</ele>
        <time>2015-07-10T13:31:56Z</time>
      </trkpt>
      <trkpt lat="64.19726" lon="-19.70931">
        <ele>257.3</ele>
        <time>2015-07-10T13:32:08Z</time>
      </trkpt>
      <trkpt lat="64.19734" lon="-19.70918">
        <ele>257</ele>
        <time>2015-07-10T13:32:14Z</time>
      </trkpt>
      <trkpt lat="64.19738" lon="-19.70911">
        <ele>257</ele>
        <time>2015-07-10T13:32:18Z</time>
      </trkpt>
      <trkpt lat="64.19742" lon="-19.70892">
        <ele>256.1</ele>
        <time>2015-07-10T13:32:26Z</time>
      </trkpt>
      <trkpt lat="64.1975" lon="-19.70877">
        <ele>256</ele>
        <time>2015-07-10T13:32:36Z</time>
      </trkpt>
      <trkpt lat="64.19754" lon="-19.70867">
        <ele>256</ele>
        <time>2015-07-10T13:32:41Z</time>
      </trkpt>
      <trkpt lat="64.19758" lon="-19.70858">
        <ele>256</ele>
        <time>2015-07-10T13:32:43Z</time>
      </trkpt>
      <trkpt lat="64.19758" lon="-19.70846">
        <ele>255.2</ele>
        <time>2015-07-10T13:32:47Z</time>
      </trkpt>
      <trkpt lat="64.1976" lon="-19.70836">
        <ele>255</ele>
        <time>2015-07-10T13:32:54Z</time>
      </trkpt>
      <trkpt lat="64.19762" lon="-19.7082">
        <ele>255</ele>
        <time>2015-07-10T13:33:01Z</time>
      </trkpt>
      <trkpt lat="64.19765" lon="-19.70811">
        <ele>255</ele>
        <time>2015-07-10T13:33:09Z</time>
      </trkpt>
      <trkpt lat="64.19768" lon="-19.7079">
        <ele>255</ele>
        <time>2015-07-10T13:33:14Z</time>
      </trkpt>
      <trkpt lat="64.19771" lon="-19.70776">
        <ele>255</ele>
        <time>2015-07-10T13:33:21Z</time>
      </trkpt>
      <trkpt lat="64.19776" lon="-19.7077">
        <ele>255</ele>
        <time>2015-07-10T13:33:25Z</time>
      </trkpt>
      <trkpt lat="64.19785" lon="-19.70764">
        <ele>255</ele>
        <time>2015-07-10T13:33:34Z</time>
      </trkpt>
      <trkpt lat="64.19787" lon="-19.70755">
        <ele>254.1</ele>
        <time>2015-07-10T13:33:36Z</time>
      </trkpt>
      <trkpt lat="64.19789" lon="-19.70745">
        <ele>254</ele>
        <time>2015-07-10T13:33:45Z</time>
      </trkpt>
      <trkpt lat="64.19801" lon="-19.70726">
        <ele>254</ele>
        <time>2015-07-10T13:33:56Z</time>
      </trkpt>
      <trkpt lat="64.19802" lon="-19.70709">
        <ele>254</ele>
        <time>2015-07-10T13:34:01Z</time>
      </trkpt>
      <trkpt lat="64.19805" lon="-19.707">
        <ele>254</ele>
        <time>2015-07-10T13:34:05Z</time>
      </trkpt>
      <trkpt lat="64.19811" lon="-19.70697">
        <ele>253.1</ele>
        <time>2015-07-10T13:34:08Z</time>
      </trkpt>
      <trkpt lat="64.19821" lon="-19.70687">
        <ele>253.8</ele>
        <time>2015-07-10T13:34:18Z</time>
      </trkpt>
      <trkpt lat="64.19825" lon="-19.70689">
        <ele>253</ele>
        <time>2015-07-10T13:34:25Z</time>
      </trkpt>
      <trkpt lat="64.1983" lon="-19.70688">
        <ele>253</ele>
        <time>2015-07-10T13:34:28Z</time>
      </trkpt>
      <trkpt lat="64.19834" lon="-19.70682">
        <ele>253</ele>
        <time>2015-07-10T13:34:31Z</time>
      </trkpt>
      <trkpt lat="64.19841" lon="-19.70665">
        <ele>253</ele>
        <time>2015-07-10T13:34:37Z</time>
      </trkpt>
      <trkpt lat="64.1985" lon="-19.7065">
        <ele>254</ele>
        <time>2015-07-10T13:34:43Z</time>
      </trkpt>
      <trkpt lat="64.19856" lon="-19.70636">
        <ele>254</ele>
        <time>2015-07-10T13:34:50Z</time>
      </trkpt>
      <trkpt lat="64.19864" lon="-19.70634">
        <ele>254</ele>
        <time>2015-07-10T13:34:56Z</time>
      </trkpt>
      <trkpt lat="64.19868" lon="-19.70629">
        <ele>254</ele>
        <time>2015-07-10T13:35:00Z</time>
      </trkpt>
      <trkpt lat="64.1987" lon="-19.70617">
        <ele>254.9</ele>
        <time>2015-07-10T13:35:04Z</time>
      </trkpt>
      <trkpt lat="64.19872" lon="-19.70606">
        <ele>255.5</ele>
        <time>2015-07-10T13:35:09Z</time>
      </trkpt>
      <trkpt lat="64.19874" lon="-19.70597">
        <ele>255.5</ele>
        <time>2015-07-10T13:35:12Z</time>
      </trkpt>
      <trkpt lat="64.19879" lon="-19.70595">
        <ele>256.7</ele>
        <time>2015-07-10T13:35:18Z</time>
      </trkpt>
      <trkpt lat="64.19887" lon="-19.70593">
        <ele>257</ele>
        <time>2015-07-10T13:35:30Z</time>
      </trkpt>
      <trkpt lat="64.19901" lon="-19.70594">
        <ele>258</ele>
        <time>2015-07-10T13:35:48Z</time>
      </trkpt>
      <trkpt lat="64.19911" lon="-19.70599">
        <ele>260.9</ele>
        <time>2015-07-10T13:36:06Z</time>
      </trkpt>
      <trkpt lat="64.19916" lon="-19.70597">
        <ele>263</ele>
        <time>2015-07-10T13:36:13Z</time>
      </trkpt>
      <trkpt lat="64.1992" lon="-19.70596">
        <ele>264</ele>
        <time>2015-07-10T13:36:22Z</time>
      </trkpt>
      <trkpt lat="64.19925" lon="-19.70593">
        <ele>265</ele>
        <time>2015-07-10T13:36:32Z</time>
      </trkpt>
      <trkpt lat="64.19928" lon="-19.70583">
        <ele>265</ele>
        <time>2015-07-10T13:36:35Z</time>
      </trkpt>
      <trkpt lat="64.19935" lon="-19.70568">
        <ele>265</ele>
        <time>2015-07-10T13:36:41Z</time>
      </trkpt>
      <trkpt lat="64.19939" lon="-19.70562">
        <ele>265</ele>
        <time>2015-07-10T13:36:47Z</time>
      </trkpt>
      <trkpt lat="64.19945" lon="-19.70553">
        <ele>267.7</ele>
        <time>2015-07-10T13:36:57Z</time>
      </trkpt>
      <trkpt lat="64.19948" lon="-19.70546">
        <ele>268.4</ele>
        <time>2015-07-10T13:37:02Z</time>
      </trkpt>
      <trkpt lat="64.19949" lon="-19.70514">
        <ele>274.4</ele>
        <time>2015-07-10T13:37:10Z</time>
      </trkpt>
      <trkpt lat="64.19955" lon="-19.70498">
        <ele>276.2</ele>
        <time>2015-07-10T13:37:18Z</time>
      </trkpt>
      <trkpt lat="64.19958" lon="-19.7049">
        <ele>278.6</ele>
        <time>2015-07-10T13:37:21Z</time>
      </trkpt>
      <trkpt lat="64.19961" lon="-19.70479">
        <ele>279.9</ele>
        <time>2015-07-10T13:37:25Z</time>
      </trkpt>
      <trkpt lat="64.19961" lon="-19.70464">
        <ele>280</ele>
        <time>2015-07-10T13:37:28Z</time>
      </trkpt>
      <trkpt lat="64.19961" lon="-19.70453">
        <ele>280</ele>
        <time>2015-07-10T13:37:32Z</time>
      </trkpt>
      <trkpt lat="64.19965" lon="-19.70447">
        <ele>281</ele>
        <time>2015-07-10T13:37:39Z</time>
      </trkpt>
      <trkpt lat="64.19973" lon="-19.70444">
        <ele>281</ele>
        <time>2015-07-10T13:37:49Z</time>
      </trkpt>
      <trkpt lat="64.19977" lon="-19.70435">
        <ele>281</ele>
        <time>2015-07-10T13:38:01Z</time>
      </trkpt>
      <trkpt lat="64.19972" lon="-19.70417">
        <ele>280</ele>
        <time>2015-07-10T13:39:02Z</time>
      </trkpt>
      <trkpt lat="64.19973" lon="-19.70403">
        <ele>279</ele>
        <time>2015-07-10T13:39:08Z</time>
      </trkpt>
      <trkpt lat="64.19973" lon="-19.70389">
        <ele>279</ele>
        <time>2015-07-10T13:39:19Z</time>
      </trkpt>
      <trkpt lat="64.19972" lon="-19.70367">
        <ele>279.8</ele>
        <time>2015-07-10T13:39:25Z</time>
      </trkpt>
      <trkpt lat="64.19971" lon="-19.70354">
        <ele>280.9</ele>
        <time>2015-07-10T13:39:48Z</time>
      </trkpt>
      <trkpt lat="64.19973" lon="-19.70338">
        <ele>282</ele>
        <time>2015-07-10T13:39:53Z</time>
      </trkpt>
      <trkpt lat="64.19973" lon="-19.70327">
        <ele>282</ele>
        <time>2015-07-10T13:39:57Z</time>
      </trkpt>
      <trkpt lat="64.19974" lon="-19.70305">
        <ele>282</ele>
        <time>2015-07-10T13:40:05Z</time>
      </trkpt>
      <trkpt lat="64.19977" lon="-19.70284">
        <ele>282.9</ele>
        <time>2015-07-10T13:40:10Z</time>
      </trkpt>
      <trkpt lat="64.19977" lon="-19.70263">
        <ele>283</ele>
        <time>2015-07-10T13:40:19Z</time>
      </trkpt>
      <trkpt lat="64.19977" lon="-19.70248">
        <ele>283</ele>
        <time>2015-07-10T13:40:25Z</time>
      </trkpt>
      <trkpt lat="64.19981" lon="-19.70229">
        <ele>283</ele>
        <time>2015-07-10T13:40:31Z</time>
      </trkpt>
      <trkpt lat="64.19989" lon="-19.70224">
        <ele>283</ele>
        <time>2015-07-10T13:40:40Z</time>
      </trkpt>
      <trkpt lat="64.1999" lon="-19.7021">
        <ele>283</ele>
        <time>2015-07-10T13:40:43Z</time>
      </trkpt>
      <trkpt lat="64.19989" lon="-19.70186">
        <ele>283</ele>
        <time>2015-07-10T13:40:50Z</time>
      </trkpt>
      <trkpt lat="64.19989" lon="-19.70172">
        <ele>283</ele>
        <time>2015-07-10T13:40:55Z</time>
      </trkpt>
      <trkpt lat="64.19991" lon="-19.70163">
        <ele>283</ele>
        <time>2015-07-10T13:41:00Z</time>
      </trkpt>
      <trkpt lat="64.19988" lon="-19.70173">
        <ele>283</ele>
        <time>2015-07-10T13:41:08Z</time>
      </trkpt>
      <trkpt lat="64.19991" lon="-19.70163">
        <ele>284</ele>
        <time>2015-07-10T13:41:24Z</time>
      </trkpt>
      <trkpt lat="64.19995" lon="-19.70145">
        <ele>285.5</ele>
        <time>2015-07-10T13:41:29Z</time>
      </trkpt>
      <trkpt lat="64.19998" lon="-19.70136">
        <ele>286.7</ele>
        <time>2015-07-10T13:41:32Z</time>
      </trkpt>
      <trkpt lat="64.20003" lon="-19.70114">
        <ele>287.9</ele>
        <time>2015-07-10T13:41:41Z</time>
      </trkpt>
      <trkpt lat="64.2" lon="-19.70088">
        <ele>288</ele>
        <time>2015-07-10T13:41:53Z</time>
      </trkpt>
      <trkpt lat="64.2" lon="-19.70075">
        <ele>288</ele>
        <time>2015-07-10T13:41:56Z</time>
      </trkpt>
      <trkpt lat="64.20005" lon="-19.70056">
        <ele>288</ele>
        <time>2015-07-10T13:42:04Z</time>
      </trkpt>
      <trkpt lat="64.20009" lon="-19.70046">
        <ele>287.5</ele>
        <time>2015-07-10T13:42:08Z</time>
      </trkpt>
      <trkpt lat="64.20016" lon="-19.70018">
        <ele>287</ele>
        <time>2015-07-10T13:42:20Z</time>
      </trkpt>
      <trkpt lat="64.20027" lon="-19.69998">
        <ele>286.9</ele>
        <time>2015-07-10T13:42:30Z</time>
      </trkpt>
      <trkpt lat="64.20028" lon="-19.69977">
        <ele>287</ele>
        <time>2015-07-10T13:42:39Z</time>
      </trkpt>
      <trkpt lat="64.20027" lon="-19.69989">
        <ele>287</ele>
        <time>2015-07-10T13:42:47Z</time>
      </trkpt>
      <trkpt lat="64.20027" lon="-19.69976">
        <ele>290</ele>
        <time>2015-07-10T13:42:59Z</time>
      </trkpt>
      <trkpt lat="64.20029" lon="-19.69986">
        <ele>291.5</ele>
        <time>2015-07-10T13:43:29Z</time>
      </trkpt>
      <trkpt lat="64.20034" lon="-19.69969">
        <ele>292.9</ele>
        <time>2015-07-10T13:43:55Z</time>
      </trkpt>
      <trkpt lat="64.20041" lon="-19.69953">
        <ele>293</ele>
        <time>2015-07-10T13:44:02Z</time>
      </trkpt>
      <trkpt lat="64.20044" lon="-19.69942">
        <ele>293</ele>
        <time>2015-07-10T13:44:12Z</time>
      </trkpt>
      <trkpt lat="64.20046" lon="-19.6991">
        <ele>293</ele>
        <time>2015-07-10T13:44:22Z</time>
      </trkpt>
      <trkpt lat="64.2005" lon="-19.6989">
        <ele>293</ele>
        <time>2015-07-10T13:44:28Z</time>
      </trkpt>
      <trkpt lat="64.20052" lon="-19.6987">
        <ele>293</ele>
        <time>2015-07-10T13:44:34Z</time>
      </trkpt>
      <trkpt lat="64.20054" lon="-19.6986">
        <ele>293</ele>
        <time>2015-07-10T13:44:38Z</time>
      </trkpt>
      <trkpt lat="64.20061" lon="-19.69843">
        <ele>293</ele>
        <time>2015-07-10T13:44:52Z</time>
      </trkpt>
      <trkpt lat="64.20064" lon="-19.69829">
        <ele>294.2</ele>
        <time>2015-07-10T13:44:57Z</time>
      </trkpt>
      <trkpt lat="64.2007" lon="-19.69827">
        <ele>295.8</ele>
        <time>2015-07-10T13:45:03Z</time>
      </trkpt>
      <trkpt lat="64.20073" lon="-19.69818">
        <ele>296.9</ele>
        <time>2015-07-10T13:45:10Z</time>
      </trkpt>
      <trkpt lat="64.20074" lon="-19.69807">
        <ele>297</ele>
        <time>2015-07-10T13:45:13Z</time>
      </trkpt>
      <trkpt lat="64.20075" lon="-19.69784">
        <ele>297</ele>
        <time>2015-07-10T13:45:18Z</time>
      </trkpt>
      <trkpt lat="64.20076" lon="-19.69762">
        <ele>298.9</ele>
        <time>2015-07-10T13:45:24Z</time>
      </trkpt>
      <trkpt lat="64.20078" lon="-19.69752">
        <ele>299</ele>
        <time>2015-07-10T13:45:27Z</time>
      </trkpt>
      <trkpt lat="64.20083" lon="-19.6974">
        <ele>299</ele>
        <time>2015-07-10T13:45:34Z</time>
      </trkpt>
      <trkpt lat="64.20086" lon="-19.69729">
        <ele>299</ele>
        <time>2015-07-10T13:45:38Z</time>
      </trkpt>
      <trkpt lat="64.20087" lon="-19.69719">
        <ele>299</ele>
        <time>2015-07-10T13:45:42Z</time>
      </trkpt>
      <trkpt lat="64.20093" lon="-19.69702">
        <ele>299</ele>
        <time>2015-07-10T13:45:52Z</time>
      </trkpt>
      <trkpt lat="64.20097" lon="-19.69695">
        <ele>300</ele>
        <time>2015-07-10T13:45:58Z</time>
      </trkpt>
      <trkpt lat="64.20105" lon="-19.69679">
        <ele>301</ele>
        <time>2015-07-10T13:46:11Z</time>
      </trkpt>
      <trkpt lat="64.20115" lon="-19.69656">
        <ele>301</ele>
        <time>2015-07-10T13:46:26Z</time>
      </trkpt>
      <trkpt lat="64.20117" lon="-19.69646">
        <ele>302</ele>
        <time>2015-07-10T13:46:30Z</time>
      </trkpt>
      <trkpt lat="64.20125" lon="-19.69622">
        <ele>302.5</ele>
        <time>2015-07-10T13:46:40Z</time>
      </trkpt>
      <trkpt lat="64.20131" lon="-19.69605">
        <ele>303.9</ele>
        <time>2015-07-10T13:46:48Z</time>
      </trkpt>
      <trkpt lat="64.20133" lon="-19.69595">
        <ele>304</ele>
        <time>2015-07-10T13:46:52Z</time>
      </trkpt>
      <trkpt lat="64.2014" lon="-19.69579">
        <ele>306.6</ele>
        <time>2015-07-10T13:47:00Z</time>
      </trkpt>
      <trkpt lat="64.20146" lon="-19.69562">
        <ele>308</ele>
        <time>2015-07-10T13:47:09Z</time>
      </trkpt>
      <trkpt lat="64.20147" lon="-19.69552">
        <ele>308</ele>
        <time>2015-07-10T13:47:13Z</time>
      </trkpt>
      <trkpt lat="64.20149" lon="-19.69518">
        <ele>308.5</ele>
        <time>2015-07-10T13:47:27Z</time>
      </trkpt>
      <trkpt lat="64.20152" lon="-19.69507">
        <ele>309.5</ele>
        <time>2015-07-10T13:47:30Z</time>
      </trkpt>
      <trkpt lat="64.20157" lon="-19.69509">
        <ele>309.5</ele>
        <time>2015-07-10T13:47:34Z</time>
      </trkpt>
      <trkpt lat="64.20163" lon="-19.69512">
        <ele>310</ele>
        <time>2015-07-10T13:47:38Z</time>
      </trkpt>
      <trkpt lat="64.20169" lon="-19.6951">
        <ele>312</ele>
        <time>2015-07-10T13:47:46Z</time>
      </trkpt>
      <trkpt lat="64.20174" lon="-19.69509">
        <ele>312.9</ele>
        <time>2015-07-10T13:47:55Z</time>
      </trkpt>
      <trkpt lat="64.2017" lon="-19.69501">
        <ele>313.5</ele>
        <time>2015-07-10T13:48:16Z</time>
      </trkpt>
      <trkpt lat="64.20175" lon="-19.695">
        <ele>313</ele>
        <time>2015-07-10T13:48:28Z</time>
      </trkpt>
      <trkpt lat="64.20177" lon="-19.69488">
        <ele>313</ele>
        <time>2015-07-10T13:48:38Z</time>
      </trkpt>
      <trkpt lat="64.20182" lon="-19.69485">
        <ele>313</ele>
        <time>2015-07-10T13:48:48Z</time>
      </trkpt>
      <trkpt lat="64.20184" lon="-19.69476">
        <ele>311</ele>
        <time>2015-07-10T13:49:14Z</time>
      </trkpt>
      <trkpt lat="64.20188" lon="-19.6948">
        <ele>311</ele>
        <time>2015-07-10T13:49:22Z</time>
      </trkpt>
      <trkpt lat="64.20191" lon="-19.69472">
        <ele>310.5</ele>
        <time>2015-07-10T13:49:30Z</time>
      </trkpt>
      <trkpt lat="64.20195" lon="-19.69465">
        <ele>310</ele>
        <time>2015-07-10T13:49:47Z</time>
      </trkpt>
      <trkpt lat="64.20203" lon="-19.69453">
        <ele>310</ele>
        <time>2015-07-10T13:50:03Z</time>
      </trkpt>
      <trkpt lat="64.20211" lon="-19.69437">
        <ele>309</ele>
        <time>2015-07-10T13:50:09Z</time>
      </trkpt>
      <trkpt lat="64.20215" lon="-19.6943">
        <ele>308</ele>
        <time>2015-07-10T13:50:13Z</time>
      </trkpt>
      <trkpt lat="64.2022" lon="-19.69416">
        <ele>307.1</ele>
        <time>2015-07-10T13:50:20Z</time>
      </trkpt>
      <trkpt lat="64.20222" lon="-19.69425">
        <ele>306.5</ele>
        <time>2015-07-10T13:50:29Z</time>
      </trkpt>
      <trkpt lat="64.20227" lon="-19.6942">
        <ele>306</ele>
        <time>2015-07-10T13:50:36Z</time>
      </trkpt>
      <trkpt lat="64.20228" lon="-19.69409">
        <ele>301.1</ele>
        <time>2015-07-10T13:50:51Z</time>
      </trkpt>
      <trkpt lat="64.20232" lon="-19.69404">
        <ele>296.3</ele>
        <time>2015-07-10T13:51:02Z</time>
      </trkpt>
      <trkpt lat="64.20233" lon="-19.69388">
        <ele>296</ele>
        <time>2015-07-10T13:51:08Z</time>
      </trkpt>
      <trkpt lat="64.20235" lon="-19.69377">
        <ele>295.1</ele>
        <time>2015-07-10T13:51:12Z</time>
      </trkpt>
      <trkpt lat="64.20239" lon="-19.69376">
        <ele>295</ele>
        <time>2015-07-10T13:51:19Z</time>
      </trkpt>
      <trkpt lat="64.20242" lon="-19.69366">
        <ele>295</ele>
        <time>2015-07-10T13:51:30Z</time>
      </trkpt>
      <trkpt lat="64.20244" lon="-19.69345">
        <ele>295</ele>
        <time>2015-07-10T13:51:39Z</time>
      </trkpt>
      <trkpt lat="64.20253" lon="-19.69343">
        <ele>295</ele>
        <time>2015-07-10T13:51:51Z</time>
      </trkpt>
      <trkpt lat="64.20257" lon="-19.69337">
        <ele>295</ele>
        <time>2015-07-10T13:51:53Z</time>
      </trkpt>
      <trkpt lat="64.20263" lon="-19.69318">
        <ele>295</ele>
        <time>2015-07-10T13:52:01Z</time>
      </trkpt>
      <trkpt lat="64.20273" lon="-19.69295">
        <ele>289</ele>
        <time>2015-07-10T13:52:20Z</time>
      </trkpt>
      <trkpt lat="64.20277" lon="-19.69283">
        <ele>287.6</ele>
        <time>2015-07-10T13:52:26Z</time>
      </trkpt>
      <trkpt lat="64.20281" lon="-19.69271">
        <ele>285.2</ele>
        <time>2015-07-10T13:52:31Z</time>
      </trkpt>
      <trkpt lat="64.20285" lon="-19.69265">
        <ele>284.1</ele>
        <time>2015-07-10T13:52:36Z</time>
      </trkpt>
      <trkpt lat="64.20285" lon="-19.69254">
        <ele>283</ele>
        <time>2015-07-10T13:52:41Z</time>
      </trkpt>
      <trkpt lat="64.20288" lon="-19.69245">
        <ele>283</ele>
        <time>2015-07-10T13:52:45Z</time>
      </trkpt>
      <trkpt lat="64.20294" lon="-19.69229">
        <ele>282.1</ele>
        <time>2015-07-10T13:52:50Z</time>
      </trkpt>
      <trkpt lat="64.20302" lon="-19.69217">
        <ele>280.1</ele>
        <time>2015-07-10T13:52:58Z</time>
      </trkpt>
      <trkpt lat="64.20306" lon="-19.69213">
        <ele>280</ele>
        <time>2015-07-10T13:53:07Z</time>
      </trkpt>
      <trkpt lat="64.20311" lon="-19.69211">
        <ele>280</ele>
        <time>2015-07-10T13:53:14Z</time>
      </trkpt>
      <trkpt lat="64.20314" lon="-19.69203">
        <ele>280</ele>
        <time>2015-07-10T13:53:20Z</time>
      </trkpt>
      <trkpt lat="64.20318" lon="-19.69194">
        <ele>281</ele>
        <time>2015-07-10T13:53:28Z</time>
      </trkpt>
      <trkpt lat="64.2032" lon="-19.69181">
        <ele>283</ele>
        <time>2015-07-10T13:53:39Z</time>
      </trkpt>
      <trkpt lat="64.20323" lon="-19.69173">
        <ele>283.7</ele>
        <time>2015-07-10T13:53:44Z</time>
      </trkpt>
      <trkpt lat="64.20329" lon="-19.69164">
        <ele>284.9</ele>
        <time>2015-07-10T13:53:51Z</time>
      </trkpt>
      <trkpt lat="64.20331" lon="-19.69154">
        <ele>284.9</ele>
        <time>2015-07-10T13:53:55Z</time>
      </trkpt>
      <trkpt lat="64.20336" lon="-19.69148">
        <ele>287.3</ele>
        <time>2015-07-10T13:54:01Z</time>
      </trkpt>
      <trkpt lat="64.20345" lon="-19.69148">
        <ele>289</ele>
        <time>2015-07-10T13:54:09Z</time>
      </trkpt>
      <trkpt lat="64.20347" lon="-19.69139">
        <ele>289</ele>
        <time>2015-07-10T13:54:14Z</time>
      </trkpt>
      <trkpt lat="64.20349" lon="-19.69129">
        <ele>290</ele>
        <time>2015-07-10T13:54:20Z</time>
      </trkpt>
      <trkpt lat="64.20353" lon="-19.69124">
        <ele>290</ele>
        <time>2015-07-10T13:54:23Z</time>
      </trkpt>
      <trkpt lat="64.20358" lon="-19.69118">
        <ele>290.9</ele>
        <time>2015-07-10T13:54:27Z</time>
      </trkpt>
      <trkpt lat="64.20361" lon="-19.69108">
        <ele>290.9</ele>
        <time>2015-07-10T13:54:31Z</time>
      </trkpt>
      <trkpt lat="64.20371" lon="-19.69107">
        <ele>291</ele>
        <time>2015-07-10T13:54:37Z</time>
      </trkpt>
      <trkpt lat="64.20375" lon="-19.69103">
        <ele>291.5</ele>
        <time>2015-07-10T13:54:42Z</time>
      </trkpt>
      <trkpt lat="64.20382" lon="-19.6909">
        <ele>292</ele>
        <time>2015-07-10T13:54:49Z</time>
      </trkpt>
      <trkpt lat="64.20396" lon="-19.69077">
        <ele>292</ele>
        <time>2015-07-10T13:55:04Z</time>
      </trkpt>
      <trkpt lat="64.20404" lon="-19.69064">
        <ele>292</ele>
        <time>2015-07-10T13:55:11Z</time>
      </trkpt>
      <trkpt lat="64.20409" lon="-19.69064">
        <ele>289</ele>
        <time>2015-07-10T13:55:36Z</time>
      </trkpt>
      <trkpt lat="64.20409" lon="-19.69053">
        <ele>285</ele>
        <time>2015-07-10T13:58:02Z</time>
      </trkpt>
      <trkpt lat="64.20411" lon="-19.69066">
        <ele>284</ele>
        <time>2015-07-10T13:58:22Z</time>
      </trkpt>
      <trkpt lat="64.20408" lon="-19.69057">
        <ele>284</ele>
        <time>2015-07-10T13:58:35Z</time>
      </trkpt>
      <trkpt lat="64.20405" lon="-19.69048">
        <ele>283</ele>
        <time>2015-07-10T13:58:49Z</time>
      </trkpt>
      <trkpt lat="64.20408" lon="-19.69057">
        <ele>283</ele>
        <time>2015-07-10T13:58:50Z</time>
      </trkpt>
      <trkpt lat="64.20408" lon="-19.69067">
        <ele>282</ele>
        <time>2015-07-10T13:59:39Z</time>
      </trkpt>
      <trkpt lat="64.20407" lon="-19.69052">
        <ele>283</ele>
        <time>2015-07-10T14:02:46Z</time>
      </trkpt>
      <trkpt lat="64.20402" lon="-19.69052">
        <ele>282.2</ele>
        <time>2015-07-10T14:02:56Z</time>
      </trkpt>
      <trkpt lat="64.20406" lon="-19.69058">
        <ele>282</ele>
        <time>2015-07-10T14:03:13Z</time>
      </trkpt>
      <trkpt lat="64.20404" lon="-19.69048">
        <ele>282</ele>
        <time>2015-07-10T14:03:21Z</time>
      </trkpt>
      <trkpt lat="64.20406" lon="-19.69057">
        <ele>284</ele>
        <time>2015-07-10T14:03:55Z</time>
      </trkpt>
      <trkpt lat="64.20412" lon="-19.69062">
        <ele>278</ele>
        <time>2015-07-10T14:04:57Z</time>
      </trkpt>
      <trkpt lat="64.20409" lon="-19.69056">
        <ele>282.4</ele>
        <time>2015-07-10T14:05:14Z</time>
      </trkpt>
      <trkpt lat="64.20412" lon="-19.69063">
        <ele>287</ele>
        <time>2015-07-10T14:05:48Z</time>
      </trkpt>
      <trkpt lat="64.20406" lon="-19.69064">
        <ele>287</ele>
        <time>2015-07-10T14:06:08Z</time>
      </trkpt>
      <trkpt lat="64.20417" lon="-19.6907">
        <ele>282</ele>
        <time>2015-07-10T14:06:40Z</time>
      </trkpt>
      <trkpt lat="64.20412" lon="-19.69066">
        <ele>282</ele>
        <time>2015-07-10T14:06:51Z</time>
      </trkpt>
      <trkpt lat="64.20406" lon="-19.69067">
        <ele>282</ele>
        <time>2015-07-10T14:06:59Z</time>
      </trkpt>
      <trkpt lat="64.20402" lon="-19.69061">
        <ele>282</ele>
        <time>2015-07-10T14:07:10Z</time>
      </trkpt>
      <trkpt lat="64.20407" lon="-19.69062">
        <ele>282.8</ele>
        <time>2015-07-10T14:08:01Z</time>
      </trkpt>
      <trkpt lat="64.20403" lon="-19.69054">
        <ele>283</ele>
        <time>2015-07-10T14:08:08Z</time>
      </trkpt>
      <trkpt lat="64.20408" lon="-19.69055">
        <ele>281.2</ele>
        <time>2015-07-10T14:08:34Z</time>
      </trkpt>
      <trkpt lat="64.2041" lon="-19.69065">
        <ele>282</ele>
        <time>2015-07-10T14:09:16Z</time>
      </trkpt>
      <trkpt lat="64.20411" lon="-19.69078">
        <ele>283</ele>
        <time>2015-07-10T14:09:53Z</time>
      </trkpt>
      <trkpt lat="64.2041" lon="-19.6909">
        <ele>283</ele>
        <time>2015-07-10T14:09:56Z</time>
      </trkpt>
      <trkpt lat="64.20406" lon="-19.69084">
        <ele>283</ele>
        <time>2015-07-10T14:10:06Z</time>
      </trkpt>
      <trkpt lat="64.20403" lon="-19.69075">
        <ele>282</ele>
        <time>2015-07-10T14:10:15Z</time>
      </trkpt>
      <trkpt lat="64.20408" lon="-19.69074">
        <ele>282</ele>
        <time>2015-07-10T14:10:25Z</time>
      </trkpt>
      <trkpt lat="64.20403" lon="-19.69071">
        <ele>294.2</ele>
        <time>2015-07-10T14:11:08Z</time>
      </trkpt>
      <trkpt lat="64.204" lon="-19.69062">
        <ele>295</ele>
        <time>2015-07-10T14:11:11Z</time>
      </trkpt>
      <trkpt lat="64.20404" lon="-19.6907">
        <ele>297</ele>
        <time>2015-07-10T14:11:52Z</time>
      </trkpt>
      <trkpt lat="64.20407" lon="-19.69078">
        <ele>297</ele>
        <time>2015-07-10T14:12:03Z</time>
      </trkpt>
      <trkpt lat="64.20405" lon="-19.69066">
        <ele>297</ele>
        <time>2015-07-10T14:12:13Z</time>
      </trkpt>
      <trkpt lat="64.20401" lon="-19.69063">
        <ele>297</ele>
        <time>2015-07-10T14:12:26Z</time>
      </trkpt>
      <trkpt lat="64.20396" lon="-19.69055">
        <ele>297</ele>
        <time>2015-07-10T14:12:38Z</time>
      </trkpt>
      <trkpt lat="64.20387" lon="-19.69052">
        <ele>297</ele>
        <time>2015-07-10T14:12:47Z</time>
      </trkpt>
      <trkpt lat="64.20394" lon="-19.69056">
        <ele>297</ele>
        <time>2015-07-10T14:12:51Z</time>
      </trkpt>
      <trkpt lat="64.20399" lon="-19.69062">
        <ele>297</ele>
        <time>2015-07-10T14:12:52Z</time>
      </trkpt>
      <trkpt lat="64.20404" lon="-19.69067">
        <ele>297</ele>
        <time>2015-07-10T14:12:53Z</time>
      </trkpt>
      <trkpt lat="64.2041" lon="-19.69072">
        <ele>298</ele>
        <time>2015-07-10T14:13:32Z</time>
      </trkpt>
      <trkpt lat="64.20413" lon="-19.69058">
        <ele>290</ele>
        <time>2015-07-10T14:14:33Z</time>
      </trkpt>
      <trkpt lat="64.20409" lon="-19.69063">
        <ele>284</ele>
        <time>2015-07-10T14:21:36Z</time>
      </trkpt>
      <trkpt lat="64.20404" lon="-19.69062">
        <ele>284</ele>
        <time>2015-07-10T14:22:00Z</time>
      </trkpt>
      <trkpt lat="64.2041" lon="-19.69066">
        <ele>282</ele>
        <time>2015-07-10T14:22:31Z</time>
      </trkpt>
      <trkpt lat="64.20414" lon="-19.69068">
        <ele>280</ele>
        <time>2015-07-10T14:23:30Z</time>
      </trkpt>
      <trkpt lat="64.20411" lon="-19.6906">
        <ele>284</ele>
        <time>2015-07-10T14:24:08Z</time>
      </trkpt>
      <trkpt lat="64.20416" lon="-19.69071">
        <ele>284.1</ele>
        <time>2015-07-10T14:24:39Z</time>
      </trkpt>
      <trkpt lat="64.20418" lon="-19.69081">
        <ele>281</ele>
        <time>2015-07-10T14:25:19Z</time>
      </trkpt>
      <trkpt lat="64.20416" lon="-19.69072">
        <ele>281</ele>
        <time>2015-07-10T14:25:31Z</time>
      </trkpt>
      <trkpt lat="64.20411" lon="-19.69067">
        <ele>281</ele>
        <time>2015-07-10T14:25:42Z</time>
      </trkpt>
      <trkpt lat="64.20416" lon="-19.69071">
        <ele>283</ele>
        <time>2015-07-10T14:25:51Z</time>
      </trkpt>
      <trkpt lat="64.2041" lon="-19.69063">
        <ele>283</ele>
        <time>2015-07-10T14:25:58Z</time>
      </trkpt>
      <trkpt lat="64.20401" lon="-19.69056">
        <ele>283</ele>
        <time>2015-07-10T14:26:06Z</time>
      </trkpt>
      <trkpt lat="64.20406" lon="-19.69051">
        <ele>283</ele>
        <time>2015-07-10T14:26:19Z</time>
      </trkpt>
      <trkpt lat="64.20409" lon="-19.6906">
        <ele>281</ele>
        <time>2015-07-10T14:26:45Z</time>
      </trkpt>
      <trkpt lat="64.20413" lon="-19.69066">
        <ele>281</ele>
        <time>2015-07-10T14:26:55Z</time>
      </trkpt>
      <trkpt lat="64.20419" lon="-19.69055">
        <ele>281</ele>
        <time>2015-07-10T14:27:01Z</time>
      </trkpt>
      <trkpt lat="64.20423" lon="-19.69049">
        <ele>283</ele>
        <time>2015-07-10T14:27:10Z</time>
      </trkpt>
      <trkpt lat="64.20431" lon="-19.69039">
        <ele>283</ele>
        <time>2015-07-10T14:27:27Z</time>
      </trkpt>
      <trkpt lat="64.20437" lon="-19.69034">
        <ele>283</ele>
        <time>2015-07-10T14:27:29Z</time>
      </trkpt>
      <trkpt lat="64.20443" lon="-19.69033">
        <ele>281.1</ele>
        <time>2015-07-10T14:27:41Z</time>
      </trkpt>
      <trkpt lat="64.20446" lon="-19.69026">
        <ele>279.3</ele>
        <time>2015-07-10T14:27:46Z</time>
      </trkpt>
      <trkpt lat="64.20452" lon="-19.69008">
        <ele>279</ele>
        <time>2015-07-10T14:27:53Z</time>
      </trkpt>
      <trkpt lat="64.20458" lon="-19.69017">
        <ele>278</ele>
        <time>2015-07-10T14:28:00Z</time>
      </trkpt>
      <trkpt lat="64.20462" lon="-19.6901">
        <ele>275.2</ele>
        <time>2015-07-10T14:28:10Z</time>
      </trkpt>
      <trkpt lat="64.20466" lon="-19.69006">
        <ele>270.8</ele>
        <time>2015-07-10T14:28:17Z</time>
      </trkpt>
      <trkpt lat="64.20473" lon="-19.6899">
        <ele>267.1</ele>
        <time>2015-07-10T14:28:26Z</time>
      </trkpt>
      <trkpt lat="64.20483" lon="-19.68979">
        <ele>264.5</ele>
        <time>2015-07-10T14:28:36Z</time>
      </trkpt>
      <trkpt lat="64.20486" lon="-19.68972">
        <ele>263.3</ele>
        <time>2015-07-10T14:28:41Z</time>
      </trkpt>
      <trkpt lat="64.20491" lon="-19.6897">
        <ele>263</ele>
        <time>2015-07-10T14:28:47Z</time>
      </trkpt>
      <trkpt lat="64.20501" lon="-19.68964">
        <ele>262</ele>
        <time>2015-07-10T14:28:56Z</time>
      </trkpt>
      <trkpt lat="64.20505" lon="-19.68955">
        <ele>261.1</ele>
        <time>2015-07-10T14:28:59Z</time>
      </trkpt>
      <trkpt lat="64.20507" lon="-19.68945">
        <ele>261.1</ele>
        <time>2015-07-10T14:29:01Z</time>
      </trkpt>
      <trkpt lat="64.20505" lon="-19.68934">
        <ele>257.6</ele>
        <time>2015-07-10T14:29:06Z</time>
      </trkpt>
      <trkpt lat="64.2051" lon="-19.68933">
        <ele>257.1</ele>
        <time>2015-07-10T14:29:12Z</time>
      </trkpt>
      <trkpt lat="64.20515" lon="-19.68927">
        <ele>256</ele>
        <time>2015-07-10T14:29:19Z</time>
      </trkpt>
      <trkpt lat="64.20521" lon="-19.68911">
        <ele>255</ele>
        <time>2015-07-10T14:29:24Z</time>
      </trkpt>
      <trkpt lat="64.2052" lon="-19.689">
        <ele>255</ele>
        <time>2015-07-10T14:29:28Z</time>
      </trkpt>
      <trkpt lat="64.20515" lon="-19.68903">
        <ele>254.1</ele>
        <time>2015-07-10T14:29:39Z</time>
      </trkpt>
      <trkpt lat="64.20512" lon="-19.68894">
        <ele>254</ele>
        <time>2015-07-10T14:29:44Z</time>
      </trkpt>
      <trkpt lat="64.20518" lon="-19.68898">
        <ele>253</ele>
        <time>2015-07-10T14:30:09Z</time>
      </trkpt>
      <trkpt lat="64.20523" lon="-19.68894">
        <ele>253</ele>
        <time>2015-07-10T14:30:27Z</time>
      </trkpt>
      <trkpt lat="64.20519" lon="-19.68888">
        <ele>253.5</ele>
        <time>2015-07-10T14:30:41Z</time>
      </trkpt>
      <trkpt lat="64.20516" lon="-19.6888">
        <ele>254</ele>
        <time>2015-07-10T14:30:46Z</time>
      </trkpt>
      <trkpt lat="64.20515" lon="-19.68865">
        <ele>256</ele>
        <time>2015-07-10T14:30:51Z</time>
      </trkpt>
      <trkpt lat="64.20523" lon="-19.6887">
        <ele>256.7</ele>
        <time>2015-07-10T14:31:02Z</time>
      </trkpt>
      <trkpt lat="64.20519" lon="-19.68863">
        <ele>259</ele>
        <time>2015-07-10T14:31:54Z</time>
      </trkpt>
      <trkpt lat="64.20515" lon="-19.68855">
        <ele>259</ele>
        <time>2015-07-10T14:32:09Z</time>
      </trkpt>
      <trkpt lat="64.20516" lon="-19.68844">
        <ele>258.1</ele>
        <time>2015-07-10T14:32:18Z</time>
      </trkpt>
      <trkpt lat="64.20519" lon="-19.68836">
        <ele>256.4</ele>
        <time>2015-07-10T14:32:23Z</time>
      </trkpt>
      <trkpt lat="64.20523" lon="-19.6883">
        <ele>252.3</ele>
        <time>2015-07-10T14:32:28Z</time>
      </trkpt>
      <trkpt lat="64.20528" lon="-19.68824">
        <ele>252</ele>
        <time>2015-07-10T14:32:34Z</time>
      </trkpt>
      <trkpt lat="64.20532" lon="-19.68818">
        <ele>252</ele>
        <time>2015-07-10T14:32:39Z</time>
      </trkpt>
      <trkpt lat="64.2054" lon="-19.68811">
        <ele>252</ele>
        <time>2015-07-10T14:32:49Z</time>
      </trkpt>
      <trkpt lat="64.20545" lon="-19.68803">
        <ele>253.5</ele>
        <time>2015-07-10T14:33:01Z</time>
      </trkpt>
      <trkpt lat="64.20545" lon="-19.68789">
        <ele>255.9</ele>
        <time>2015-07-10T14:33:13Z</time>
      </trkpt>
      <trkpt lat="64.20549" lon="-19.68785">
        <ele>256</ele>
        <time>2015-07-10T14:33:18Z</time>
      </trkpt>
      <trkpt lat="64.20553" lon="-19.68782">
        <ele>256</ele>
        <time>2015-07-10T14:33:26Z</time>
      </trkpt>
      <trkpt lat="64.20559" lon="-19.68763">
        <ele>256</ele>
        <time>2015-07-10T14:33:36Z</time>
      </trkpt>
      <trkpt lat="64.20565" lon="-19.68761">
        <ele>257</ele>
        <time>2015-07-10T14:33:43Z</time>
      </trkpt>
      <trkpt lat="64.20573" lon="-19.68753">
        <ele>257</ele>
        <time>2015-07-10T14:33:51Z</time>
      </trkpt>
      <trkpt lat="64.2057" lon="-19.68746">
        <ele>257</ele>
        <time>2015-07-10T14:33:57Z</time>
      </trkpt>
      <trkpt lat="64.20566" lon="-19.68752">
        <ele>271</ele>
        <time>2015-07-10T14:35:59Z</time>
      </trkpt>
      <trkpt lat="64.20562" lon="-19.6876">
        <ele>271</ele>
        <time>2015-07-10T14:36:06Z</time>
      </trkpt>
      <trkpt lat="64.20562" lon="-19.68772">
        <ele>268.1</ele>
        <time>2015-07-10T14:36:31Z</time>
      </trkpt>
      <trkpt lat="64.20558" lon="-19.68781">
        <ele>267</ele>
        <time>2015-07-10T14:36:41Z</time>
      </trkpt>
      <trkpt lat="64.20556" lon="-19.68795">
        <ele>266</ele>
        <time>2015-07-10T14:36:48Z</time>
      </trkpt>
      <trkpt lat="64.20552" lon="-19.68804">
        <ele>266</ele>
        <time>2015-07-10T14:36:55Z</time>
      </trkpt>
      <trkpt lat="64.20552" lon="-19.68814">
        <ele>267</ele>
        <time>2015-07-10T14:37:05Z</time>
      </trkpt>
      <trkpt lat="64.20553" lon="-19.68803">
        <ele>269.6</ele>
        <time>2015-07-10T14:37:24Z</time>
      </trkpt>
      <trkpt lat="64.20549" lon="-19.68806">
        <ele>272</ele>
        <time>2015-07-10T14:37:48Z</time>
      </trkpt>
      <trkpt lat="64.20547" lon="-19.68816">
        <ele>272</ele>
        <time>2015-07-10T14:37:54Z</time>
      </trkpt>
      <trkpt lat="64.20552" lon="-19.6881">
        <ele>267.1</ele>
        <time>2015-07-10T14:38:41Z</time>
      </trkpt>
      <trkpt lat="64.20548" lon="-19.68806">
        <ele>266</ele>
        <time>2015-07-10T14:38:49Z</time>
      </trkpt>
      <trkpt lat="64.20543" lon="-19.68812">
        <ele>265.5</ele>
        <time>2015-07-10T14:38:56Z</time>
      </trkpt>
      <trkpt lat="64.20542" lon="-19.68825">
        <ele>264</ele>
        <time>2015-07-10T14:39:01Z</time>
      </trkpt>
      <trkpt lat="64.20539" lon="-19.68835">
        <ele>263.1</ele>
        <time>2015-07-10T14:39:04Z</time>
      </trkpt>
      <trkpt lat="64.20534" lon="-19.68841">
        <ele>263.1</ele>
        <time>2015-07-10T14:39:08Z</time>
      </trkpt>
      <trkpt lat="64.20531" lon="-19.68847">
        <ele>263</ele>
        <time>2015-07-10T14:39:12Z</time>
      </trkpt>
      <trkpt lat="64.20526" lon="-19.68843">
        <ele>263</ele>
        <time>2015-07-10T14:39:28Z</time>
      </trkpt>
      <trkpt lat="64.20523" lon="-19.68852">
        <ele>263</ele>
        <time>2015-07-10T14:39:35Z</time>
      </trkpt>
      <trkpt lat="64.20521" lon="-19.68861">
        <ele>262</ele>
        <time>2015-07-10T14:39:37Z</time>
      </trkpt>
      <trkpt lat="64.20517" lon="-19.68869">
        <ele>262</ele>
        <time>2015-07-10T14:39:41Z</time>
      </trkpt>
      <trkpt lat="64.20515" lon="-19.68879">
        <ele>262.8</ele>
        <time>2015-07-10T14:39:50Z</time>
      </trkpt>
      <trkpt lat="64.20517" lon="-19.68889">
        <ele>263</ele>
        <time>2015-07-10T14:39:58Z</time>
      </trkpt>
      <trkpt lat="64.20518" lon="-19.68904">
        <ele>263.9</ele>
        <time>2015-07-10T14:40:05Z</time>
      </trkpt>
      <trkpt lat="64.20524" lon="-19.68901">
        <ele>264</ele>
        <time>2015-07-10T14:40:11Z</time>
      </trkpt>
      <trkpt lat="64.20521" lon="-19.68893">
        <ele>262.6</ele>
        <time>2015-07-10T14:40:50Z</time>
      </trkpt>
      <trkpt lat="64.20518" lon="-19.68884">
        <ele>261.3</ele>
        <time>2015-07-10T14:40:55Z</time>
      </trkpt>
      <trkpt lat="64.20514" lon="-19.6889">
        <ele>259.1</ele>
        <time>2015-07-10T14:40:59Z</time>
      </trkpt>
      <trkpt lat="64.20512" lon="-19.68899">
        <ele>259.1</ele>
        <time>2015-07-10T14:41:02Z</time>
      </trkpt>
      <trkpt lat="64.20512" lon="-19.68914">
        <ele>256.5</ele>
        <time>2015-07-10T14:41:05Z</time>
      </trkpt>
      <trkpt lat="64.20507" lon="-19.68921">
        <ele>256.3</ele>
        <time>2015-07-10T14:41:11Z</time>
      </trkpt>
      <trkpt lat="64.20501" lon="-19.68938">
        <ele>253.8</ele>
        <time>2015-07-10T14:41:21Z</time>
      </trkpt>
      <trkpt lat="64.20496" lon="-19.68939">
        <ele>253</ele>
        <time>2015-07-10T14:42:12Z</time>
      </trkpt>
      <trkpt lat="64.20492" lon="-19.68958">
        <ele>253</ele>
        <time>2015-07-10T14:42:23Z</time>
      </trkpt>
      <trkpt lat="64.20479" lon="-19.68974">
        <ele>253</ele>
        <time>2015-07-10T14:42:31Z</time>
      </trkpt>
      <trkpt lat="64.20475" lon="-19.6898">
        <ele>253</ele>
        <time>2015-07-10T14:42:36Z</time>
      </trkpt>
      <trkpt lat="64.20471" lon="-19.68971">
        <ele>253</ele>
        <time>2015-07-10T14:42:44Z</time>
      </trkpt>
      <trkpt lat="64.20477" lon="-19.68971">
        <ele>253</ele>
        <time>2015-07-10T14:42:49Z</time>
      </trkpt>
      <trkpt lat="64.20472" lon="-19.68977">
        <ele>256</ele>
        <time>2015-07-10T14:43:16Z</time>
      </trkpt>
      <trkpt lat="64.20468" lon="-19.6898">
        <ele>257</ele>
        <time>2015-07-10T14:43:22Z</time>
      </trkpt>
      <trkpt lat="64.20467" lon="-19.68992">
        <ele>257</ele>
        <time>2015-07-10T14:43:32Z</time>
      </trkpt>
      <trkpt lat="64.20464" lon="-19.69001">
        <ele>258</ele>
        <time>2015-07-10T14:43:37Z</time>
      </trkpt>
      <trkpt lat="64.20459" lon="-19.69005">
        <ele>258</ele>
        <time>2015-07-10T14:43:42Z</time>
      </trkpt>
      <trkpt lat="64.20455" lon="-19.69006">
        <ele>260.3</ele>
        <time>2015-07-10T14:43:52Z</time>
      </trkpt>
      <trkpt lat="64.2045" lon="-19.69012">
        <ele>261.9</ele>
        <time>2015-07-10T14:44:00Z</time>
      </trkpt>
      <trkpt lat="64.20444" lon="-19.6902">
        <ele>264.9</ele>
        <time>2015-07-10T14:44:12Z</time>
      </trkpt>
      <trkpt lat="64.20437" lon="-19.69036">
        <ele>274.3</ele>
        <time>2015-07-10T14:44:27Z</time>
      </trkpt>
      <trkpt lat="64.20437" lon="-19.69049">
        <ele>275.5</ele>
        <time>2015-07-10T14:44:35Z</time>
      </trkpt>
      <trkpt lat="64.20433" lon="-19.69055">
        <ele>276</ele>
        <time>2015-07-10T14:44:42Z</time>
      </trkpt>
      <trkpt lat="64.20424" lon="-19.69065">
        <ele>281.2</ele>
        <time>2015-07-10T14:44:52Z</time>
      </trkpt>
      <trkpt lat="64.20419" lon="-19.69062">
        <ele>289.4</ele>
        <time>2015-07-10T14:45:11Z</time>
      </trkpt>
      <trkpt lat="64.20414" lon="-19.69069">
        <ele>293.9</ele>
        <time>2015-07-10T14:45:21Z</time>
      </trkpt>
      <trkpt lat="64.20409" lon="-19.69074">
        <ele>293.9</ele>
        <time>2015-07-10T14:45:24Z</time>
      </trkpt>
      <trkpt lat="64.20405" lon="-19.69076">
        <ele>294.5</ele>
        <time>2015-07-10T14:45:35Z</time>
      </trkpt>
      <trkpt lat="64.20402" lon="-19.69084">
        <ele>295</ele>
        <time>2015-07-10T14:45:46Z</time>
      </trkpt>
      <trkpt lat="64.20398" lon="-19.69091">
        <ele>295.9</ele>
        <time>2015-07-10T14:45:52Z</time>
      </trkpt>
      <trkpt lat="64.20394" lon="-19.69099">
        <ele>298</ele>
        <time>2015-07-10T14:46:03Z</time>
      </trkpt>
      <trkpt lat="64.20384" lon="-19.69109">
        <ele>298</ele>
        <time>2015-07-10T14:46:07Z</time>
      </trkpt>
      <trkpt lat="64.20382" lon="-19.69118">
        <ele>298</ele>
        <time>2015-07-10T14:46:12Z</time>
      </trkpt>
      <trkpt lat="64.20377" lon="-19.69125">
        <ele>298.9</ele>
        <time>2015-07-10T14:46:16Z</time>
      </trkpt>
      <trkpt lat="64.20372" lon="-19.6913">
        <ele>299</ele>
        <time>2015-07-10T14:46:22Z</time>
      </trkpt>
      <trkpt lat="64.20367" lon="-19.69131">
        <ele>308.5</ele>
        <time>2015-07-10T14:46:37Z</time>
      </trkpt>
      <trkpt lat="64.20359" lon="-19.69144">
        <ele>310</ele>
        <time>2015-07-10T14:46:46Z</time>
      </trkpt>
      <trkpt lat="64.20356" lon="-19.69153">
        <ele>310</ele>
        <time>2015-07-10T14:46:53Z</time>
      </trkpt>
      <trkpt lat="64.20347" lon="-19.69162">
        <ele>310</ele>
        <time>2015-07-10T14:47:08Z</time>
      </trkpt>
      <trkpt lat="64.2034" lon="-19.69165">
        <ele>307.1</ele>
        <time>2015-07-10T14:47:14Z</time>
      </trkpt>
      <trkpt lat="64.20336" lon="-19.69164">
        <ele>305.1</ele>
        <time>2015-07-10T14:47:26Z</time>
      </trkpt>
      <trkpt lat="64.20332" lon="-19.69152">
        <ele>300.6</ele>
        <time>2015-07-10T14:47:37Z</time>
      </trkpt>
      <trkpt lat="64.20337" lon="-19.69156">
        <ele>293</ele>
        <time>2015-07-10T14:47:56Z</time>
      </trkpt>
      <trkpt lat="64.20334" lon="-19.69147">
        <ele>293</ele>
        <time>2015-07-10T14:48:19Z</time>
      </trkpt>
      <trkpt lat="64.20335" lon="-19.69159">
        <ele>295</ele>
        <time>2015-07-10T14:48:50Z</time>
      </trkpt>
      <trkpt lat="64.20328" lon="-19.69142">
        <ele>291</ele>
        <time>2015-07-10T14:50:18Z</time>
      </trkpt>
      <trkpt lat="64.20323" lon="-19.69138">
        <ele>291</ele>
        <time>2015-07-10T14:50:23Z</time>
      </trkpt>
      <trkpt lat="64.20319" lon="-19.6916">
        <ele>291</ele>
        <time>2015-07-10T14:50:40Z</time>
      </trkpt>
      <trkpt lat="64.20318" lon="-19.69172">
        <ele>291</ele>
        <time>2015-07-10T14:50:43Z</time>
      </trkpt>
      <trkpt lat="64.20318" lon="-19.69188">
        <ele>290.1</ele>
        <time>2015-07-10T14:50:58Z</time>
      </trkpt>
      <trkpt lat="64.20314" lon="-19.69194">
        <ele>290</ele>
        <time>2015-07-10T14:51:04Z</time>
      </trkpt>
      <trkpt lat="64.20306" lon="-19.69206">
        <ele>288.6</ele>
        <time>2015-07-10T14:51:09Z</time>
      </trkpt>
      <trkpt lat="64.203" lon="-19.69227">
        <ele>286.3</ele>
        <time>2015-07-10T14:51:17Z</time>
      </trkpt>
      <trkpt lat="64.20296" lon="-19.69234">
        <ele>286</ele>
        <time>2015-07-10T14:51:22Z</time>
      </trkpt>
      <trkpt lat="64.20295" lon="-19.69247">
        <ele>286</ele>
        <time>2015-07-10T14:51:27Z</time>
      </trkpt>
      <trkpt lat="64.20291" lon="-19.69265">
        <ele>285.1</ele>
        <time>2015-07-10T14:51:32Z</time>
      </trkpt>
      <trkpt lat="64.20284" lon="-19.6928">
        <ele>282.3</ele>
        <time>2015-07-10T14:51:44Z</time>
      </trkpt>
      <trkpt lat="64.20275" lon="-19.69295">
        <ele>281</ele>
        <time>2015-07-10T14:52:00Z</time>
      </trkpt>
      <trkpt lat="64.2027" lon="-19.69297">
        <ele>281</ele>
        <time>2015-07-10T14:52:04Z</time>
      </trkpt>
      <trkpt lat="64.20262" lon="-19.69323">
        <ele>282</ele>
        <time>2015-07-10T14:52:24Z</time>
      </trkpt>
      <trkpt lat="64.20259" lon="-19.69332">
        <ele>284</ele>
        <time>2015-07-10T14:52:31Z</time>
      </trkpt>
      <trkpt lat="64.20249" lon="-19.69352">
        <ele>284.8</ele>
        <time>2015-07-10T14:52:45Z</time>
      </trkpt>
      <trkpt lat="64.20246" lon="-19.69362">
        <ele>285.8</ele>
        <time>2015-07-10T14:53:00Z</time>
      </trkpt>
      <trkpt lat="64.20243" lon="-19.69382">
        <ele>286</ele>
        <time>2015-07-10T14:53:07Z</time>
      </trkpt>
      <trkpt lat="64.2024" lon="-19.69394">
        <ele>287.9</ele>
        <time>2015-07-10T14:53:14Z</time>
      </trkpt>
      <trkpt lat="64.2024" lon="-19.69405">
        <ele>288</ele>
        <time>2015-07-10T14:53:21Z</time>
      </trkpt>
      <trkpt lat="64.20238" lon="-19.69413">
        <ele>289.9</ele>
        <time>2015-07-10T14:53:31Z</time>
      </trkpt>
      <trkpt lat="64.20232" lon="-19.69416">
        <ele>291</ele>
        <time>2015-07-10T14:53:40Z</time>
      </trkpt>
      <trkpt lat="64.20224" lon="-19.69428">
        <ele>291</ele>
        <time>2015-07-10T14:53:54Z</time>
      </trkpt>
      <trkpt lat="64.20221" lon="-19.69435">
        <ele>290.5</ele>
        <time>2015-07-10T14:54:07Z</time>
      </trkpt>
      <trkpt lat="64.20218" lon="-19.69444">
        <ele>290.2</ele>
        <time>2015-07-10T14:54:15Z</time>
      </trkpt>
      <trkpt lat="64.2021" lon="-19.69449">
        <ele>290</ele>
        <time>2015-07-10T14:54:24Z</time>
      </trkpt>
      <trkpt lat="64.20207" lon="-19.69457">
        <ele>290</ele>
        <time>2015-07-10T14:54:28Z</time>
      </trkpt>
      <trkpt lat="64.20204" lon="-19.69467">
        <ele>290</ele>
        <time>2015-07-10T14:54:32Z</time>
      </trkpt>
      <trkpt lat="64.20202" lon="-19.69475">
        <ele>290</ele>
        <time>2015-07-10T14:54:38Z</time>
      </trkpt>
      <trkpt lat="64.20197" lon="-19.69479">
        <ele>294.2</ele>
        <time>2015-07-10T14:54:46Z</time>
      </trkpt>
      <trkpt lat="64.20191" lon="-19.69487">
        <ele>301.6</ele>
        <time>2015-07-10T14:55:01Z</time>
      </trkpt>
      <trkpt lat="64.20193" lon="-19.69499">
        <ele>304</ele>
        <time>2015-07-10T14:55:09Z</time>
      </trkpt>
      <trkpt lat="64.20185" lon="-19.69509">
        <ele>304.8</ele>
        <time>2015-07-10T14:55:23Z</time>
      </trkpt>
      <trkpt lat="64.2018" lon="-19.69512">
        <ele>312.4</ele>
        <time>2015-07-10T14:55:29Z</time>
      </trkpt>
      <trkpt lat="64.2017" lon="-19.69517">
        <ele>314</ele>
        <time>2015-07-10T14:55:47Z</time>
      </trkpt>
      <trkpt lat="64.20168" lon="-19.69507">
        <ele>314</ele>
        <time>2015-07-10T14:55:54Z</time>
      </trkpt>
      <trkpt lat="64.20163" lon="-19.69498">
        <ele>314</ele>
        <time>2015-07-10T14:55:59Z</time>
      </trkpt>
      <trkpt lat="64.20159" lon="-19.69491">
        <ele>314</ele>
        <time>2015-07-10T14:56:02Z</time>
      </trkpt>
      <trkpt lat="64.20155" lon="-19.69477">
        <ele>314</ele>
        <time>2015-07-10T14:56:08Z</time>
      </trkpt>
      <trkpt lat="64.20154" lon="-19.69455">
        <ele>314</ele>
        <time>2015-07-10T14:56:18Z</time>
      </trkpt>
      <trkpt lat="64.20156" lon="-19.69444">
        <ele>314</ele>
        <time>2015-07-10T14:56:21Z</time>
      </trkpt>
      <trkpt lat="64.20156" lon="-19.69433">
        <ele>314</ele>
        <time>2015-07-10T14:56:26Z</time>
      </trkpt>
      <trkpt lat="64.20158" lon="-19.69421">
        <ele>313</ele>
        <time>2015-07-10T14:56:32Z</time>
      </trkpt>
      <trkpt lat="64.20156" lon="-19.69411">
        <ele>313</ele>
        <time>2015-07-10T14:56:35Z</time>
      </trkpt>
      <trkpt lat="64.20158" lon="-19.694">
        <ele>313</ele>
        <time>2015-07-10T14:56:46Z</time>
      </trkpt>
      <trkpt lat="64.20159" lon="-19.6938">
        <ele>313</ele>
        <time>2015-07-10T14:56:55Z</time>
      </trkpt>
      <trkpt lat="64.20153" lon="-19.69364">
        <ele>312.1</ele>
        <time>2015-07-10T14:57:02Z</time>
      </trkpt>
      <trkpt lat="64.20151" lon="-19.69343">
        <ele>310</ele>
        <time>2015-07-10T14:57:20Z</time>
      </trkpt>
      <trkpt lat="64.20155" lon="-19.69332">
        <ele>311.5</ele>
        <time>2015-07-10T14:57:31Z</time>
      </trkpt>
      <trkpt lat="64.20156" lon="-19.69301">
        <ele>313.5</ele>
        <time>2015-07-10T14:57:46Z</time>
      </trkpt>
      <trkpt lat="64.20159" lon="-19.69286">
        <ele>316.6</ele>
        <time>2015-07-10T14:57:55Z</time>
      </trkpt>
      <trkpt lat="64.20158" lon="-19.69269">
        <ele>321</ele>
        <time>2015-07-10T14:58:07Z</time>
      </trkpt>
      <trkpt lat="64.20161" lon="-19.69248">
        <ele>322</ele>
        <time>2015-07-10T14:58:25Z</time>
      </trkpt>
      <trkpt lat="64.20162" lon="-19.69238">
        <ele>323.7</ele>
        <time>2015-07-10T14:58:31Z</time>
      </trkpt>
      <trkpt lat="64.20166" lon="-19.69218">
        <ele>324</ele>
        <time>2015-07-10T14:58:38Z</time>
      </trkpt>
      <trkpt lat="64.20167" lon="-19.69205">
        <ele>325</ele>
        <time>2015-07-10T14:58:46Z</time>
      </trkpt>
      <trkpt lat="64.20172" lon="-19.69202">
        <ele>328.7</ele>
        <time>2015-07-10T14:59:03Z</time>
      </trkpt>
      <trkpt lat="64.20172" lon="-19.69192">
        <ele>330.7</ele>
        <time>2015-07-10T14:59:08Z</time>
      </trkpt>
      <trkpt lat="64.20174" lon="-19.69181">
        <ele>340</ele>
        <time>2015-07-10T14:59:18Z</time>
      </trkpt>
      <trkpt lat="64.20172" lon="-19.69171">
        <ele>342.7</ele>
        <time>2015-07-10T14:59:24Z</time>
      </trkpt>
      <trkpt lat="64.20169" lon="-19.69164">
        <ele>343</ele>
        <time>2015-07-10T14:59:28Z</time>
      </trkpt>
      <trkpt lat="64.20168" lon="-19.69153">
        <ele>343</ele>
        <time>2015-07-10T14:59:36Z</time>
      </trkpt>
      <trkpt lat="64.20169" lon="-19.69142">
        <ele>343.9</ele>
        <time>2015-07-10T14:59:43Z</time>
      </trkpt>
      <trkpt lat="64.20177" lon="-19.69124">
        <ele>344.5</ele>
        <time>2015-07-10T14:59:55Z</time>
      </trkpt>
      <trkpt lat="64.2018" lon="-19.69115">
        <ele>346.5</ele>
        <time>2015-07-10T15:00:11Z</time>
      </trkpt>
      <trkpt lat="64.20184" lon="-19.69106">
        <ele>348</ele>
        <time>2015-07-10T15:00:17Z</time>
      </trkpt>
      <trkpt lat="64.20187" lon="-19.69099">
        <ele>348.9</ele>
        <time>2015-07-10T15:00:23Z</time>
      </trkpt>
      <trkpt lat="64.20196" lon="-19.69099">
        <ele>350.9</ele>
        <time>2015-07-10T15:00:45Z</time>
      </trkpt>
      <trkpt lat="64.20201" lon="-19.69097">
        <ele>351.5</ele>
        <time>2015-07-10T15:00:51Z</time>
      </trkpt>
      <trkpt lat="64.20203" lon="-19.69087">
        <ele>352.7</ele>
        <time>2015-07-10T15:00:56Z</time>
      </trkpt>
      <trkpt lat="64.20202" lon="-19.69077">
        <ele>353.9</ele>
        <time>2015-07-10T15:01:04Z</time>
      </trkpt>
      <trkpt lat="64.20207" lon="-19.69074">
        <ele>354</ele>
        <time>2015-07-10T15:01:14Z</time>
      </trkpt>
      <trkpt lat="64.20219" lon="-19.69058">
        <ele>354.9</ele>
        <time>2015-07-10T15:01:26Z</time>
      </trkpt>
      <trkpt lat="64.20223" lon="-19.69049">
        <ele>355</ele>
        <time>2015-07-10T15:01:38Z</time>
      </trkpt>
      <trkpt lat="64.2023" lon="-19.69035">
        <ele>359.9</ele>
        <time>2015-07-10T15:01:56Z</time>
      </trkpt>
      <trkpt lat="64.20239" lon="-19.69031">
        <ele>362.2</ele>
        <time>2015-07-10T15:02:04Z</time>
      </trkpt>
      <trkpt lat="64.20244" lon="-19.69036">
        <ele>363.7</ele>
        <time>2015-07-10T15:02:10Z</time>
      </trkpt>
      <trkpt lat="64.2025" lon="-19.6902">
        <ele>364.5</ele>
        <time>2015-07-10T15:02:17Z</time>
      </trkpt>
      <trkpt lat="64.20252" lon="-19.69008">
        <ele>372.2</ele>
        <time>2015-07-10T15:02:23Z</time>
      </trkpt>
      <trkpt lat="64.20256" lon="-19.69002">
        <ele>373.1</ele>
        <time>2015-07-10T15:02:28Z</time>
      </trkpt>
      <trkpt lat="64.20268" lon="-19.68985">
        <ele>375</ele>
        <time>2015-07-10T15:02:37Z</time>
      </trkpt>
      <trkpt lat="64.20278" lon="-19.68976">
        <ele>376.9</ele>
        <time>2015-07-10T15:02:45Z</time>
      </trkpt>
      <trkpt lat="64.20282" lon="-19.68969">
        <ele>378</ele>
        <time>2015-07-10T15:02:52Z</time>
      </trkpt>
      <trkpt lat="64.20285" lon="-19.68963">
        <ele>381.9</ele>
        <time>2015-07-10T15:02:58Z</time>
      </trkpt>
      <trkpt lat="64.20288" lon="-19.68954">
        <ele>383</ele>
        <time>2015-07-10T15:03:03Z</time>
      </trkpt>
      <trkpt lat="64.20292" lon="-19.68951">
        <ele>383</ele>
        <time>2015-07-10T15:03:06Z</time>
      </trkpt>
      <trkpt lat="64.20296" lon="-19.68947">
        <ele>384</ele>
        <time>2015-07-10T15:03:12Z</time>
      </trkpt>
      <trkpt lat="64.203" lon="-19.68927">
        <ele>384</ele>
        <time>2015-07-10T15:03:21Z</time>
      </trkpt>
      <trkpt lat="64.20304" lon="-19.68922">
        <ele>384</ele>
        <time>2015-07-10T15:03:27Z</time>
      </trkpt>
      <trkpt lat="64.20309" lon="-19.68919">
        <ele>384</ele>
        <time>2015-07-10T15:03:32Z</time>
      </trkpt>
      <trkpt lat="64.20313" lon="-19.68915">
        <ele>384</ele>
        <time>2015-07-10T15:03:35Z</time>
      </trkpt>
      <trkpt lat="64.20317" lon="-19.68909">
        <ele>384</ele>
        <time>2015-07-10T15:03:38Z</time>
      </trkpt>
      <trkpt lat="64.20322" lon="-19.68903">
        <ele>384</ele>
        <time>2015-07-10T15:03:41Z</time>
      </trkpt>
      <trkpt lat="64.20329" lon="-19.68885">
        <ele>384</ele>
        <time>2015-07-10T15:03:48Z</time>
      </trkpt>
      <trkpt lat="64.20332" lon="-19.6887">
        <ele>385</ele>
        <time>2015-07-10T15:03:55Z</time>
      </trkpt>
      <trkpt lat="64.20339" lon="-19.68879">
        <ele>386</ele>
        <time>2015-07-10T15:04:06Z</time>
      </trkpt>
      <trkpt lat="64.20348" lon="-19.68877">
        <ele>386</ele>
        <time>2015-07-10T15:04:14Z</time>
      </trkpt>
      <trkpt lat="64.20357" lon="-19.68868">
        <ele>386</ele>
        <time>2015-07-10T15:04:20Z</time>
      </trkpt>
      <trkpt lat="64.20361" lon="-19.68847">
        <ele>387</ele>
        <time>2015-07-10T15:04:34Z</time>
      </trkpt>
      <trkpt lat="64.20367" lon="-19.68845">
        <ele>386</ele>
        <time>2015-07-10T15:04:40Z</time>
      </trkpt>
      <trkpt lat="64.20373" lon="-19.68829">
        <ele>385.3</ele>
        <time>2015-07-10T15:04:53Z</time>
      </trkpt>
      <trkpt lat="64.20377" lon="-19.68822">
        <ele>385</ele>
        <time>2015-07-10T15:04:58Z</time>
      </trkpt>
      <trkpt lat="64.20381" lon="-19.68815">
        <ele>385</ele>
        <time>2015-07-10T15:05:03Z</time>
      </trkpt>
      <trkpt lat="64.20386" lon="-19.68812">
        <ele>381.2</ele>
        <time>2015-07-10T15:05:09Z</time>
      </trkpt>
      <trkpt lat="64.20386" lon="-19.68802">
        <ele>381</ele>
        <time>2015-07-10T15:05:15Z</time>
      </trkpt>
      <trkpt lat="64.20389" lon="-19.68791">
        <ele>381</ele>
        <time>2015-07-10T15:05:22Z</time>
      </trkpt>
      <trkpt lat="64.20392" lon="-19.68784">
        <ele>380.1</ele>
        <time>2015-07-10T15:05:28Z</time>
      </trkpt>
      <trkpt lat="64.20396" lon="-19.68777">
        <ele>379</ele>
        <time>2015-07-10T15:05:31Z</time>
      </trkpt>
      <trkpt lat="64.20399" lon="-19.6877">
        <ele>378.5</ele>
        <time>2015-07-10T15:05:34Z</time>
      </trkpt>
      <trkpt lat="64.20402" lon="-19.6876">
        <ele>378.1</ele>
        <time>2015-07-10T15:05:39Z</time>
      </trkpt>
      <trkpt lat="64.20406" lon="-19.68751">
        <ele>378</ele>
        <time>2015-07-10T15:05:49Z</time>
      </trkpt>
      <trkpt lat="64.20411" lon="-19.68744">
        <ele>376.1</ele>
        <time>2015-07-10T15:05:53Z</time>
      </trkpt>
      <trkpt lat="64.20415" lon="-19.68739">
        <ele>376</ele>
        <time>2015-07-10T15:06:01Z</time>
      </trkpt>
      <trkpt lat="64.20421" lon="-19.68723">
        <ele>376</ele>
        <time>2015-07-10T15:06:10Z</time>
      </trkpt>
      <trkpt lat="64.20429" lon="-19.68709">
        <ele>376</ele>
        <time>2015-07-10T15:06:20Z</time>
      </trkpt>
      <trkpt lat="64.20437" lon="-19.68697">
        <ele>376</ele>
        <time>2015-07-10T15:06:33Z</time>
      </trkpt>
      <trkpt lat="64.20441" lon="-19.68689">
        <ele>376.9</ele>
        <time>2015-07-10T15:06:38Z</time>
      </trkpt>
      <trkpt lat="64.20444" lon="-19.6868">
        <ele>377</ele>
        <time>2015-07-10T15:06:42Z</time>
      </trkpt>
      <trkpt lat="64.20451" lon="-19.68662">
        <ele>378.5</ele>
        <time>2015-07-10T15:06:59Z</time>
      </trkpt>
      <trkpt lat="64.20458" lon="-19.68647">
        <ele>379.7</ele>
        <time>2015-07-10T15:07:09Z</time>
      </trkpt>
      <trkpt lat="64.20461" lon="-19.68639">
        <ele>382.7</ele>
        <time>2015-07-10T15:07:15Z</time>
      </trkpt>
      <trkpt lat="64.20467" lon="-19.68621">
        <ele>385.5</ele>
        <time>2015-07-10T15:07:22Z</time>
      </trkpt>
      <trkpt lat="64.20471" lon="-19.68611">
        <ele>386.9</ele>
        <time>2015-07-10T15:07:27Z</time>
      </trkpt>
      <trkpt lat="64.2048" lon="-19.68588">
        <ele>387</ele>
        <time>2015-07-10T15:07:43Z</time>
      </trkpt>
      <trkpt lat="64.20483" lon="-19.6858">
        <ele>387</ele>
        <time>2015-07-10T15:07:49Z</time>
      </trkpt>
      <trkpt lat="64.2049" lon="-19.68567">
        <ele>387</ele>
        <time>2015-07-10T15:07:56Z</time>
      </trkpt>
      <trkpt lat="64.20495" lon="-19.68561">
        <ele>387</ele>
        <time>2015-07-10T15:08:01Z</time>
      </trkpt>
      <trkpt lat="64.205" lon="-19.68545">
        <ele>386</ele>
        <time>2015-07-10T15:08:10Z</time>
      </trkpt>
      <trkpt lat="64.20504" lon="-19.68538">
        <ele>386</ele>
        <time>2015-07-10T15:08:14Z</time>
      </trkpt>
      <trkpt lat="64.20508" lon="-19.68534">
        <ele>386</ele>
        <time>2015-07-10T15:08:20Z</time>
      </trkpt>
      <trkpt lat="64.2052" lon="-19.6854">
        <ele>386</ele>
        <time>2015-07-10T15:08:31Z</time>
      </trkpt>
      <trkpt lat="64.20516" lon="-19.68544">
        <ele>390</ele>
        <time>2015-07-10T15:09:57Z</time>
      </trkpt>
      <trkpt lat="64.20519" lon="-19.68553">
        <ele>392</ele>
        <time>2015-07-10T15:12:37Z</time>
      </trkpt>
      <trkpt lat="64.20514" lon="-19.68562">
        <ele>392</ele>
        <time>2015-07-10T15:12:45Z</time>
      </trkpt>
      <trkpt lat="64.20518" lon="-19.68548">
        <ele>396</ele>
        <time>2015-07-10T15:14:07Z</time>
      </trkpt>
      <trkpt lat="64.20518" lon="-19.68537">
        <ele>389</ele>
        <time>2015-07-10T15:18:24Z</time>
      </trkpt>
      <trkpt lat="64.20523" lon="-19.68539">
        <ele>390</ele>
        <time>2015-07-10T15:19:27Z</time>
      </trkpt>
      <trkpt lat="64.20518" lon="-19.68541">
        <ele>390</ele>
        <time>2015-07-10T15:19:53Z</time>
      </trkpt>
      <trkpt lat="64.20515" lon="-19.68552">
        <ele>389</ele>
        <time>2015-07-10T15:23:03Z</time>
      </trkpt>
      <trkpt lat="64.20514" lon="-19.68563">
        <ele>385</ele>
        <time>2015-07-10T15:23:56Z</time>
      </trkpt>
      <trkpt lat="64.20515" lon="-19.68549">
        <ele>378</ele>
        <time>2015-07-10T15:24:40Z</time>
      </trkpt>
      <trkpt lat="64.20512" lon="-19.68562">
        <ele>377</ele>
        <time>2015-07-10T15:24:57Z</time>
      </trkpt>
      <trkpt lat="64.20515" lon="-19.68555">
        <ele>372.1</ele>
        <time>2015-07-10T15:25:07Z</time>
      </trkpt>
      <trkpt lat="64.2051" lon="-19.68567">
        <ele>369</ele>
        <time>2015-07-10T15:25:30Z</time>
      </trkpt>
      <trkpt lat="64.20509" lon="-19.68577">
        <ele>371</ele>
        <time>2015-07-10T15:26:25Z</time>
      </trkpt>
      <trkpt lat="64.2051" lon="-19.68564">
        <ele>371</ele>
        <time>2015-07-10T15:26:28Z</time>
      </trkpt>
      <trkpt lat="64.20514" lon="-19.68555">
        <ele>371</ele>
        <time>2015-07-10T15:26:35Z</time>
      </trkpt>
      <trkpt lat="64.20512" lon="-19.68566">
        <ele>373.9</ele>
        <time>2015-07-10T15:26:56Z</time>
      </trkpt>
      <trkpt lat="64.20513" lon="-19.68577">
        <ele>376</ele>
        <time>2015-07-10T15:27:14Z</time>
      </trkpt>
      <trkpt lat="64.2051" lon="-19.68584">
        <ele>376</ele>
        <time>2015-07-10T15:27:25Z</time>
      </trkpt>
      <trkpt lat="64.20505" lon="-19.68586">
        <ele>376.5</ele>
        <time>2015-07-10T15:27:33Z</time>
      </trkpt>
      <trkpt lat="64.20501" lon="-19.6858">
        <ele>378</ele>
        <time>2015-07-10T15:27:40Z</time>
      </trkpt>
      <trkpt lat="64.20497" lon="-19.68589">
        <ele>378</ele>
        <time>2015-07-10T15:27:45Z</time>
      </trkpt>
      <trkpt lat="64.20494" lon="-19.68597">
        <ele>378</ele>
        <time>2015-07-10T15:27:49Z</time>
      </trkpt>
      <trkpt lat="64.20483" lon="-19.68613">
        <ele>377.1</ele>
        <time>2015-07-10T15:28:01Z</time>
      </trkpt>
      <trkpt lat="64.20478" lon="-19.68631">
        <ele>376</ele>
        <time>2015-07-10T15:28:09Z</time>
      </trkpt>
      <trkpt lat="64.20474" lon="-19.68639">
        <ele>376</ele>
        <time>2015-07-10T15:28:14Z</time>
      </trkpt>
      <trkpt lat="64.2047" lon="-19.6865">
        <ele>376</ele>
        <time>2015-07-10T15:28:20Z</time>
      </trkpt>
      <trkpt lat="64.20466" lon="-19.68657">
        <ele>376</ele>
        <time>2015-07-10T15:28:25Z</time>
      </trkpt>
      <trkpt lat="64.20458" lon="-19.68671">
        <ele>376</ele>
        <time>2015-07-10T15:28:33Z</time>
      </trkpt>
      <trkpt lat="64.20451" lon="-19.68689">
        <ele>375</ele>
        <time>2015-07-10T15:28:46Z</time>
      </trkpt>
      <trkpt lat="64.20454" lon="-19.68697">
        <ele>375</ele>
        <time>2015-07-10T15:28:50Z</time>
      </trkpt>
      <trkpt lat="64.2045" lon="-19.68705">
        <ele>375</ele>
        <time>2015-07-10T15:28:57Z</time>
      </trkpt>
      <trkpt lat="64.20445" lon="-19.68711">
        <ele>374</ele>
        <time>2015-07-10T15:29:00Z</time>
      </trkpt>
      <trkpt lat="64.20441" lon="-19.68722">
        <ele>374</ele>
        <time>2015-07-10T15:29:04Z</time>
      </trkpt>
      <trkpt lat="64.20434" lon="-19.68735">
        <ele>373</ele>
        <time>2015-07-10T15:29:09Z</time>
      </trkpt>
      <trkpt lat="64.2043" lon="-19.68742">
        <ele>372.5</ele>
        <time>2015-07-10T15:29:15Z</time>
      </trkpt>
      <trkpt lat="64.20427" lon="-19.68752">
        <ele>371.3</ele>
        <time>2015-07-10T15:29:19Z</time>
      </trkpt>
      <trkpt lat="64.20424" lon="-19.68761">
        <ele>371</ele>
        <time>2015-07-10T15:29:25Z</time>
      </trkpt>
      <trkpt lat="64.2041" lon="-19.6876">
        <ele>370</ele>
        <time>2015-07-10T15:29:39Z</time>
      </trkpt>
      <trkpt lat="64.20398" lon="-19.68779">
        <ele>370</ele>
        <time>2015-07-10T15:29:52Z</time>
      </trkpt>
      <trkpt lat="64.20389" lon="-19.68805">
        <ele>370</ele>
        <time>2015-07-10T15:30:05Z</time>
      </trkpt>
      <trkpt lat="64.20385" lon="-19.68814">
        <ele>370</ele>
        <time>2015-07-10T15:30:09Z</time>
      </trkpt>
      <trkpt lat="64.20381" lon="-19.6882">
        <ele>370</ele>
        <time>2015-07-10T15:30:13Z</time>
      </trkpt>
      <trkpt lat="64.20381" lon="-19.68831">
        <ele>370</ele>
        <time>2015-07-10T15:30:19Z</time>
      </trkpt>
      <trkpt lat="64.20374" lon="-19.68843">
        <ele>370</ele>
        <time>2015-07-10T15:30:27Z</time>
      </trkpt>
      <trkpt lat="64.20368" lon="-19.68862">
        <ele>370</ele>
        <time>2015-07-10T15:30:37Z</time>
      </trkpt>
      <trkpt lat="64.2036" lon="-19.68875">
        <ele>369.1</ele>
        <time>2015-07-10T15:30:43Z</time>
      </trkpt>
      <trkpt lat="64.20353" lon="-19.68893">
        <ele>369</ele>
        <time>2015-07-10T15:30:49Z</time>
      </trkpt>
      <trkpt lat="64.20343" lon="-19.68915">
        <ele>369</ele>
        <time>2015-07-10T15:31:01Z</time>
      </trkpt>
      <trkpt lat="64.20338" lon="-19.68913">
        <ele>369</ele>
        <time>2015-07-10T15:31:08Z</time>
      </trkpt>
      <trkpt lat="64.20334" lon="-19.6892">
        <ele>369</ele>
        <time>2015-07-10T15:31:12Z</time>
      </trkpt>
      <trkpt lat="64.2033" lon="-19.68928">
        <ele>371</ele>
        <time>2015-07-10T15:31:16Z</time>
      </trkpt>
      <trkpt lat="64.20322" lon="-19.6894">
        <ele>379.8</ele>
        <time>2015-07-10T15:31:25Z</time>
      </trkpt>
      <trkpt lat="64.20319" lon="-19.68948">
        <ele>382</ele>
        <time>2015-07-10T15:31:30Z</time>
      </trkpt>
      <trkpt lat="64.20311" lon="-19.68957">
        <ele>382</ele>
        <time>2015-07-10T15:31:37Z</time>
      </trkpt>
      <trkpt lat="64.20302" lon="-19.68962">
        <ele>382</ele>
        <time>2015-07-10T15:31:48Z</time>
      </trkpt>
      <trkpt lat="64.20293" lon="-19.68977">
        <ele>382</ele>
        <time>2015-07-10T15:31:53Z</time>
      </trkpt>
      <trkpt lat="64.20289" lon="-19.68984">
        <ele>381.1</ele>
        <time>2015-07-10T15:31:56Z</time>
      </trkpt>
      <trkpt lat="64.20283" lon="-19.68986">
        <ele>381.1</ele>
        <time>2015-07-10T15:32:01Z</time>
      </trkpt>
      <trkpt lat="64.20277" lon="-19.68986">
        <ele>379.1</ele>
        <time>2015-07-10T15:32:07Z</time>
      </trkpt>
      <trkpt lat="64.20273" lon="-19.68991">
        <ele>379</ele>
        <time>2015-07-10T15:32:12Z</time>
      </trkpt>
      <trkpt lat="64.20265" lon="-19.69003">
        <ele>377</ele>
        <time>2015-07-10T15:32:20Z</time>
      </trkpt>
      <trkpt lat="64.20259" lon="-19.69002">
        <ele>376</ele>
        <time>2015-07-10T15:32:25Z</time>
      </trkpt>
      <trkpt lat="64.20255" lon="-19.69005">
        <ele>376</ele>
        <time>2015-07-10T15:32:27Z</time>
      </trkpt>
      <trkpt lat="64.2025" lon="-19.69014">
        <ele>376</ele>
        <time>2015-07-10T15:32:32Z</time>
      </trkpt>
      <trkpt lat="64.20241" lon="-19.69039">
        <ele>375</ele>
        <time>2015-07-10T15:32:41Z</time>
      </trkpt>
      <trkpt lat="64.20232" lon="-19.69052">
        <ele>375</ele>
        <time>2015-07-10T15:32:48Z</time>
      </trkpt>
      <trkpt lat="64.20224" lon="-19.69065">
        <ele>371.5</ele>
        <time>2015-07-10T15:33:00Z</time>
      </trkpt>
      <trkpt lat="64.20219" lon="-19.69069">
        <ele>366.1</ele>
        <time>2015-07-10T15:33:37Z</time>
      </trkpt>
      <trkpt lat="64.20216" lon="-19.69078">
        <ele>364.6</ele>
        <time>2015-07-10T15:33:43Z</time>
      </trkpt>
      <trkpt lat="64.20212" lon="-19.69093">
        <ele>359</ele>
        <time>2015-07-10T15:33:51Z</time>
      </trkpt>
      <trkpt lat="64.20208" lon="-19.69099">
        <ele>359</ele>
        <time>2015-07-10T15:33:55Z</time>
      </trkpt>
      <trkpt lat="64.20202" lon="-19.69112">
        <ele>349</ele>
        <time>2015-07-10T15:34:09Z</time>
      </trkpt>
      <trkpt lat="64.20197" lon="-19.69115">
        <ele>349</ele>
        <time>2015-07-10T15:34:12Z</time>
      </trkpt>
      <trkpt lat="64.20192" lon="-19.69119">
        <ele>349</ele>
        <time>2015-07-10T15:34:15Z</time>
      </trkpt>
      <trkpt lat="64.20187" lon="-19.69125">
        <ele>349</ele>
        <time>2015-07-10T15:34:19Z</time>
      </trkpt>
      <trkpt lat="64.20181" lon="-19.69126">
        <ele>347.5</ele>
        <time>2015-07-10T15:34:27Z</time>
      </trkpt>
      <trkpt lat="64.20177" lon="-19.69133">
        <ele>347.5</ele>
        <time>2015-07-10T15:34:31Z</time>
      </trkpt>
      <trkpt lat="64.20173" lon="-19.69139">
        <ele>346.5</ele>
        <time>2015-07-10T15:34:36Z</time>
      </trkpt>
      <trkpt lat="64.20173" lon="-19.6915">
        <ele>343.6</ele>
        <time>2015-07-10T15:34:40Z</time>
      </trkpt>
      <trkpt lat="64.20172" lon="-19.69161">
        <ele>340.1</ele>
        <time>2015-07-10T15:34:47Z</time>
      </trkpt>
      <trkpt lat="64.20173" lon="-19.69174">
        <ele>340</ele>
        <time>2015-07-10T15:34:54Z</time>
      </trkpt>
      <trkpt lat="64.20174" lon="-19.69185">
        <ele>338.5</ele>
        <time>2015-07-10T15:35:00Z</time>
      </trkpt>
      <trkpt lat="64.20168" lon="-19.69202">
        <ele>338</ele>
        <time>2015-07-10T15:35:10Z</time>
      </trkpt>
      <trkpt lat="64.20167" lon="-19.69215">
        <ele>338</ele>
        <time>2015-07-10T15:35:15Z</time>
      </trkpt>
      <trkpt lat="64.20165" lon="-19.69238">
        <ele>337.2</ele>
        <time>2015-07-10T15:35:22Z</time>
      </trkpt>
      <trkpt lat="64.20159" lon="-19.69255">
        <ele>337</ele>
        <time>2015-07-10T15:35:31Z</time>
      </trkpt>
      <trkpt lat="64.20158" lon="-19.69269">
        <ele>337</ele>
        <time>2015-07-10T15:35:37Z</time>
      </trkpt>
      <trkpt lat="64.20153" lon="-19.69271">
        <ele>336.5</ele>
        <time>2015-07-10T15:35:44Z</time>
      </trkpt>
      <trkpt lat="64.20155" lon="-19.69282">
        <ele>333.4</ele>
        <time>2015-07-10T15:35:50Z</time>
      </trkpt>
      <trkpt lat="64.20153" lon="-19.69304">
        <ele>332.5</ele>
        <time>2015-07-10T15:35:57Z</time>
      </trkpt>
      <trkpt lat="64.20149" lon="-19.69309">
        <ele>328</ele>
        <time>2015-07-10T15:36:03Z</time>
      </trkpt>
      <trkpt lat="64.20151" lon="-19.69321">
        <ele>327.3</ele>
        <time>2015-07-10T15:36:10Z</time>
      </trkpt>
      <trkpt lat="64.20156" lon="-19.69334">
        <ele>327</ele>
        <time>2015-07-10T15:36:15Z</time>
      </trkpt>
      <trkpt lat="64.20158" lon="-19.69345">
        <ele>327</ele>
        <time>2015-07-10T15:36:19Z</time>
      </trkpt>
      <trkpt lat="64.2016" lon="-19.69366">
        <ele>325.3</ele>
        <time>2015-07-10T15:36:27Z</time>
      </trkpt>
      <trkpt lat="64.20162" lon="-19.69388">
        <ele>319.7</ele>
        <time>2015-07-10T15:36:36Z</time>
      </trkpt>
      <trkpt lat="64.20164" lon="-19.69411">
        <ele>314.6</ele>
        <time>2015-07-10T15:36:45Z</time>
      </trkpt>
      <trkpt lat="64.20167" lon="-19.69426">
        <ele>307.2</ele>
        <time>2015-07-10T15:36:51Z</time>
      </trkpt>
      <trkpt lat="64.20165" lon="-19.69437">
        <ele>304.4</ele>
        <time>2015-07-10T15:36:56Z</time>
      </trkpt>
      <trkpt lat="64.20167" lon="-19.69447">
        <ele>304.4</ele>
        <time>2015-07-10T15:37:00Z</time>
      </trkpt>
      <trkpt lat="64.20164" lon="-19.69462">
        <ele>301</ele>
        <time>2015-07-10T15:37:06Z</time>
      </trkpt>
      <trkpt lat="64.20162" lon="-19.69475">
        <ele>301</ele>
        <time>2015-07-10T15:37:11Z</time>
      </trkpt>
      <trkpt lat="64.20161" lon="-19.69488">
        <ele>300</ele>
        <time>2015-07-10T15:37:15Z</time>
      </trkpt>
      <trkpt lat="64.20161" lon="-19.69512">
        <ele>299.3</ele>
        <time>2015-07-10T15:37:22Z</time>
      </trkpt>
      <trkpt lat="64.2016" lon="-19.69524">
        <ele>298.1</ele>
        <time>2015-07-10T15:37:28Z</time>
      </trkpt>
      <trkpt lat="64.20158" lon="-19.69543">
        <ele>297</ele>
        <time>2015-07-10T15:37:35Z</time>
      </trkpt>
      <trkpt lat="64.20156" lon="-19.69554">
        <ele>294.4</ele>
        <time>2015-07-10T15:37:37Z</time>
      </trkpt>
      <trkpt lat="64.20149" lon="-19.69572">
        <ele>291.6</ele>
        <time>2015-07-10T15:37:46Z</time>
      </trkpt>
      <trkpt lat="64.20148" lon="-19.69592">
        <ele>288.1</ele>
        <time>2015-07-10T15:37:59Z</time>
      </trkpt>
      <trkpt lat="64.20138" lon="-19.69598">
        <ele>287</ele>
        <time>2015-07-10T15:38:07Z</time>
      </trkpt>
      <trkpt lat="64.20132" lon="-19.69614">
        <ele>287</ele>
        <time>2015-07-10T15:38:11Z</time>
      </trkpt>
      <trkpt lat="64.20128" lon="-19.69621">
        <ele>286.1</ele>
        <time>2015-07-10T15:38:15Z</time>
      </trkpt>
      <trkpt lat="64.20123" lon="-19.69623">
        <ele>285.3</ele>
        <time>2015-07-10T15:38:22Z</time>
      </trkpt>
      <trkpt lat="64.20127" lon="-19.69623">
        <ele>285.3</ele>
        <time>2015-07-10T15:38:24Z</time>
      </trkpt>
      <trkpt lat="64.20131" lon="-19.69629">
        <ele>281.7</ele>
        <time>2015-07-10T15:38:30Z</time>
      </trkpt>
      <trkpt lat="64.20128" lon="-19.69635">
        <ele>279</ele>
        <time>2015-07-10T15:38:41Z</time>
      </trkpt>
      <trkpt lat="64.20128" lon="-19.6967">
        <ele>279</ele>
        <time>2015-07-10T15:38:55Z</time>
      </trkpt>
      <trkpt lat="64.2012" lon="-19.69686">
        <ele>278.5</ele>
        <time>2015-07-10T15:39:01Z</time>
      </trkpt>
      <trkpt lat="64.20108" lon="-19.69701">
        <ele>277.1</ele>
        <time>2015-07-10T15:39:10Z</time>
      </trkpt>
      <trkpt lat="64.20104" lon="-19.69712">
        <ele>277</ele>
        <time>2015-07-10T15:39:15Z</time>
      </trkpt>
      <trkpt lat="64.20097" lon="-19.69729">
        <ele>276</ele>
        <time>2015-07-10T15:39:22Z</time>
      </trkpt>
      <trkpt lat="64.20097" lon="-19.69745">
        <ele>276</ele>
        <time>2015-07-10T15:39:30Z</time>
      </trkpt>
      <trkpt lat="64.20095" lon="-19.69757">
        <ele>276</ele>
        <time>2015-07-10T15:39:35Z</time>
      </trkpt>
      <trkpt lat="64.20092" lon="-19.69767">
        <ele>274.3</ele>
        <time>2015-07-10T15:39:39Z</time>
      </trkpt>
      <trkpt lat="64.20091" lon="-19.69778">
        <ele>274</ele>
        <time>2015-07-10T15:39:43Z</time>
      </trkpt>
      <trkpt lat="64.20084" lon="-19.69793">
        <ele>273.3</ele>
        <time>2015-07-10T15:39:48Z</time>
      </trkpt>
      <trkpt lat="64.2008" lon="-19.69802">
        <ele>271</ele>
        <time>2015-07-10T15:39:52Z</time>
      </trkpt>
      <trkpt lat="64.20073" lon="-19.69817">
        <ele>269.1</ele>
        <time>2015-07-10T15:40:00Z</time>
      </trkpt>
      <trkpt lat="64.20071" lon="-19.69826">
        <ele>269</ele>
        <time>2015-07-10T15:40:03Z</time>
      </trkpt>
      <trkpt lat="64.2007" lon="-19.69843">
        <ele>268</ele>
        <time>2015-07-10T15:40:10Z</time>
      </trkpt>
      <trkpt lat="64.20065" lon="-19.6985">
        <ele>266.3</ele>
        <time>2015-07-10T15:40:16Z</time>
      </trkpt>
      <trkpt lat="64.2006" lon="-19.69871">
        <ele>262.8</ele>
        <time>2015-07-10T15:40:21Z</time>
      </trkpt>
      <trkpt lat="64.20059" lon="-19.69882">
        <ele>262</ele>
        <time>2015-07-10T15:40:27Z</time>
      </trkpt>
      <trkpt lat="64.2006" lon="-19.69901">
        <ele>262</ele>
        <time>2015-07-10T15:40:35Z</time>
      </trkpt>
      <trkpt lat="64.20058" lon="-19.69916">
        <ele>262</ele>
        <time>2015-07-10T15:40:39Z</time>
      </trkpt>
      <trkpt lat="64.20057" lon="-19.69926">
        <ele>262</ele>
        <time>2015-07-10T15:40:42Z</time>
      </trkpt>
      <trkpt lat="64.20053" lon="-19.69935">
        <ele>262</ele>
        <time>2015-07-10T15:40:46Z</time>
      </trkpt>
      <trkpt lat="64.20051" lon="-19.69946">
        <ele>262</ele>
        <time>2015-07-10T15:40:51Z</time>
      </trkpt>
      <trkpt lat="64.20046" lon="-19.69965">
        <ele>263.5</ele>
        <time>2015-07-10T15:40:58Z</time>
      </trkpt>
      <trkpt lat="64.20045" lon="-19.69985">
        <ele>266.5</ele>
        <time>2015-07-10T15:41:04Z</time>
      </trkpt>
      <trkpt lat="64.20043" lon="-19.69996">
        <ele>266.5</ele>
        <time>2015-07-10T15:41:07Z</time>
      </trkpt>
      <trkpt lat="64.20033" lon="-19.70016">
        <ele>267</ele>
        <time>2015-07-10T15:41:20Z</time>
      </trkpt>
      <trkpt lat="64.20031" lon="-19.70026">
        <ele>267</ele>
        <time>2015-07-10T15:41:25Z</time>
      </trkpt>
      <trkpt lat="64.20023" lon="-19.70039">
        <ele>267</ele>
        <time>2015-07-10T15:41:31Z</time>
      </trkpt>
      <trkpt lat="64.20019" lon="-19.70057">
        <ele>266.2</ele>
        <time>2015-07-10T15:41:39Z</time>
      </trkpt>
      <trkpt lat="64.20015" lon="-19.70071">
        <ele>265</ele>
        <time>2015-07-10T15:41:45Z</time>
      </trkpt>
      <trkpt lat="64.20013" lon="-19.70083">
        <ele>265</ele>
        <time>2015-07-10T15:41:51Z</time>
      </trkpt>
      <trkpt lat="64.20008" lon="-19.70111">
        <ele>264</ele>
        <time>2015-07-10T15:42:03Z</time>
      </trkpt>
      <trkpt lat="64.20007" lon="-19.70124">
        <ele>264</ele>
        <time>2015-07-10T15:42:08Z</time>
      </trkpt>
      <trkpt lat="64.20001" lon="-19.70154">
        <ele>264</ele>
        <time>2015-07-10T15:42:18Z</time>
      </trkpt>
      <trkpt lat="64.19995" lon="-19.70175">
        <ele>265</ele>
        <time>2015-07-10T15:42:26Z</time>
      </trkpt>
      <trkpt lat="64.19994" lon="-19.70196">
        <ele>265.8</ele>
        <time>2015-07-10T15:42:34Z</time>
      </trkpt>
      <trkpt lat="64.19992" lon="-19.70207">
        <ele>266</ele>
        <time>2015-07-10T15:42:38Z</time>
      </trkpt>
      <trkpt lat="64.19991" lon="-19.70219">
        <ele>266</ele>
        <time>2015-07-10T15:42:43Z</time>
      </trkpt>
      <trkpt lat="64.1999" lon="-19.70231">
        <ele>265</ele>
        <time>2015-07-10T15:42:50Z</time>
      </trkpt>
      <trkpt lat="64.19991" lon="-19.70242">
        <ele>265</ele>
        <time>2015-07-10T15:42:55Z</time>
      </trkpt>
      <trkpt lat="64.19989" lon="-19.70255">
        <ele>265</ele>
        <time>2015-07-10T15:42:58Z</time>
      </trkpt>
      <trkpt lat="64.19988" lon="-19.70266">
        <ele>265.9</ele>
        <time>2015-07-10T15:43:01Z</time>
      </trkpt>
      <trkpt lat="64.19988" lon="-19.70278">
        <ele>265.1</ele>
        <time>2015-07-10T15:43:06Z</time>
      </trkpt>
      <trkpt lat="64.19984" lon="-19.70286">
        <ele>265.1</ele>
        <time>2015-07-10T15:43:09Z</time>
      </trkpt>
      <trkpt lat="64.19982" lon="-19.70298">
        <ele>265</ele>
        <time>2015-07-10T15:43:12Z</time>
      </trkpt>
      <trkpt lat="64.19982" lon="-19.70314">
        <ele>264.1</ele>
        <time>2015-07-10T15:43:20Z</time>
      </trkpt>
      <trkpt lat="64.19981" lon="-19.70325">
        <ele>263.3</ele>
        <time>2015-07-10T15:43:30Z</time>
      </trkpt>
      <trkpt lat="64.19984" lon="-19.70348">
        <ele>261.8</ele>
        <time>2015-07-10T15:43:37Z</time>
      </trkpt>
      <trkpt lat="64.19985" lon="-19.7036">
        <ele>259</ele>
        <time>2015-07-10T15:43:38Z</time>
      </trkpt>
      <trkpt lat="64.19986" lon="-19.70375">
        <ele>259</ele>
        <time>2015-07-10T15:43:43Z</time>
      </trkpt>
      <trkpt lat="64.19983" lon="-19.70389">
        <ele>258.5</ele>
        <time>2015-07-10T15:43:51Z</time>
      </trkpt>
      <trkpt lat="64.1998" lon="-19.70398">
        <ele>258.5</ele>
        <time>2015-07-10T15:43:55Z</time>
      </trkpt>
      <trkpt lat="64.19968" lon="-19.70418">
        <ele>257</ele>
        <time>2015-07-10T15:44:10Z</time>
      </trkpt>
      <trkpt lat="64.19965" lon="-19.70426">
        <ele>257</ele>
        <time>2015-07-10T15:44:13Z</time>
      </trkpt>
      <trkpt lat="64.1996" lon="-19.70434">
        <ele>257</ele>
        <time>2015-07-10T15:44:17Z</time>
      </trkpt>
      <trkpt lat="64.19952" lon="-19.70447">
        <ele>257</ele>
        <time>2015-07-10T15:44:22Z</time>
      </trkpt>
      <trkpt lat="64.19949" lon="-19.70457">
        <ele>257</ele>
        <time>2015-07-10T15:44:27Z</time>
      </trkpt>
      <trkpt lat="64.19941" lon="-19.7047">
        <ele>257</ele>
        <time>2015-07-10T15:44:33Z</time>
      </trkpt>
      <trkpt lat="64.19933" lon="-19.7048">
        <ele>256</ele>
        <time>2015-07-10T15:44:40Z</time>
      </trkpt>
      <trkpt lat="64.1993" lon="-19.70489">
        <ele>254.1</ele>
        <time>2015-07-10T15:44:46Z</time>
      </trkpt>
      <trkpt lat="64.19924" lon="-19.70496">
        <ele>254</ele>
        <time>2015-07-10T15:44:51Z</time>
      </trkpt>
      <trkpt lat="64.19923" lon="-19.70507">
        <ele>254</ele>
        <time>2015-07-10T15:44:56Z</time>
      </trkpt>
      <trkpt lat="64.19919" lon="-19.70518">
        <ele>254</ele>
        <time>2015-07-10T15:45:00Z</time>
      </trkpt>
      <trkpt lat="64.19913" lon="-19.70546">
        <ele>254</ele>
        <time>2015-07-10T15:45:10Z</time>
      </trkpt>
      <trkpt lat="64.19909" lon="-19.70565">
        <ele>256.8</ele>
        <time>2015-07-10T15:45:19Z</time>
      </trkpt>
      <trkpt lat="64.19897" lon="-19.70582">
        <ele>262.7</ele>
        <time>2015-07-10T15:45:27Z</time>
      </trkpt>
      <trkpt lat="64.19894" lon="-19.70592">
        <ele>263</ele>
        <time>2015-07-10T15:45:32Z</time>
      </trkpt>
      <trkpt lat="64.19895" lon="-19.70604">
        <ele>263.7</ele>
        <time>2015-07-10T15:45:37Z</time>
      </trkpt>
      <trkpt lat="64.19892" lon="-19.70613">
        <ele>264.9</ele>
        <time>2015-07-10T15:45:43Z</time>
      </trkpt>
      <trkpt lat="64.19884" lon="-19.70611">
        <ele>265</ele>
        <time>2015-07-10T15:45:49Z</time>
      </trkpt>
      <trkpt lat="64.19879" lon="-19.70614">
        <ele>265</ele>
        <time>2015-07-10T15:45:53Z</time>
      </trkpt>
      <trkpt lat="64.19875" lon="-19.70623">
        <ele>265</ele>
        <time>2015-07-10T15:45:56Z</time>
      </trkpt>
      <trkpt lat="64.19873" lon="-19.70634">
        <ele>265</ele>
        <time>2015-07-10T15:46:01Z</time>
      </trkpt>
      <trkpt lat="64.19866" lon="-19.70647">
        <ele>265</ele>
        <time>2015-07-10T15:46:09Z</time>
      </trkpt>
      <trkpt lat="64.19857" lon="-19.70657">
        <ele>264</ele>
        <time>2015-07-10T15:46:13Z</time>
      </trkpt>
      <trkpt lat="64.19844" lon="-19.70668">
        <ele>262.5</ele>
        <time>2015-07-10T15:46:25Z</time>
      </trkpt>
      <trkpt lat="64.19842" lon="-19.70678">
        <ele>262</ele>
        <time>2015-07-10T15:46:30Z</time>
      </trkpt>
      <trkpt lat="64.19837" lon="-19.7068">
        <ele>262</ele>
        <time>2015-07-10T15:46:36Z</time>
      </trkpt>
      <trkpt lat="64.19835" lon="-19.70691">
        <ele>262</ele>
        <time>2015-07-10T15:46:40Z</time>
      </trkpt>
      <trkpt lat="64.19827" lon="-19.70705">
        <ele>260.2</ele>
        <time>2015-07-10T15:46:45Z</time>
      </trkpt>
      <trkpt lat="64.19822" lon="-19.7071">
        <ele>260</ele>
        <time>2015-07-10T15:46:50Z</time>
      </trkpt>
      <trkpt lat="64.19817" lon="-19.70711">
        <ele>259</ele>
        <time>2015-07-10T15:47:05Z</time>
      </trkpt>
      <trkpt lat="64.19812" lon="-19.70718">
        <ele>259</ele>
        <time>2015-07-10T15:47:08Z</time>
      </trkpt>
      <trkpt lat="64.19805" lon="-19.70735">
        <ele>259</ele>
        <time>2015-07-10T15:47:17Z</time>
      </trkpt>
      <trkpt lat="64.19798" lon="-19.70736">
        <ele>260</ele>
        <time>2015-07-10T15:47:26Z</time>
      </trkpt>
      <trkpt lat="64.19791" lon="-19.70754">
        <ele>260</ele>
        <time>2015-07-10T15:47:33Z</time>
      </trkpt>
      <trkpt lat="64.19788" lon="-19.70763">
        <ele>259.1</ele>
        <time>2015-07-10T15:47:36Z</time>
      </trkpt>
      <trkpt lat="64.19784" lon="-19.70775">
        <ele>259.1</ele>
        <time>2015-07-10T15:47:39Z</time>
      </trkpt>
      <trkpt lat="64.19776" lon="-19.70794">
        <ele>259</ele>
        <time>2015-07-10T15:47:47Z</time>
      </trkpt>
      <trkpt lat="64.19771" lon="-19.708">
        <ele>259</ele>
        <time>2015-07-10T15:47:51Z</time>
      </trkpt>
      <trkpt lat="64.19769" lon="-19.7081">
        <ele>259</ele>
        <time>2015-07-10T15:47:57Z</time>
      </trkpt>
      <trkpt lat="64.19767" lon="-19.7082">
        <ele>259</ele>
        <time>2015-07-10T15:48:00Z</time>
      </trkpt>
      <trkpt lat="64.19766" lon="-19.70831">
        <ele>259</ele>
        <time>2015-07-10T15:48:04Z</time>
      </trkpt>
      <trkpt lat="64.1976" lon="-19.70849">
        <ele>258</ele>
        <time>2015-07-10T15:48:11Z</time>
      </trkpt>
      <trkpt lat="64.19758" lon="-19.7086">
        <ele>256.5</ele>
        <time>2015-07-10T15:48:17Z</time>
      </trkpt>
      <trkpt lat="64.19754" lon="-19.70868">
        <ele>256</ele>
        <time>2015-07-10T15:48:21Z</time>
      </trkpt>
      <trkpt lat="64.19751" lon="-19.70889">
        <ele>254.3</ele>
        <time>2015-07-10T15:48:32Z</time>
      </trkpt>
      <trkpt lat="64.19749" lon="-19.70911">
        <ele>253</ele>
        <time>2015-07-10T15:48:41Z</time>
      </trkpt>
      <trkpt lat="64.19744" lon="-19.70914">
        <ele>252.2</ele>
        <time>2015-07-10T15:48:47Z</time>
      </trkpt>
      <trkpt lat="64.19736" lon="-19.70928">
        <ele>250.3</ele>
        <time>2015-07-10T15:48:57Z</time>
      </trkpt>
      <trkpt lat="64.19734" lon="-19.70938">
        <ele>249.1</ele>
        <time>2015-07-10T15:49:01Z</time>
      </trkpt>
      <trkpt lat="64.19728" lon="-19.70944">
        <ele>249.1</ele>
        <time>2015-07-10T15:49:04Z</time>
      </trkpt>
      <trkpt lat="64.19725" lon="-19.70953">
        <ele>248.3</ele>
        <time>2015-07-10T15:49:08Z</time>
      </trkpt>
      <trkpt lat="64.19723" lon="-19.70964">
        <ele>248</ele>
        <time>2015-07-10T15:49:14Z</time>
      </trkpt>
      <trkpt lat="64.19711" lon="-19.70983">
        <ele>239.3</ele>
        <time>2015-07-10T15:49:24Z</time>
      </trkpt>
      <trkpt lat="64.19703" lon="-19.70997">
        <ele>237.1</ele>
        <time>2015-07-10T15:49:30Z</time>
      </trkpt>
      <trkpt lat="64.197" lon="-19.71003">
        <ele>237</ele>
        <time>2015-07-10T15:49:33Z</time>
      </trkpt>
      <trkpt lat="64.19697" lon="-19.71012">
        <ele>237</ele>
        <time>2015-07-10T15:49:38Z</time>
      </trkpt>
      <trkpt lat="64.19697" lon="-19.71023">
        <ele>237</ele>
        <time>2015-07-10T15:49:42Z</time>
      </trkpt>
      <trkpt lat="64.19691" lon="-19.71041">
        <ele>237</ele>
        <time>2015-07-10T15:49:53Z</time>
      </trkpt>
      <trkpt lat="64.19681" lon="-19.71064">
        <ele>239.9</ele>
        <time>2015-07-10T15:50:07Z</time>
      </trkpt>
      <trkpt lat="64.19677" lon="-19.71072">
        <ele>243.1</ele>
        <time>2015-07-10T15:50:11Z</time>
      </trkpt>
      <trkpt lat="64.19667" lon="-19.71081">
        <ele>244</ele>
        <time>2015-07-10T15:50:20Z</time>
      </trkpt>
      <trkpt lat="64.19663" lon="-19.71087">
        <ele>245.7</ele>
        <time>2015-07-10T15:50:25Z</time>
      </trkpt>
      <trkpt lat="64.19657" lon="-19.71092">
        <ele>246.5</ele>
        <time>2015-07-10T15:50:30Z</time>
      </trkpt>
      <trkpt lat="64.19653" lon="-19.71093">
        <ele>246.9</ele>
        <time>2015-07-10T15:50:33Z</time>
      </trkpt>
      <trkpt lat="64.19642" lon="-19.71099">
        <ele>247</ele>
        <time>2015-07-10T15:50:41Z</time>
      </trkpt>
      <trkpt lat="64.19638" lon="-19.71101">
        <ele>247</ele>
        <time>2015-07-10T15:50:46Z</time>
      </trkpt>
      <trkpt lat="64.19634" lon="-19.71109">
        <ele>247</ele>
        <time>2015-07-10T15:50:50Z</time>
      </trkpt>
      <trkpt lat="64.19623" lon="-19.71118">
        <ele>247</ele>
        <time>2015-07-10T15:50:58Z</time>
      </trkpt>
      <trkpt lat="64.1961" lon="-19.71132">
        <ele>247</ele>
        <time>2015-07-10T15:51:09Z</time>
      </trkpt>
      <trkpt lat="64.19606" lon="-19.7114">
        <ele>243.6</ele>
        <time>2015-07-10T15:51:17Z</time>
      </trkpt>
      <trkpt lat="64.196" lon="-19.71148">
        <ele>241.1</ele>
        <time>2015-07-10T15:51:21Z</time>
      </trkpt>
      <trkpt lat="64.19597" lon="-19.71157">
        <ele>241.1</ele>
        <time>2015-07-10T15:51:26Z</time>
      </trkpt>
      <trkpt lat="64.19597" lon="-19.7117">
        <ele>240</ele>
        <time>2015-07-10T15:51:43Z</time>
      </trkpt>
      <trkpt lat="64.196" lon="-19.71189">
        <ele>238.6</ele>
        <time>2015-07-10T15:51:48Z</time>
      </trkpt>
      <trkpt lat="64.19596" lon="-19.71197">
        <ele>238</ele>
        <time>2015-07-10T15:51:54Z</time>
      </trkpt>
      <trkpt lat="64.1959" lon="-19.712">
        <ele>237</ele>
        <time>2015-07-10T15:51:59Z</time>
      </trkpt>
      <trkpt lat="64.19586" lon="-19.71196">
        <ele>237</ele>
        <time>2015-07-10T15:52:02Z</time>
      </trkpt>
      <trkpt lat="64.19581" lon="-19.71193">
        <ele>237</ele>
        <time>2015-07-10T15:52:04Z</time>
      </trkpt>
      <trkpt lat="64.19567" lon="-19.71188">
        <ele>235</ele>
        <time>2015-07-10T15:52:15Z</time>
      </trkpt>
      <trkpt lat="64.1956" lon="-19.71184">
        <ele>234.3</ele>
        <time>2015-07-10T15:52:21Z</time>
      </trkpt>
      <trkpt lat="64.19555" lon="-19.71187">
        <ele>234</ele>
        <time>2015-07-10T15:52:25Z</time>
      </trkpt>
      <trkpt lat="64.19549" lon="-19.71191">
        <ele>234</ele>
        <time>2015-07-10T15:52:29Z</time>
      </trkpt>
      <trkpt lat="64.19545" lon="-19.71185">
        <ele>234</ele>
        <time>2015-07-10T15:52:33Z</time>
      </trkpt>
      <trkpt lat="64.1954" lon="-19.71189">
        <ele>234.8</ele>
        <time>2015-07-10T15:52:42Z</time>
      </trkpt>
      <trkpt lat="64.19536" lon="-19.71196">
        <ele>235.5</ele>
        <time>2015-07-10T15:52:45Z</time>
      </trkpt>
      <trkpt lat="64.19531" lon="-19.71201">
        <ele>235.9</ele>
        <time>2015-07-10T15:52:49Z</time>
      </trkpt>
      <trkpt lat="64.19526" lon="-19.71206">
        <ele>237.7</ele>
        <time>2015-07-10T15:52:53Z</time>
      </trkpt>
      <trkpt lat="64.19522" lon="-19.71213">
        <ele>238.9</ele>
        <time>2015-07-10T15:52:57Z</time>
      </trkpt>
      <trkpt lat="64.19518" lon="-19.71214">
        <ele>238.9</ele>
        <time>2015-07-10T15:53:00Z</time>
      </trkpt>
      <trkpt lat="64.19508" lon="-19.71212">
        <ele>240</ele>
        <time>2015-07-10T15:53:07Z</time>
      </trkpt>
      <trkpt lat="64.19507" lon="-19.71224">
        <ele>240</ele>
        <time>2015-07-10T15:53:12Z</time>
      </trkpt>
      <trkpt lat="64.19505" lon="-19.71234">
        <ele>240</ele>
        <time>2015-07-10T15:53:15Z</time>
      </trkpt>
      <trkpt lat="64.19502" lon="-19.71243">
        <ele>240</ele>
        <time>2015-07-10T15:53:20Z</time>
      </trkpt>
      <trkpt lat="64.19498" lon="-19.71262">
        <ele>240</ele>
        <time>2015-07-10T15:53:31Z</time>
      </trkpt>
      <trkpt lat="64.19491" lon="-19.71272">
        <ele>239</ele>
        <time>2015-07-10T15:53:36Z</time>
      </trkpt>
      <trkpt lat="64.19484" lon="-19.71271">
        <ele>239</ele>
        <time>2015-07-10T15:53:41Z</time>
      </trkpt>
      <trkpt lat="64.19474" lon="-19.71266">
        <ele>238</ele>
        <time>2015-07-10T15:53:50Z</time>
      </trkpt>
      <trkpt lat="64.1947" lon="-19.71271">
        <ele>238</ele>
        <time>2015-07-10T15:53:55Z</time>
      </trkpt>
      <trkpt lat="64.19467" lon="-19.71279">
        <ele>238</ele>
        <time>2015-07-10T15:54:00Z</time>
      </trkpt>
      <trkpt lat="64.19462" lon="-19.71284">
        <ele>238</ele>
        <time>2015-07-10T15:54:05Z</time>
      </trkpt>
      <trkpt lat="64.19451" lon="-19.71291">
        <ele>239</ele>
        <time>2015-07-10T15:54:12Z</time>
      </trkpt>
      <trkpt lat="64.19443" lon="-19.71302">
        <ele>239</ele>
        <time>2015-07-10T15:54:17Z</time>
      </trkpt>
      <trkpt lat="64.19436" lon="-19.71314">
        <ele>239</ele>
        <time>2015-07-10T15:54:20Z</time>
      </trkpt>
      <trkpt lat="64.1944" lon="-19.71324">
        <ele>239.9</ele>
        <time>2015-07-10T15:54:32Z</time>
      </trkpt>
      <trkpt lat="64.19435" lon="-19.71314">
        <ele>239</ele>
        <time>2015-07-10T15:54:46Z</time>
      </trkpt>
      <trkpt lat="64.19431" lon="-19.71322">
        <ele>238.3</ele>
        <time>2015-07-10T15:54:51Z</time>
      </trkpt>
      <trkpt lat="64.19426" lon="-19.71329">
        <ele>238</ele>
        <time>2015-07-10T15:54:55Z</time>
      </trkpt>
      <trkpt lat="64.19416" lon="-19.71333">
        <ele>236</ele>
        <time>2015-07-10T15:55:11Z</time>
      </trkpt>
      <trkpt lat="64.19411" lon="-19.71335">
        <ele>236.5</ele>
        <time>2015-07-10T15:55:15Z</time>
      </trkpt>
      <trkpt lat="64.19403" lon="-19.71345">
        <ele>238.5</ele>
        <time>2015-07-10T15:55:27Z</time>
      </trkpt>
      <trkpt lat="64.19394" lon="-19.71355">
        <ele>239</ele>
        <time>2015-07-10T15:55:33Z</time>
      </trkpt>
      <trkpt lat="64.1939" lon="-19.71361">
        <ele>242.8</ele>
        <time>2015-07-10T15:55:38Z</time>
      </trkpt>
      <trkpt lat="64.19381" lon="-19.71363">
        <ele>243.9</ele>
        <time>2015-07-10T15:55:45Z</time>
      </trkpt>
      <trkpt lat="64.19376" lon="-19.71364">
        <ele>244</ele>
        <time>2015-07-10T15:55:49Z</time>
      </trkpt>
      <trkpt lat="64.19371" lon="-19.71362">
        <ele>244.5</ele>
        <time>2015-07-10T15:55:53Z</time>
      </trkpt>
      <trkpt lat="64.19366" lon="-19.71365">
        <ele>244.5</ele>
        <time>2015-07-10T15:55:56Z</time>
      </trkpt>
      <trkpt lat="64.1936" lon="-19.71366">
        <ele>245</ele>
        <time>2015-07-10T15:56:02Z</time>
      </trkpt>
      <trkpt lat="64.19355" lon="-19.71366">
        <ele>245</ele>
        <time>2015-07-10T15:56:08Z</time>
      </trkpt>
      <trkpt lat="64.1935" lon="-19.71368">
        <ele>245</ele>
        <time>2015-07-10T15:56:13Z</time>
      </trkpt>
      <trkpt lat="64.19346" lon="-19.71373">
        <ele>245</ele>
        <time>2015-07-10T15:56:18Z</time>
      </trkpt>
      <trkpt lat="64.19336" lon="-19.71378">
        <ele>245</ele>
        <time>2015-07-10T15:56:26Z</time>
      </trkpt>
      <trkpt lat="64.19327" lon="-19.71387">
        <ele>245</ele>
        <time>2015-07-10T15:56:35Z</time>
      </trkpt>
      <trkpt lat="64.19318" lon="-19.71402">
        <ele>246</ele>
        <time>2015-07-10T15:56:44Z</time>
      </trkpt>
      <trkpt lat="64.19311" lon="-19.71416">
        <ele>245.1</ele>
        <time>2015-07-10T15:56:48Z</time>
      </trkpt>
      <trkpt lat="64.19303" lon="-19.71427">
        <ele>245</ele>
        <time>2015-07-10T15:56:52Z</time>
      </trkpt>
      <trkpt lat="64.19296" lon="-19.71437">
        <ele>244</ele>
        <time>2015-07-10T15:56:56Z</time>
      </trkpt>
      <trkpt lat="64.19291" lon="-19.71442">
        <ele>244</ele>
        <time>2015-07-10T15:56:59Z</time>
      </trkpt>
      <trkpt lat="64.19281" lon="-19.71438">
        <ele>243</ele>
        <time>2015-07-10T15:57:08Z</time>
      </trkpt>
      <trkpt lat="64.19273" lon="-19.71426">
        <ele>243</ele>
        <time>2015-07-10T15:57:15Z</time>
      </trkpt>
      <trkpt lat="64.19267" lon="-19.71423">
        <ele>243.9</ele>
        <time>2015-07-10T15:57:20Z</time>
      </trkpt>
      <trkpt lat="64.19262" lon="-19.71426">
        <ele>244</ele>
        <time>2015-07-10T15:57:25Z</time>
      </trkpt>
      <trkpt lat="64.19256" lon="-19.71422">
        <ele>244</ele>
        <time>2015-07-10T15:57:27Z</time>
      </trkpt>
      <trkpt lat="64.19248" lon="-19.71413">
        <ele>243.2</ele>
        <time>2015-07-10T15:57:33Z</time>
      </trkpt>
      <trkpt lat="64.19242" lon="-19.71412">
        <ele>243</ele>
        <time>2015-07-10T15:57:38Z</time>
      </trkpt>
      <trkpt lat="64.19237" lon="-19.71413">
        <ele>243</ele>
        <time>2015-07-10T15:57:41Z</time>
      </trkpt>
      <trkpt lat="64.19232" lon="-19.71407">
        <ele>243</ele>
        <time>2015-07-10T15:57:50Z</time>
      </trkpt>
      <trkpt lat="64.1923" lon="-19.71398">
        <ele>243.8</ele>
        <time>2015-07-10T15:57:59Z</time>
      </trkpt>
      <trkpt lat="64.19225" lon="-19.71396">
        <ele>244</ele>
        <time>2015-07-10T15:58:03Z</time>
      </trkpt>
      <trkpt lat="64.19225" lon="-19.71385">
        <ele>244.5</ele>
        <time>2015-07-10T15:58:07Z</time>
      </trkpt>
      <trkpt lat="64.19217" lon="-19.71358">
        <ele>245</ele>
        <time>2015-07-10T15:58:20Z</time>
      </trkpt>
      <trkpt lat="64.19211" lon="-19.71343">
        <ele>251</ele>
        <time>2015-07-10T15:58:34Z</time>
      </trkpt>
      <trkpt lat="64.19206" lon="-19.71344">
        <ele>251</ele>
        <time>2015-07-10T15:58:39Z</time>
      </trkpt>
      <trkpt lat="64.19201" lon="-19.71345">
        <ele>251</ele>
        <time>2015-07-10T15:58:45Z</time>
      </trkpt>
      <trkpt lat="64.192" lon="-19.71356">
        <ele>251</ele>
        <time>2015-07-10T15:58:51Z</time>
      </trkpt>
      <trkpt lat="64.19198" lon="-19.71366">
        <ele>251</ele>
        <time>2015-07-10T15:58:55Z</time>
      </trkpt>
      <trkpt lat="64.19192" lon="-19.71395">
        <ele>250.5</ele>
        <time>2015-07-10T15:59:05Z</time>
      </trkpt>
      <trkpt lat="64.1919" lon="-19.71404">
        <ele>243.8</ele>
        <time>2015-07-10T15:59:10Z</time>
      </trkpt>
      <trkpt lat="64.19182" lon="-19.71409">
        <ele>242.3</ele>
        <time>2015-07-10T15:59:18Z</time>
      </trkpt>
      <trkpt lat="64.19177" lon="-19.71414">
        <ele>242</ele>
        <time>2015-07-10T15:59:21Z</time>
      </trkpt>
      <trkpt lat="64.19171" lon="-19.71431">
        <ele>241</ele>
        <time>2015-07-10T15:59:29Z</time>
      </trkpt>
      <trkpt lat="64.19168" lon="-19.71439">
        <ele>241</ele>
        <time>2015-07-10T15:59:32Z</time>
      </trkpt>
      <trkpt lat="64.19165" lon="-19.71447">
        <ele>241</ele>
        <time>2015-07-10T15:59:37Z</time>
      </trkpt>
      <trkpt lat="64.1916" lon="-19.71448">
        <ele>241</ele>
        <time>2015-07-10T15:59:41Z</time>
      </trkpt>
      <trkpt lat="64.1915" lon="-19.71453">
        <ele>242</ele>
        <time>2015-07-10T15:59:48Z</time>
      </trkpt>
      <trkpt lat="64.19147" lon="-19.71462">
        <ele>242</ele>
        <time>2015-07-10T15:59:51Z</time>
      </trkpt>
      <trkpt lat="64.19145" lon="-19.71473">
        <ele>243</ele>
        <time>2015-07-10T15:59:57Z</time>
      </trkpt>
      <trkpt lat="64.19142" lon="-19.71481">
        <ele>243</ele>
        <time>2015-07-10T16:00:01Z</time>
      </trkpt>
      <trkpt lat="64.19137" lon="-19.71495">
        <ele>244</ele>
        <time>2015-07-10T16:00:09Z</time>
      </trkpt>
      <trkpt lat="64.19133" lon="-19.71516">
        <ele>244.9</ele>
        <time>2015-07-10T16:00:17Z</time>
      </trkpt>
      <trkpt lat="64.19126" lon="-19.71531">
        <ele>246</ele>
        <time>2015-07-10T16:00:24Z</time>
      </trkpt>
      <trkpt lat="64.19121" lon="-19.71536">
        <ele>246.7</ele>
        <time>2015-07-10T16:00:27Z</time>
      </trkpt>
      <trkpt lat="64.19116" lon="-19.71541">
        <ele>247</ele>
        <time>2015-07-10T16:00:34Z</time>
      </trkpt>
      <trkpt lat="64.19113" lon="-19.7155">
        <ele>247</ele>
        <time>2015-07-10T16:00:38Z</time>
      </trkpt>
      <trkpt lat="64.19103" lon="-19.71556">
        <ele>247.9</ele>
        <time>2015-07-10T16:00:43Z</time>
      </trkpt>
      <trkpt lat="64.19094" lon="-19.71548">
        <ele>249.9</ele>
        <time>2015-07-10T16:00:48Z</time>
      </trkpt>
      <trkpt lat="64.19092" lon="-19.71557">
        <ele>251.9</ele>
        <time>2015-07-10T16:00:51Z</time>
      </trkpt>
      <trkpt lat="64.1909" lon="-19.71579">
        <ele>252.9</ele>
        <time>2015-07-10T16:00:58Z</time>
      </trkpt>
      <trkpt lat="64.19088" lon="-19.71608">
        <ele>253</ele>
        <time>2015-07-10T16:01:09Z</time>
      </trkpt>
      <trkpt lat="64.19088" lon="-19.71619">
        <ele>253.9</ele>
        <time>2015-07-10T16:01:12Z</time>
      </trkpt>
      <trkpt lat="64.19085" lon="-19.71631">
        <ele>254</ele>
        <time>2015-07-10T16:01:17Z</time>
      </trkpt>
      <trkpt lat="64.19079" lon="-19.71647">
        <ele>255.7</ele>
        <time>2015-07-10T16:01:24Z</time>
      </trkpt>
      <trkpt lat="64.19075" lon="-19.71656">
        <ele>257.9</ele>
        <time>2015-07-10T16:01:30Z</time>
      </trkpt>
      <trkpt lat="64.19071" lon="-19.71664">
        <ele>258</ele>
        <time>2015-07-10T16:01:35Z</time>
      </trkpt>
      <trkpt lat="64.19061" lon="-19.71677">
        <ele>256</ele>
        <time>2015-07-10T16:01:42Z</time>
      </trkpt>
      <trkpt lat="64.19055" lon="-19.71694">
        <ele>256</ele>
        <time>2015-07-10T16:01:54Z</time>
      </trkpt>
      <trkpt lat="64.19052" lon="-19.71703">
        <ele>256</ele>
        <time>2015-07-10T16:02:01Z</time>
      </trkpt>
      <trkpt lat="64.19055" lon="-19.71725">
        <ele>252.2</ele>
        <time>2015-07-10T16:02:08Z</time>
      </trkpt>
      <trkpt lat="64.19043" lon="-19.71724">
        <ele>245.6</ele>
        <time>2015-07-10T16:02:25Z</time>
      </trkpt>
      <trkpt lat="64.19041" lon="-19.71745">
        <ele>244.1</ele>
        <time>2015-07-10T16:02:32Z</time>
      </trkpt>
      <trkpt lat="64.19032" lon="-19.71768">
        <ele>244</ele>
        <time>2015-07-10T16:02:43Z</time>
      </trkpt>
      <trkpt lat="64.19026" lon="-19.71787">
        <ele>241.4</ele>
        <time>2015-07-10T16:02:52Z</time>
      </trkpt>
      <trkpt lat="64.19021" lon="-19.71788">
        <ele>239.5</ele>
        <time>2015-07-10T16:02:53Z</time>
      </trkpt>
      <trkpt lat="64.19015" lon="-19.71793">
        <ele>239.5</ele>
        <time>2015-07-10T16:02:57Z</time>
      </trkpt>
      <trkpt lat="64.19005" lon="-19.71804">
        <ele>233.7</ele>
        <time>2015-07-10T16:03:05Z</time>
      </trkpt>
      <trkpt lat="64.19001" lon="-19.7181">
        <ele>232.3</ele>
        <time>2015-07-10T16:03:10Z</time>
      </trkpt>
      <trkpt lat="64.18989" lon="-19.71804">
        <ele>228.9</ele>
        <time>2015-07-10T16:03:19Z</time>
      </trkpt>
      <trkpt lat="64.18984" lon="-19.7182">
        <ele>227</ele>
        <time>2015-07-10T16:03:28Z</time>
      </trkpt>
      <trkpt lat="64.1898" lon="-19.71829">
        <ele>227</ele>
        <time>2015-07-10T16:03:32Z</time>
      </trkpt>
      <trkpt lat="64.18974" lon="-19.71834">
        <ele>226.1</ele>
        <time>2015-07-10T16:03:35Z</time>
      </trkpt>
      <trkpt lat="64.18968" lon="-19.71837">
        <ele>226.1</ele>
        <time>2015-07-10T16:03:37Z</time>
      </trkpt>
      <trkpt lat="64.18964" lon="-19.71841">
        <ele>226</ele>
        <time>2015-07-10T16:03:41Z</time>
      </trkpt>
      <trkpt lat="64.18961" lon="-19.71858">
        <ele>222.5</ele>
        <time>2015-07-10T16:03:50Z</time>
      </trkpt>
      <trkpt lat="64.18957" lon="-19.71877">
        <ele>222</ele>
        <time>2015-07-10T16:03:59Z</time>
      </trkpt>
      <trkpt lat="64.18951" lon="-19.71892">
        <ele>218.3</ele>
        <time>2015-07-10T16:04:05Z</time>
      </trkpt>
      <trkpt lat="64.18949" lon="-19.71902">
        <ele>218.3</ele>
        <time>2015-07-10T16:04:07Z</time>
      </trkpt>
      <trkpt lat="64.18948" lon="-19.71913">
        <ele>217</ele>
        <time>2015-07-10T16:04:12Z</time>
      </trkpt>
      <trkpt lat="64.18945" lon="-19.71923">
        <ele>217</ele>
        <time>2015-07-10T16:04:14Z</time>
      </trkpt>
      <trkpt lat="64.18937" lon="-19.71933">
        <ele>216.1</ele>
        <time>2015-07-10T16:04:23Z</time>
      </trkpt>
      <trkpt lat="64.18931" lon="-19.71951">
        <ele>214.5</ele>
        <time>2015-07-10T16:04:30Z</time>
      </trkpt>
      <trkpt lat="64.18928" lon="-19.7196">
        <ele>214</ele>
        <time>2015-07-10T16:04:36Z</time>
      </trkpt>
      <trkpt lat="64.18928" lon="-19.71974">
        <ele>213</ele>
        <time>2015-07-10T16:04:39Z</time>
      </trkpt>
      <trkpt lat="64.18928" lon="-19.71985">
        <ele>211.3</ele>
        <time>2015-07-10T16:04:43Z</time>
      </trkpt>
      <trkpt lat="64.18925" lon="-19.71996">
        <ele>211.3</ele>
        <time>2015-07-10T16:04:46Z</time>
      </trkpt>
      <trkpt lat="64.18917" lon="-19.72023">
        <ele>208.5</ele>
        <time>2015-07-10T16:04:57Z</time>
      </trkpt>
      <trkpt lat="64.18906" lon="-19.72041">
        <ele>206.1</ele>
        <time>2015-07-10T16:05:06Z</time>
      </trkpt>
      <trkpt lat="64.18904" lon="-19.72051">
        <ele>206</ele>
        <time>2015-07-10T16:05:09Z</time>
      </trkpt>
      <trkpt lat="64.18902" lon="-19.72061">
        <ele>206</ele>
        <time>2015-07-10T16:05:12Z</time>
      </trkpt>
      <trkpt lat="64.18897" lon="-19.72066">
        <ele>205</ele>
        <time>2015-07-10T16:05:20Z</time>
      </trkpt>
      <trkpt lat="64.18892" lon="-19.72068">
        <ele>204</ele>
        <time>2015-07-10T16:05:34Z</time>
      </trkpt>
      <trkpt lat="64.18888" lon="-19.72074">
        <ele>204</ele>
        <time>2015-07-10T16:05:36Z</time>
      </trkpt>
      <trkpt lat="64.18884" lon="-19.72081">
        <ele>204</ele>
        <time>2015-07-10T16:05:40Z</time>
      </trkpt>
      <trkpt lat="64.18877" lon="-19.7209">
        <ele>204</ele>
        <time>2015-07-10T16:05:43Z</time>
      </trkpt>
      <trkpt lat="64.18868" lon="-19.72106">
        <ele>203.5</ele>
        <time>2015-07-10T16:05:52Z</time>
      </trkpt>
      <trkpt lat="64.18865" lon="-19.72114">
        <ele>203</ele>
        <time>2015-07-10T16:05:56Z</time>
      </trkpt>
      <trkpt lat="64.18859" lon="-19.72123">
        <ele>201</ele>
        <time>2015-07-10T16:06:02Z</time>
      </trkpt>
      <trkpt lat="64.18855" lon="-19.72129">
        <ele>201</ele>
        <time>2015-07-10T16:06:04Z</time>
      </trkpt>
      <trkpt lat="64.18853" lon="-19.7216">
        <ele>198.2</ele>
        <time>2015-07-10T16:06:16Z</time>
      </trkpt>
      <trkpt lat="64.18852" lon="-19.72194">
        <ele>198</ele>
        <time>2015-07-10T16:06:25Z</time>
      </trkpt>
      <trkpt lat="64.18849" lon="-19.72205">
        <ele>198</ele>
        <time>2015-07-10T16:06:30Z</time>
      </trkpt>
      <trkpt lat="64.18844" lon="-19.7222">
        <ele>196.1</ele>
        <time>2015-07-10T16:06:37Z</time>
      </trkpt>
      <trkpt lat="64.18842" lon="-19.72232">
        <ele>195</ele>
        <time>2015-07-10T16:06:45Z</time>
      </trkpt>
      <trkpt lat="64.18844" lon="-19.72244">
        <ele>195</ele>
        <time>2015-07-10T16:06:48Z</time>
      </trkpt>
      <trkpt lat="64.18842" lon="-19.72255">
        <ele>194</ele>
        <time>2015-07-10T16:06:55Z</time>
      </trkpt>
      <trkpt lat="64.18831" lon="-19.72254">
        <ele>194</ele>
        <time>2015-07-10T16:06:59Z</time>
      </trkpt>
      <trkpt lat="64.18816" lon="-19.72261">
        <ele>195</ele>
        <time>2015-07-10T16:07:07Z</time>
      </trkpt>
      <trkpt lat="64.18808" lon="-19.7225">
        <ele>195</ele>
        <time>2015-07-10T16:07:14Z</time>
      </trkpt>
      <trkpt lat="64.18804" lon="-19.72232">
        <ele>195</ele>
        <time>2015-07-10T16:07:27Z</time>
      </trkpt>
      <trkpt lat="64.18801" lon="-19.72224">
        <ele>195</ele>
        <time>2015-07-10T16:07:30Z</time>
      </trkpt>
      <trkpt lat="64.18805" lon="-19.72203">
        <ele>196.8</ele>
        <time>2015-07-10T16:07:38Z</time>
      </trkpt>
      <trkpt lat="64.18807" lon="-19.72192">
        <ele>199.5</ele>
        <time>2015-07-10T16:07:44Z</time>
      </trkpt>
      <trkpt lat="64.18803" lon="-19.72199">
        <ele>201.5</ele>
        <time>2015-07-10T16:07:55Z</time>
      </trkpt>
      <trkpt lat="64.18794" lon="-19.72224">
        <ele>202.5</ele>
        <time>2015-07-10T16:08:03Z</time>
      </trkpt>
      <trkpt lat="64.18781" lon="-19.7224">
        <ele>203</ele>
        <time>2015-07-10T16:08:10Z</time>
      </trkpt>
      <trkpt lat="64.18773" lon="-19.72254">
        <ele>203</ele>
        <time>2015-07-10T16:08:20Z</time>
      </trkpt>
      <trkpt lat="64.18768" lon="-19.72263">
        <ele>202</ele>
        <time>2015-07-10T16:08:25Z</time>
      </trkpt>
      <trkpt lat="64.18762" lon="-19.72268">
        <ele>202</ele>
        <time>2015-07-10T16:08:33Z</time>
      </trkpt>
      <trkpt lat="64.18752" lon="-19.7229">
        <ele>201</ele>
        <time>2015-07-10T16:08:45Z</time>
      </trkpt>
      <trkpt lat="64.18751" lon="-19.72315">
        <ele>199.6</ele>
        <time>2015-07-10T16:08:54Z</time>
      </trkpt>
      <trkpt lat="64.18752" lon="-19.72337">
        <ele>199</ele>
        <time>2015-07-10T16:09:01Z</time>
      </trkpt>
      <trkpt lat="64.18754" lon="-19.72358">
        <ele>199</ele>
        <time>2015-07-10T16:09:07Z</time>
      </trkpt>
      <trkpt lat="64.1875" lon="-19.72375">
        <ele>199.9</ele>
        <time>2015-07-10T16:09:12Z</time>
      </trkpt>
      <trkpt lat="64.18749" lon="-19.72387">
        <ele>199.9</ele>
        <time>2015-07-10T16:09:16Z</time>
      </trkpt>
      <trkpt lat="64.18744" lon="-19.72407">
        <ele>200</ele>
        <time>2015-07-10T16:09:21Z</time>
      </trkpt>
      <trkpt lat="64.18738" lon="-19.72423">
        <ele>200</ele>
        <time>2015-07-10T16:09:30Z</time>
      </trkpt>
      <trkpt lat="64.18732" lon="-19.72422">
        <ele>200</ele>
        <time>2015-07-10T16:09:35Z</time>
      </trkpt>
      <trkpt lat="64.18727" lon="-19.72414">
        <ele>199.5</ele>
        <time>2015-07-10T16:09:40Z</time>
      </trkpt>
      <trkpt lat="64.18726" lon="-19.72428">
        <ele>199.5</ele>
        <time>2015-07-10T16:09:44Z</time>
      </trkpt>
      <trkpt lat="64.18717" lon="-19.72445">
        <ele>199</ele>
        <time>2015-07-10T16:09:51Z</time>
      </trkpt>
      <trkpt lat="64.18703" lon="-19.72455">
        <ele>199</ele>
        <time>2015-07-10T16:09:59Z</time>
      </trkpt>
      <trkpt lat="64.18692" lon="-19.7246">
        <ele>198.5</ele>
        <time>2015-07-10T16:10:05Z</time>
      </trkpt>
      <trkpt lat="64.18685" lon="-19.72466">
        <ele>195.1</ele>
        <time>2015-07-10T16:10:13Z</time>
      </trkpt>
      <trkpt lat="64.18681" lon="-19.72469">
        <ele>195.1</ele>
        <time>2015-07-10T16:10:16Z</time>
      </trkpt>
      <trkpt lat="64.18676" lon="-19.72471">
        <ele>194.5</ele>
        <time>2015-07-10T16:10:19Z</time>
      </trkpt>
      <trkpt lat="64.18664" lon="-19.7249">
        <ele>193</ele>
        <time>2015-07-10T16:10:30Z</time>
      </trkpt>
      <trkpt lat="64.18658" lon="-19.72495">
        <ele>193</ele>
        <time>2015-07-10T16:10:33Z</time>
      </trkpt>
      <trkpt lat="64.18654" lon="-19.72501">
        <ele>193</ele>
        <time>2015-07-10T16:10:36Z</time>
      </trkpt>
      <trkpt lat="64.1865" lon="-19.72506">
        <ele>191.5</ele>
        <time>2015-07-10T16:10:39Z</time>
      </trkpt>
      <trkpt lat="64.18643" lon="-19.7251">
        <ele>191.1</ele>
        <time>2015-07-10T16:10:44Z</time>
      </trkpt>
      <trkpt lat="64.18639" lon="-19.7251">
        <ele>190.5</ele>
        <time>2015-07-10T16:10:49Z</time>
      </trkpt>
      <trkpt lat="64.18632" lon="-19.72513">
        <ele>190</ele>
        <time>2015-07-10T16:10:54Z</time>
      </trkpt>
      <trkpt lat="64.18628" lon="-19.72518">
        <ele>190</ele>
        <time>2015-07-10T16:11:01Z</time>
      </trkpt>
      <trkpt lat="64.18618" lon="-19.72524">
        <ele>189.1</ele>
        <time>2015-07-10T16:11:07Z</time>
      </trkpt>
      <trkpt lat="64.18613" lon="-19.72527">
        <ele>187.5</ele>
        <time>2015-07-10T16:11:10Z</time>
      </trkpt>
      <trkpt lat="64.18609" lon="-19.72534">
        <ele>184</ele>
        <time>2015-07-10T16:11:15Z</time>
      </trkpt>
      <trkpt lat="64.18604" lon="-19.72537">
        <ele>184</ele>
        <time>2015-07-10T16:11:19Z</time>
      </trkpt>
      <trkpt lat="64.18595" lon="-19.72544">
        <ele>180</ele>
        <time>2015-07-10T16:11:27Z</time>
      </trkpt>
      <trkpt lat="64.18587" lon="-19.72546">
        <ele>180</ele>
        <time>2015-07-10T16:11:35Z</time>
      </trkpt>
      <trkpt lat="64.18582" lon="-19.72546">
        <ele>180</ele>
        <time>2015-07-10T16:11:39Z</time>
      </trkpt>
      <trkpt lat="64.18577" lon="-19.72546">
        <ele>180</ele>
        <time>2015-07-10T16:11:44Z</time>
      </trkpt>
      <trkpt lat="64.18568" lon="-19.72547">
        <ele>180</ele>
        <time>2015-07-10T16:11:51Z</time>
      </trkpt>
      <trkpt lat="64.18561" lon="-19.72541">
        <ele>183</ele>
        <time>2015-07-10T16:11:58Z</time>
      </trkpt>
      <trkpt lat="64.18556" lon="-19.72547">
        <ele>183.9</ele>
        <time>2015-07-10T16:12:04Z</time>
      </trkpt>
      <trkpt lat="64.1855" lon="-19.72549">
        <ele>184.7</ele>
        <time>2015-07-10T16:12:07Z</time>
      </trkpt>
      <trkpt lat="64.18535" lon="-19.72547">
        <ele>185</ele>
        <time>2015-07-10T16:12:20Z</time>
      </trkpt>
      <trkpt lat="64.18529" lon="-19.7255">
        <ele>185.7</ele>
        <time>2015-07-10T16:12:23Z</time>
      </trkpt>
      <trkpt lat="64.18525" lon="-19.72554">
        <ele>186</ele>
        <time>2015-07-10T16:12:32Z</time>
      </trkpt>
      <trkpt lat="64.18522" lon="-19.72574">
        <ele>186</ele>
        <time>2015-07-10T16:12:41Z</time>
      </trkpt>
      <trkpt lat="64.18521" lon="-19.72588">
        <ele>186</ele>
        <time>2015-07-10T16:12:46Z</time>
      </trkpt>
      <trkpt lat="64.18517" lon="-19.72597">
        <ele>186</ele>
        <time>2015-07-10T16:12:50Z</time>
      </trkpt>
      <trkpt lat="64.18512" lon="-19.72602">
        <ele>186</ele>
        <time>2015-07-10T16:12:54Z</time>
      </trkpt>
      <trkpt lat="64.18504" lon="-19.72611">
        <ele>185.1</ele>
        <time>2015-07-10T16:13:03Z</time>
      </trkpt>
      <trkpt lat="64.18498" lon="-19.72613">
        <ele>185.1</ele>
        <time>2015-07-10T16:13:07Z</time>
      </trkpt>
      <trkpt lat="64.18488" lon="-19.72616">
        <ele>185</ele>
        <time>2015-07-10T16:13:16Z</time>
      </trkpt>
      <trkpt lat="64.18484" lon="-19.72611">
        <ele>185</ele>
        <time>2015-07-10T16:13:29Z</time>
      </trkpt>
      <trkpt lat="64.18482" lon="-19.726">
        <ele>186</ele>
        <time>2015-07-10T16:13:43Z</time>
      </trkpt>
      <trkpt lat="64.18488" lon="-19.72594">
        <ele>188.8</ele>
        <time>2015-07-10T16:13:49Z</time>
      </trkpt>
      <trkpt lat="64.18484" lon="-19.72586">
        <ele>189.7</ele>
        <time>2015-07-10T16:13:57Z</time>
      </trkpt>
      <trkpt lat="64.18484" lon="-19.72598">
        <ele>191.9</ele>
        <time>2015-07-10T16:14:07Z</time>
      </trkpt>
      <trkpt lat="64.1848" lon="-19.72609">
        <ele>205</ele>
        <time>2015-07-10T16:14:51Z</time>
      </trkpt>
      <trkpt lat="64.18476" lon="-19.72616">
        <ele>205</ele>
        <time>2015-07-10T16:14:55Z</time>
      </trkpt>
      <trkpt lat="64.18473" lon="-19.72625">
        <ele>205</ele>
        <time>2015-07-10T16:15:00Z</time>
      </trkpt>
      <trkpt lat="64.18467" lon="-19.72641">
        <ele>205</ele>
        <time>2015-07-10T16:15:07Z</time>
      </trkpt>
      <trkpt lat="64.18463" lon="-19.72651">
        <ele>205</ele>
        <time>2015-07-10T16:15:12Z</time>
      </trkpt>
      <trkpt lat="64.1846" lon="-19.72664">
        <ele>205</ele>
        <time>2015-07-10T16:15:19Z</time>
      </trkpt>
      <trkpt lat="64.18454" lon="-19.72666">
        <ele>205</ele>
        <time>2015-07-10T16:15:23Z</time>
      </trkpt>
      <trkpt lat="64.18449" lon="-19.72668">
        <ele>205</ele>
        <time>2015-07-10T16:15:30Z</time>
      </trkpt>
      <trkpt lat="64.18443" lon="-19.72667">
        <ele>208</ele>
        <time>2015-07-10T16:15:58Z</time>
      </trkpt>
      <trkpt lat="64.18447" lon="-19.7266">
        <ele>207</ele>
        <time>2015-07-10T16:16:17Z</time>
      </trkpt>
      <trkpt lat="64.18451" lon="-19.72666">
        <ele>208</ele>
        <time>2015-07-10T16:16:20Z</time>
      </trkpt>
      <trkpt lat="64.18446" lon="-19.72667">
        <ele>208</ele>
        <time>2015-07-10T16:16:25Z</time>
      </trkpt>
      <trkpt lat="64.18441" lon="-19.72667">
        <ele>207</ele>
        <time>2015-07-10T16:16:51Z</time>
      </trkpt>
      <trkpt lat="64.18443" lon="-19.72658">
        <ele>208.5</ele>
        <time>2015-07-10T16:17:28Z</time>
      </trkpt>
      <trkpt lat="64.18457" lon="-19.72655">
        <ele>209</ele>
        <time>2015-07-10T16:17:39Z</time>
      </trkpt>
      <trkpt lat="64.1847" lon="-19.72638">
        <ele>209.9</ele>
        <time>2015-07-10T16:17:48Z</time>
      </trkpt>
      <trkpt lat="64.18464" lon="-19.72644">
        <ele>211.5</ele>
        <time>2015-07-10T16:18:10Z</time>
      </trkpt>
      <trkpt lat="64.1846" lon="-19.72641">
        <ele>212</ele>
        <time>2015-07-10T16:18:41Z</time>
      </trkpt>
      <trkpt lat="64.18455" lon="-19.72643">
        <ele>212</ele>
        <time>2015-07-10T16:18:58Z</time>
      </trkpt>
      <trkpt lat="64.1845" lon="-19.72637">
        <ele>211</ele>
        <time>2015-07-10T16:19:24Z</time>
      </trkpt>
      <trkpt lat="64.18458" lon="-19.72641">
        <ele>210</ele>
        <time>2015-07-10T16:19:34Z</time>
      </trkpt>
      <trkpt lat="64.18455" lon="-19.72652">
        <ele>208.3</ele>
        <time>2015-07-10T16:19:54Z</time>
      </trkpt>
      <trkpt lat="64.18443" lon="-19.7267">
        <ele>208</ele>
        <time>2015-07-10T16:20:01Z</time>
      </trkpt>
      <trkpt lat="64.1844" lon="-19.7268">
        <ele>206.3</ele>
        <time>2015-07-10T16:20:07Z</time>
      </trkpt>
      <trkpt lat="64.18445" lon="-19.72658">
        <ele>204.5</ele>
        <time>2015-07-10T16:20:22Z</time>
      </trkpt>
      <trkpt lat="64.18445" lon="-19.72668">
        <ele>197</ele>
        <time>2015-07-10T16:20:41Z</time>
      </trkpt>
      <trkpt lat="64.18441" lon="-19.72676">
        <ele>194</ele>
        <time>2015-07-10T16:21:01Z</time>
      </trkpt>
      <trkpt lat="64.18437" lon="-19.72674">
        <ele>196</ele>
        <time>2015-07-10T16:21:26Z</time>
      </trkpt>
      <trkpt lat="64.18433" lon="-19.72689">
        <ele>196</ele>
        <time>2015-07-10T16:21:33Z</time>
      </trkpt>
      <trkpt lat="64.18431" lon="-19.72699">
        <ele>196.9</ele>
        <time>2015-07-10T16:22:22Z</time>
      </trkpt>
      <trkpt lat="64.18426" lon="-19.727">
        <ele>197</ele>
        <time>2015-07-10T16:22:28Z</time>
      </trkpt>
      <trkpt lat="64.18422" lon="-19.72701">
        <ele>197</ele>
        <time>2015-07-10T16:22:30Z</time>
      </trkpt>
      <trkpt lat="64.18417" lon="-19.72703">
        <ele>197</ele>
        <time>2015-07-10T16:22:34Z</time>
      </trkpt>
      <trkpt lat="64.18405" lon="-19.72722">
        <ele>197</ele>
        <time>2015-07-10T16:22:46Z</time>
      </trkpt>
      <trkpt lat="64.18399" lon="-19.72737">
        <ele>197</ele>
        <time>2015-07-10T16:22:51Z</time>
      </trkpt>
      <trkpt lat="64.18398" lon="-19.72749">
        <ele>197</ele>
        <time>2015-07-10T16:22:56Z</time>
      </trkpt>
      <trkpt lat="64.18399" lon="-19.72765">
        <ele>197</ele>
        <time>2015-07-10T16:23:03Z</time>
      </trkpt>
      <trkpt lat="64.18399" lon="-19.72781">
        <ele>195</ele>
        <time>2015-07-10T16:23:10Z</time>
      </trkpt>
      <trkpt lat="64.18397" lon="-19.72791">
        <ele>195</ele>
        <time>2015-07-10T16:23:14Z</time>
      </trkpt>
      <trkpt lat="64.18394" lon="-19.72811">
        <ele>195</ele>
        <time>2015-07-10T16:23:23Z</time>
      </trkpt>
      <trkpt lat="64.18393" lon="-19.72844">
        <ele>193.1</ele>
        <time>2015-07-10T16:23:36Z</time>
      </trkpt>
      <trkpt lat="64.18389" lon="-19.72863">
        <ele>192</ele>
        <time>2015-07-10T16:23:42Z</time>
      </trkpt>
      <trkpt lat="64.18383" lon="-19.72878">
        <ele>191.1</ele>
        <time>2015-07-10T16:23:47Z</time>
      </trkpt>
      <trkpt lat="64.18374" lon="-19.72903">
        <ele>191</ele>
        <time>2015-07-10T16:23:57Z</time>
      </trkpt>
      <trkpt lat="64.18373" lon="-19.72914">
        <ele>189.6</ele>
        <time>2015-07-10T16:24:01Z</time>
      </trkpt>
      <trkpt lat="64.18374" lon="-19.72926">
        <ele>187.3</ele>
        <time>2015-07-10T16:24:05Z</time>
      </trkpt>
      <trkpt lat="64.18369" lon="-19.72936">
        <ele>185.1</ele>
        <time>2015-07-10T16:24:12Z</time>
      </trkpt>
      <trkpt lat="64.18361" lon="-19.72944">
        <ele>185</ele>
        <time>2015-07-10T16:24:21Z</time>
      </trkpt>
      <trkpt lat="64.18357" lon="-19.72952">
        <ele>184.3</ele>
        <time>2015-07-10T16:24:25Z</time>
      </trkpt>
      <trkpt lat="64.18352" lon="-19.72973">
        <ele>184</ele>
        <time>2015-07-10T16:24:34Z</time>
      </trkpt>
      <trkpt lat="64.18348" lon="-19.72979">
        <ele>184</ele>
        <time>2015-07-10T16:24:39Z</time>
      </trkpt>
      <trkpt lat="64.18343" lon="-19.72985">
        <ele>184</ele>
        <time>2015-07-10T16:24:44Z</time>
      </trkpt>
      <trkpt lat="64.18336" lon="-19.72988">
        <ele>184</ele>
        <time>2015-07-10T16:24:50Z</time>
      </trkpt>
      <trkpt lat="64.1833" lon="-19.72982">
        <ele>184.8</ele>
        <time>2015-07-10T16:24:56Z</time>
      </trkpt>
      <trkpt lat="64.18327" lon="-19.72989">
        <ele>189</ele>
        <time>2015-07-10T16:25:21Z</time>
      </trkpt>
      <trkpt lat="64.18322" lon="-19.73011">
        <ele>191.7</ele>
        <time>2015-07-10T16:25:29Z</time>
      </trkpt>
      <trkpt lat="64.18318" lon="-19.73023">
        <ele>192</ele>
        <time>2015-07-10T16:25:33Z</time>
      </trkpt>
      <trkpt lat="64.18311" lon="-19.73036">
        <ele>192</ele>
        <time>2015-07-10T16:25:44Z</time>
      </trkpt>
      <trkpt lat="64.18305" lon="-19.73043">
        <ele>193</ele>
        <time>2015-07-10T16:25:50Z</time>
      </trkpt>
      <trkpt lat="64.18302" lon="-19.73053">
        <ele>193</ele>
        <time>2015-07-10T16:25:54Z</time>
      </trkpt>
      <trkpt lat="64.18295" lon="-19.73067">
        <ele>193</ele>
        <time>2015-07-10T16:26:01Z</time>
      </trkpt>
      <trkpt lat="64.18288" lon="-19.73083">
        <ele>193</ele>
        <time>2015-07-10T16:26:08Z</time>
      </trkpt>
      <trkpt lat="64.18284" lon="-19.73089">
        <ele>193</ele>
        <time>2015-07-10T16:26:12Z</time>
      </trkpt>
      <trkpt lat="64.18273" lon="-19.73108">
        <ele>195</ele>
        <time>2015-07-10T16:26:24Z</time>
      </trkpt>
      <trkpt lat="64.18264" lon="-19.73119">
        <ele>194</ele>
        <time>2015-07-10T16:26:31Z</time>
      </trkpt>
      <trkpt lat="64.18259" lon="-19.73121">
        <ele>193</ele>
        <time>2015-07-10T16:26:35Z</time>
      </trkpt>
      <trkpt lat="64.18254" lon="-19.73127">
        <ele>193</ele>
        <time>2015-07-10T16:26:38Z</time>
      </trkpt>
      <trkpt lat="64.18246" lon="-19.73139">
        <ele>190.3</ele>
        <time>2015-07-10T16:26:50Z</time>
      </trkpt>
      <trkpt lat="64.18242" lon="-19.73147">
        <ele>190</ele>
        <time>2015-07-10T16:26:58Z</time>
      </trkpt>
      <trkpt lat="64.18242" lon="-19.7316">
        <ele>190</ele>
        <time>2015-07-10T16:27:01Z</time>
      </trkpt>
      <trkpt lat="64.18237" lon="-19.73168">
        <ele>189</ele>
        <time>2015-07-10T16:27:06Z</time>
      </trkpt>
      <trkpt lat="64.18235" lon="-19.73179">
        <ele>189</ele>
        <time>2015-07-10T16:27:12Z</time>
      </trkpt>
      <trkpt lat="64.1823" lon="-19.73192">
        <ele>189</ele>
        <time>2015-07-10T16:27:19Z</time>
      </trkpt>
      <trkpt lat="64.18225" lon="-19.73196">
        <ele>189</ele>
        <time>2015-07-10T16:27:27Z</time>
      </trkpt>
      <trkpt lat="64.1822" lon="-19.73201">
        <ele>189</ele>
        <time>2015-07-10T16:27:31Z</time>
      </trkpt>
      <trkpt lat="64.18215" lon="-19.73206">
        <ele>190.7</ele>
        <time>2015-07-10T16:27:35Z</time>
      </trkpt>
      <trkpt lat="64.18211" lon="-19.73211">
        <ele>191.8</ele>
        <time>2015-07-10T16:27:39Z</time>
      </trkpt>
      <trkpt lat="64.182" lon="-19.73232">
        <ele>192.9</ele>
        <time>2015-07-10T16:27:52Z</time>
      </trkpt>
      <trkpt lat="64.18195" lon="-19.73237">
        <ele>193</ele>
        <time>2015-07-10T16:27:55Z</time>
      </trkpt>
      <trkpt lat="64.18193" lon="-19.73249">
        <ele>193</ele>
        <time>2015-07-10T16:28:00Z</time>
      </trkpt>
      <trkpt lat="64.18191" lon="-19.73259">
        <ele>193</ele>
        <time>2015-07-10T16:28:03Z</time>
      </trkpt>
      <trkpt lat="64.18188" lon="-19.73269">
        <ele>193</ele>
        <time>2015-07-10T16:28:10Z</time>
      </trkpt>
      <trkpt lat="64.18179" lon="-19.73295">
        <ele>190</ele>
        <time>2015-07-10T16:28:26Z</time>
      </trkpt>
      <trkpt lat="64.18175" lon="-19.73305">
        <ele>190</ele>
        <time>2015-07-10T16:28:31Z</time>
      </trkpt>
      <trkpt lat="64.18171" lon="-19.73323">
        <ele>189.2</ele>
        <time>2015-07-10T16:28:37Z</time>
      </trkpt>
      <trkpt lat="64.18166" lon="-19.73332">
        <ele>189</ele>
        <time>2015-07-10T16:28:39Z</time>
      </trkpt>
      <trkpt lat="64.18161" lon="-19.73335">
        <ele>189</ele>
        <time>2015-07-10T16:28:43Z</time>
      </trkpt>
      <trkpt lat="64.18154" lon="-19.73351">
        <ele>188</ele>
        <time>2015-07-10T16:28:51Z</time>
      </trkpt>
      <trkpt lat="64.18151" lon="-19.73361">
        <ele>188</ele>
        <time>2015-07-10T16:28:59Z</time>
      </trkpt>
      <trkpt lat="64.18152" lon="-19.73374">
        <ele>188</ele>
        <time>2015-07-10T16:29:05Z</time>
      </trkpt>
      <trkpt lat="64.18147" lon="-19.73375">
        <ele>188.9</ele>
        <time>2015-07-10T16:29:10Z</time>
      </trkpt>
      <trkpt lat="64.18145" lon="-19.73362">
        <ele>189</ele>
        <time>2015-07-10T16:29:35Z</time>
      </trkpt>
      <trkpt lat="64.18144" lon="-19.73345">
        <ele>196</ele>
        <time>2015-07-10T16:30:06Z</time>
      </trkpt>
      <trkpt lat="64.18139" lon="-19.73364">
        <ele>197</ele>
        <time>2015-07-10T16:30:29Z</time>
      </trkpt>
      <trkpt lat="64.18137" lon="-19.73373">
        <ele>197</ele>
        <time>2015-07-10T16:30:32Z</time>
      </trkpt>
      <trkpt lat="64.18132" lon="-19.73383">
        <ele>198</ele>
        <time>2015-07-10T16:30:41Z</time>
      </trkpt>
      <trkpt lat="64.1813" lon="-19.73394">
        <ele>198</ele>
        <time>2015-07-10T16:30:47Z</time>
      </trkpt>
      <trkpt lat="64.18122" lon="-19.73408">
        <ele>198</ele>
        <time>2015-07-10T16:30:53Z</time>
      </trkpt>
      <trkpt lat="64.18114" lon="-19.7342">
        <ele>198</ele>
        <time>2015-07-10T16:31:01Z</time>
      </trkpt>
      <trkpt lat="64.18112" lon="-19.7343">
        <ele>199.9</ele>
        <time>2015-07-10T16:31:06Z</time>
      </trkpt>
      <trkpt lat="64.18113" lon="-19.73451">
        <ele>201</ele>
        <time>2015-07-10T16:31:25Z</time>
      </trkpt>
      <trkpt lat="64.18104" lon="-19.73453">
        <ele>202.9</ele>
        <time>2015-07-10T16:31:35Z</time>
      </trkpt>
      <trkpt lat="64.18099" lon="-19.73455">
        <ele>213.1</ele>
        <time>2015-07-10T16:31:39Z</time>
      </trkpt>
      <trkpt lat="64.18096" lon="-19.73466">
        <ele>214</ele>
        <time>2015-07-10T16:31:43Z</time>
      </trkpt>
      <trkpt lat="64.18092" lon="-19.73472">
        <ele>214</ele>
        <time>2015-07-10T16:31:47Z</time>
      </trkpt>
      <trkpt lat="64.18091" lon="-19.73483">
        <ele>214</ele>
        <time>2015-07-10T16:31:51Z</time>
      </trkpt>
      <trkpt lat="64.1809" lon="-19.73494">
        <ele>214</ele>
        <time>2015-07-10T16:31:52Z</time>
      </trkpt>
      <trkpt lat="64.18086" lon="-19.73498">
        <ele>214.9</ele>
        <time>2015-07-10T16:32:01Z</time>
      </trkpt>
      <trkpt lat="64.18077" lon="-19.73504">
        <ele>216</ele>
        <time>2015-07-10T16:32:10Z</time>
      </trkpt>
      <trkpt lat="64.18073" lon="-19.73508">
        <ele>216</ele>
        <time>2015-07-10T16:32:16Z</time>
      </trkpt>
      <trkpt lat="64.18068" lon="-19.73527">
        <ele>216.9</ele>
        <time>2015-07-10T16:32:24Z</time>
      </trkpt>
      <trkpt lat="64.1806" lon="-19.73537">
        <ele>216.2</ele>
        <time>2015-07-10T16:32:32Z</time>
      </trkpt>
      <trkpt lat="64.18054" lon="-19.73537">
        <ele>215</ele>
        <time>2015-07-10T16:32:37Z</time>
      </trkpt>
      <trkpt lat="64.18045" lon="-19.73546">
        <ele>214</ele>
        <time>2015-07-10T16:32:43Z</time>
      </trkpt>
      <trkpt lat="64.18038" lon="-19.7355">
        <ele>214</ele>
        <time>2015-07-10T16:32:47Z</time>
      </trkpt>
      <trkpt lat="64.18037" lon="-19.73562">
        <ele>212.8</ele>
        <time>2015-07-10T16:32:56Z</time>
      </trkpt>
      <trkpt lat="64.18029" lon="-19.73569">
        <ele>210.1</ele>
        <time>2015-07-10T16:33:04Z</time>
      </trkpt>
      <trkpt lat="64.18024" lon="-19.73572">
        <ele>210</ele>
        <time>2015-07-10T16:33:15Z</time>
      </trkpt>
      <trkpt lat="64.18021" lon="-19.73593">
        <ele>210</ele>
        <time>2015-07-10T16:33:23Z</time>
      </trkpt>
      <trkpt lat="64.18019" lon="-19.73605">
        <ele>210</ele>
        <time>2015-07-10T16:33:28Z</time>
      </trkpt>
      <trkpt lat="64.18021" lon="-19.73626">
        <ele>211.9</ele>
        <time>2015-07-10T16:33:37Z</time>
      </trkpt>
      <trkpt lat="64.18016" lon="-19.7363">
        <ele>212.5</ele>
        <time>2015-07-10T16:33:43Z</time>
      </trkpt>
      <trkpt lat="64.18014" lon="-19.73639">
        <ele>213.9</ele>
        <time>2015-07-10T16:33:45Z</time>
      </trkpt>
      <trkpt lat="64.1801" lon="-19.73646">
        <ele>214.5</ele>
        <time>2015-07-10T16:33:53Z</time>
      </trkpt>
      <trkpt lat="64.18008" lon="-19.73659">
        <ele>217.5</ele>
        <time>2015-07-10T16:34:01Z</time>
      </trkpt>
      <trkpt lat="64.18002" lon="-19.73687">
        <ele>228.6</ele>
        <time>2015-07-10T16:34:11Z</time>
      </trkpt>
      <trkpt lat="64.17993" lon="-19.73697">
        <ele>231</ele>
        <time>2015-07-10T16:34:25Z</time>
      </trkpt>
      <trkpt lat="64.17985" lon="-19.73713">
        <ele>231</ele>
        <time>2015-07-10T16:34:35Z</time>
      </trkpt>
      <trkpt lat="64.17981" lon="-19.73719">
        <ele>231</ele>
        <time>2015-07-10T16:34:40Z</time>
      </trkpt>
      <trkpt lat="64.17978" lon="-19.73733">
        <ele>232</ele>
        <time>2015-07-10T16:34:48Z</time>
      </trkpt>
      <trkpt lat="64.17979" lon="-19.73744">
        <ele>232</ele>
        <time>2015-07-10T16:35:02Z</time>
      </trkpt>
      <trkpt lat="64.17976" lon="-19.73754">
        <ele>232</ele>
        <time>2015-07-10T16:35:05Z</time>
      </trkpt>
      <trkpt lat="64.17969" lon="-19.73769">
        <ele>237.6</ele>
        <time>2015-07-10T16:35:12Z</time>
      </trkpt>
      <trkpt lat="64.17958" lon="-19.73771">
        <ele>240.4</ele>
        <time>2015-07-10T16:35:18Z</time>
      </trkpt>
      <trkpt lat="64.17945" lon="-19.73778">
        <ele>241</ele>
        <time>2015-07-10T16:35:27Z</time>
      </trkpt>
      <trkpt lat="64.1794" lon="-19.73777">
        <ele>241</ele>
        <time>2015-07-10T16:35:32Z</time>
      </trkpt>
      <trkpt lat="64.17936" lon="-19.73785">
        <ele>241</ele>
        <time>2015-07-10T16:35:36Z</time>
      </trkpt>
      <trkpt lat="64.17931" lon="-19.73803">
        <ele>241</ele>
        <time>2015-07-10T16:35:43Z</time>
      </trkpt>
      <trkpt lat="64.17926" lon="-19.73806">
        <ele>241</ele>
        <time>2015-07-10T16:35:47Z</time>
      </trkpt>
      <trkpt lat="64.17916" lon="-19.7381">
        <ele>239.1</ele>
        <time>2015-07-10T16:35:55Z</time>
      </trkpt>
      <trkpt lat="64.17907" lon="-19.73832">
        <ele>238.1</ele>
        <time>2015-07-10T16:36:07Z</time>
      </trkpt>
      <trkpt lat="64.17898" lon="-19.73841">
        <ele>238</ele>
        <time>2015-07-10T16:36:14Z</time>
      </trkpt>
      <trkpt lat="64.17892" lon="-19.73846">
        <ele>238</ele>
        <time>2015-07-10T16:36:19Z</time>
      </trkpt>
      <trkpt lat="64.17887" lon="-19.7385">
        <ele>238</ele>
        <time>2015-07-10T16:36:22Z</time>
      </trkpt>
      <trkpt lat="64.17884" lon="-19.73857">
        <ele>238</ele>
        <time>2015-07-10T16:36:28Z</time>
      </trkpt>
      <trkpt lat="64.17884" lon="-19.73869">
        <ele>238.8</ele>
        <time>2015-07-10T16:36:36Z</time>
      </trkpt>
      <trkpt lat="64.17879" lon="-19.73888">
        <ele>239</ele>
        <time>2015-07-10T16:36:44Z</time>
      </trkpt>
      <trkpt lat="64.17875" lon="-19.73897">
        <ele>239.9</ele>
        <time>2015-07-10T16:36:49Z</time>
      </trkpt>
      <trkpt lat="64.1787" lon="-19.73897">
        <ele>241.6</ele>
        <time>2015-07-10T16:36:54Z</time>
      </trkpt>
      <trkpt lat="64.17866" lon="-19.7389">
        <ele>241.9</ele>
        <time>2015-07-10T16:36:58Z</time>
      </trkpt>
      <trkpt lat="64.17866" lon="-19.73902">
        <ele>243</ele>
        <time>2015-07-10T16:37:04Z</time>
      </trkpt>
      <trkpt lat="64.17864" lon="-19.73916">
        <ele>243</ele>
        <time>2015-07-10T16:37:09Z</time>
      </trkpt>
      <trkpt lat="64.17865" lon="-19.73926">
        <ele>243</ele>
        <time>2015-07-10T16:37:15Z</time>
      </trkpt>
      <trkpt lat="64.17862" lon="-19.73938">
        <ele>243</ele>
        <time>2015-07-10T16:37:19Z</time>
      </trkpt>
      <trkpt lat="64.17855" lon="-19.7395">
        <ele>243</ele>
        <time>2015-07-10T16:37:29Z</time>
      </trkpt>
      <trkpt lat="64.17851" lon="-19.73956">
        <ele>243</ele>
        <time>2015-07-10T16:37:33Z</time>
      </trkpt>
      <trkpt lat="64.17848" lon="-19.73965">
        <ele>243</ele>
        <time>2015-07-10T16:37:35Z</time>
      </trkpt>
      <trkpt lat="64.17844" lon="-19.73985">
        <ele>241.5</ele>
        <time>2015-07-10T16:37:44Z</time>
      </trkpt>
      <trkpt lat="64.17841" lon="-19.73993">
        <ele>240.5</ele>
        <time>2015-07-10T16:37:47Z</time>
      </trkpt>
      <trkpt lat="64.17836" lon="-19.73994">
        <ele>240.1</ele>
        <time>2015-07-10T16:37:51Z</time>
      </trkpt>
      <trkpt lat="64.17831" lon="-19.73994">
        <ele>239.1</ele>
        <time>2015-07-10T16:37:56Z</time>
      </trkpt>
      <trkpt lat="64.17827" lon="-19.73995">
        <ele>238.1</ele>
        <time>2015-07-10T16:38:06Z</time>
      </trkpt>
      <trkpt lat="64.17824" lon="-19.74004">
        <ele>237</ele>
        <time>2015-07-10T16:38:14Z</time>
      </trkpt>
      <trkpt lat="64.17821" lon="-19.74013">
        <ele>235.5</ele>
        <time>2015-07-10T16:38:22Z</time>
      </trkpt>
      <trkpt lat="64.17821" lon="-19.74035">
        <ele>235</ele>
        <time>2015-07-10T16:38:32Z</time>
      </trkpt>
      <trkpt lat="64.17822" lon="-19.74047">
        <ele>235</ele>
        <time>2015-07-10T16:38:37Z</time>
      </trkpt>
      <trkpt lat="64.1782" lon="-19.74058">
        <ele>234.2</ele>
        <time>2015-07-10T16:38:42Z</time>
      </trkpt>
      <trkpt lat="64.17814" lon="-19.74075">
        <ele>234</ele>
        <time>2015-07-10T16:38:50Z</time>
      </trkpt>
      <trkpt lat="64.1781" lon="-19.74083">
        <ele>234</ele>
        <time>2015-07-10T16:38:53Z</time>
      </trkpt>
      <trkpt lat="64.17809" lon="-19.74096">
        <ele>233.2</ele>
        <time>2015-07-10T16:38:58Z</time>
      </trkpt>
      <trkpt lat="64.17812" lon="-19.74106">
        <ele>233</ele>
        <time>2015-07-10T16:39:02Z</time>
      </trkpt>
      <trkpt lat="64.1781" lon="-19.74118">
        <ele>233</ele>
        <time>2015-07-10T16:39:07Z</time>
      </trkpt>
      <trkpt lat="64.17809" lon="-19.74131">
        <ele>230.6</ele>
        <time>2015-07-10T16:39:12Z</time>
      </trkpt>
      <trkpt lat="64.17808" lon="-19.74143">
        <ele>230.6</ele>
        <time>2015-07-10T16:39:15Z</time>
      </trkpt>
      <trkpt lat="64.17803" lon="-19.74164">
        <ele>228</ele>
        <time>2015-07-10T16:39:24Z</time>
      </trkpt>
      <trkpt lat="64.17802" lon="-19.74176">
        <ele>228</ele>
        <time>2015-07-10T16:39:28Z</time>
      </trkpt>
      <trkpt lat="64.178" lon="-19.74187">
        <ele>228</ele>
        <time>2015-07-10T16:39:33Z</time>
      </trkpt>
      <trkpt lat="64.17797" lon="-19.74195">
        <ele>228</ele>
        <time>2015-07-10T16:39:39Z</time>
      </trkpt>
      <trkpt lat="64.17792" lon="-19.74215">
        <ele>228.9</ele>
        <time>2015-07-10T16:39:46Z</time>
      </trkpt>
      <trkpt lat="64.17787" lon="-19.74235">
        <ele>230.5</ele>
        <time>2015-07-10T16:39:54Z</time>
      </trkpt>
      <trkpt lat="64.17784" lon="-19.74243">
        <ele>231</ele>
        <time>2015-07-10T16:40:00Z</time>
      </trkpt>
      <trkpt lat="64.17777" lon="-19.74259">
        <ele>231</ele>
        <time>2015-07-10T16:40:07Z</time>
      </trkpt>
      <trkpt lat="64.17775" lon="-19.7427">
        <ele>232</ele>
        <time>2015-07-10T16:40:11Z</time>
      </trkpt>
      <trkpt lat="64.17771" lon="-19.74278">
        <ele>232</ele>
        <time>2015-07-10T16:40:15Z</time>
      </trkpt>
      <trkpt lat="64.17768" lon="-19.74286">
        <ele>232.5</ele>
        <time>2015-07-10T16:40:20Z</time>
      </trkpt>
      <trkpt lat="64.17761" lon="-19.74298">
        <ele>233</ele>
        <time>2015-07-10T16:40:27Z</time>
      </trkpt>
      <trkpt lat="64.17756" lon="-19.74299">
        <ele>233</ele>
        <time>2015-07-10T16:40:37Z</time>
      </trkpt>
      <trkpt lat="64.17743" lon="-19.7431">
        <ele>234</ele>
        <time>2015-07-10T16:40:48Z</time>
      </trkpt>
      <trkpt lat="64.17738" lon="-19.74316">
        <ele>234</ele>
        <time>2015-07-10T16:40:52Z</time>
      </trkpt>
      <trkpt lat="64.17735" lon="-19.74323">
        <ele>234</ele>
        <time>2015-07-10T16:40:55Z</time>
      </trkpt>
      <trkpt lat="64.1773" lon="-19.74321">
        <ele>234</ele>
        <time>2015-07-10T16:41:10Z</time>
      </trkpt>
      <trkpt lat="64.17726" lon="-19.74326">
        <ele>234</ele>
        <time>2015-07-10T16:41:16Z</time>
      </trkpt>
      <trkpt lat="64.17721" lon="-19.74344">
        <ele>234</ele>
        <time>2015-07-10T16:41:22Z</time>
      </trkpt>
      <trkpt lat="64.17718" lon="-19.74355">
        <ele>234</ele>
        <time>2015-07-10T16:41:25Z</time>
      </trkpt>
      <trkpt lat="64.17713" lon="-19.74361">
        <ele>234</ele>
        <time>2015-07-10T16:41:30Z</time>
      </trkpt>
      <trkpt lat="64.177" lon="-19.7437">
        <ele>235</ele>
        <time>2015-07-10T16:41:41Z</time>
      </trkpt>
      <trkpt lat="64.17697" lon="-19.74379">
        <ele>236</ele>
        <time>2015-07-10T16:41:49Z</time>
      </trkpt>
      <trkpt lat="64.17692" lon="-19.74377">
        <ele>236</ele>
        <time>2015-07-10T16:41:53Z</time>
      </trkpt>
      <trkpt lat="64.17687" lon="-19.74383">
        <ele>236</ele>
        <time>2015-07-10T16:41:57Z</time>
      </trkpt>
      <trkpt lat="64.1768" lon="-19.74398">
        <ele>236</ele>
        <time>2015-07-10T16:42:02Z</time>
      </trkpt>
      <trkpt lat="64.17676" lon="-19.74407">
        <ele>236</ele>
        <time>2015-07-10T16:42:07Z</time>
      </trkpt>
      <trkpt lat="64.17669" lon="-19.74436">
        <ele>235.2</ele>
        <time>2015-07-10T16:42:17Z</time>
      </trkpt>
      <trkpt lat="64.17657" lon="-19.74451">
        <ele>229.9</ele>
        <time>2015-07-10T16:42:25Z</time>
      </trkpt>
      <trkpt lat="64.17653" lon="-19.74457">
        <ele>228</ele>
        <time>2015-07-10T16:42:29Z</time>
      </trkpt>
      <trkpt lat="64.1765" lon="-19.74465">
        <ele>228</ele>
        <time>2015-07-10T16:42:33Z</time>
      </trkpt>
      <trkpt lat="64.17648" lon="-19.74475">
        <ele>227.1</ele>
        <time>2015-07-10T16:42:36Z</time>
      </trkpt>
      <trkpt lat="64.17644" lon="-19.74495">
        <ele>227</ele>
        <time>2015-07-10T16:42:43Z</time>
      </trkpt>
      <trkpt lat="64.1764" lon="-19.74505">
        <ele>227</ele>
        <time>2015-07-10T16:42:48Z</time>
      </trkpt>
      <trkpt lat="64.17637" lon="-19.74513">
        <ele>227</ele>
        <time>2015-07-10T16:42:50Z</time>
      </trkpt>
      <trkpt lat="64.17634" lon="-19.74521">
        <ele>226.1</ele>
        <time>2015-07-10T16:42:54Z</time>
      </trkpt>
      <trkpt lat="64.17629" lon="-19.74532">
        <ele>226</ele>
        <time>2015-07-10T16:43:00Z</time>
      </trkpt>
      <trkpt lat="64.17624" lon="-19.74551">
        <ele>225</ele>
        <time>2015-07-10T16:43:08Z</time>
      </trkpt>
      <trkpt lat="64.17618" lon="-19.74558">
        <ele>225</ele>
        <time>2015-07-10T16:43:14Z</time>
      </trkpt>
      <trkpt lat="64.17609" lon="-19.74562">
        <ele>224</ele>
        <time>2015-07-10T16:43:20Z</time>
      </trkpt>
      <trkpt lat="64.17604" lon="-19.7456">
        <ele>224</ele>
        <time>2015-07-10T16:43:25Z</time>
      </trkpt>
      <trkpt lat="64.17601" lon="-19.74568">
        <ele>223.3</ele>
        <time>2015-07-10T16:43:30Z</time>
      </trkpt>
      <trkpt lat="64.17599" lon="-19.74578">
        <ele>223</ele>
        <time>2015-07-10T16:43:35Z</time>
      </trkpt>
      <trkpt lat="64.17595" lon="-19.74583">
        <ele>222.5</ele>
        <time>2015-07-10T16:43:37Z</time>
      </trkpt>
      <trkpt lat="64.1759" lon="-19.74586">
        <ele>221.3</ele>
        <time>2015-07-10T16:43:42Z</time>
      </trkpt>
      <trkpt lat="64.17582" lon="-19.74598">
        <ele>221</ele>
        <time>2015-07-10T16:43:49Z</time>
      </trkpt>
      <trkpt lat="64.17578" lon="-19.74604">
        <ele>221</ele>
        <time>2015-07-10T16:43:54Z</time>
      </trkpt>
      <trkpt lat="64.17575" lon="-19.74624">
        <ele>221</ele>
        <time>2015-07-10T16:44:00Z</time>
      </trkpt>
      <trkpt lat="64.17572" lon="-19.74635">
        <ele>221</ele>
        <time>2015-07-10T16:44:04Z</time>
      </trkpt>
      <trkpt lat="64.17567" lon="-19.74641">
        <ele>221</ele>
        <time>2015-07-10T16:44:09Z</time>
      </trkpt>
      <trkpt lat="64.17554" lon="-19.74656">
        <ele>221</ele>
        <time>2015-07-10T16:44:17Z</time>
      </trkpt>
      <trkpt lat="64.17544" lon="-19.74668">
        <ele>221</ele>
        <time>2015-07-10T16:44:23Z</time>
      </trkpt>
      <trkpt lat="64.17541" lon="-19.74675">
        <ele>221</ele>
        <time>2015-07-10T16:44:27Z</time>
      </trkpt>
      <trkpt lat="64.17538" lon="-19.74684">
        <ele>221</ele>
        <time>2015-07-10T16:44:30Z</time>
      </trkpt>
      <trkpt lat="64.17533" lon="-19.74691">
        <ele>221</ele>
        <time>2015-07-10T16:44:35Z</time>
      </trkpt>
      <trkpt lat="64.17527" lon="-19.74707">
        <ele>221</ele>
        <time>2015-07-10T16:44:42Z</time>
      </trkpt>
      <trkpt lat="64.17523" lon="-19.74737">
        <ele>220.1</ele>
        <time>2015-07-10T16:44:53Z</time>
      </trkpt>
      <trkpt lat="64.17514" lon="-19.7476">
        <ele>220</ele>
        <time>2015-07-10T16:45:03Z</time>
      </trkpt>
      <trkpt lat="64.17506" lon="-19.74772">
        <ele>219</ele>
        <time>2015-07-10T16:45:10Z</time>
      </trkpt>
      <trkpt lat="64.17504" lon="-19.74781">
        <ele>219</ele>
        <time>2015-07-10T16:45:14Z</time>
      </trkpt>
      <trkpt lat="64.17499" lon="-19.74803">
        <ele>219</ele>
        <time>2015-07-10T16:45:21Z</time>
      </trkpt>
      <trkpt lat="64.17489" lon="-19.74829">
        <ele>219</ele>
        <time>2015-07-10T16:45:34Z</time>
      </trkpt>
      <trkpt lat="64.17483" lon="-19.74834">
        <ele>219</ele>
        <time>2015-07-10T16:45:37Z</time>
      </trkpt>
      <trkpt lat="64.17473" lon="-19.74838">
        <ele>219.9</ele>
        <time>2015-07-10T16:45:45Z</time>
      </trkpt>
      <trkpt lat="64.17467" lon="-19.74838">
        <ele>220.9</ele>
        <time>2015-07-10T16:45:49Z</time>
      </trkpt>
      <trkpt lat="64.17463" lon="-19.74834">
        <ele>221</ele>
        <time>2015-07-10T16:45:54Z</time>
      </trkpt>
      <trkpt lat="64.17457" lon="-19.74834">
        <ele>221</ele>
        <time>2015-07-10T16:45:57Z</time>
      </trkpt>
      <trkpt lat="64.17452" lon="-19.74835">
        <ele>221</ele>
        <time>2015-07-10T16:46:01Z</time>
      </trkpt>
      <trkpt lat="64.17446" lon="-19.7484">
        <ele>221</ele>
        <time>2015-07-10T16:46:05Z</time>
      </trkpt>
      <trkpt lat="64.17442" lon="-19.74844">
        <ele>221</ele>
        <time>2015-07-10T16:46:09Z</time>
      </trkpt>
      <trkpt lat="64.17433" lon="-19.74851">
        <ele>221</ele>
        <time>2015-07-10T16:46:15Z</time>
      </trkpt>
      <trkpt lat="64.17429" lon="-19.7486">
        <ele>221</ele>
        <time>2015-07-10T16:46:20Z</time>
      </trkpt>
      <trkpt lat="64.17426" lon="-19.74871">
        <ele>221</ele>
        <time>2015-07-10T16:46:24Z</time>
      </trkpt>
      <trkpt lat="64.17423" lon="-19.74878">
        <ele>221</ele>
        <time>2015-07-10T16:46:28Z</time>
      </trkpt>
      <trkpt lat="64.17416" lon="-19.74892">
        <ele>220.1</ele>
        <time>2015-07-10T16:46:35Z</time>
      </trkpt>
      <trkpt lat="64.17411" lon="-19.74924">
        <ele>220</ele>
        <time>2015-07-10T16:46:45Z</time>
      </trkpt>
      <trkpt lat="64.17409" lon="-19.74947">
        <ele>220</ele>
        <time>2015-07-10T16:46:51Z</time>
      </trkpt>
      <trkpt lat="64.17406" lon="-19.74958">
        <ele>220</ele>
        <time>2015-07-10T16:46:55Z</time>
      </trkpt>
      <trkpt lat="64.17402" lon="-19.74967">
        <ele>220.5</ele>
        <time>2015-07-10T16:46:58Z</time>
      </trkpt>
      <trkpt lat="64.17398" lon="-19.74976">
        <ele>220.9</ele>
        <time>2015-07-10T16:47:04Z</time>
      </trkpt>
      <trkpt lat="64.17386" lon="-19.74995">
        <ele>221</ele>
        <time>2015-07-10T16:47:15Z</time>
      </trkpt>
      <trkpt lat="64.1738" lon="-19.75">
        <ele>221</ele>
        <time>2015-07-10T16:47:19Z</time>
      </trkpt>
      <trkpt lat="64.17374" lon="-19.75003">
        <ele>221.5</ele>
        <time>2015-07-10T16:47:24Z</time>
      </trkpt>
      <trkpt lat="64.17369" lon="-19.75008">
        <ele>222</ele>
        <time>2015-07-10T16:47:28Z</time>
      </trkpt>
      <trkpt lat="64.17367" lon="-19.75017">
        <ele>222.9</ele>
        <time>2015-07-10T16:47:32Z</time>
      </trkpt>
      <trkpt lat="64.17363" lon="-19.75023">
        <ele>224</ele>
        <time>2015-07-10T16:47:50Z</time>
      </trkpt>
      <trkpt lat="64.17357" lon="-19.75027">
        <ele>224</ele>
        <time>2015-07-10T16:47:55Z</time>
      </trkpt>
      <trkpt lat="64.17349" lon="-19.75035">
        <ele>226.2</ele>
        <time>2015-07-10T16:48:01Z</time>
      </trkpt>
      <trkpt lat="64.17344" lon="-19.7504">
        <ele>227</ele>
        <time>2015-07-10T16:48:07Z</time>
      </trkpt>
      <trkpt lat="64.17335" lon="-19.75044">
        <ele>227</ele>
        <time>2015-07-10T16:48:12Z</time>
      </trkpt>
      <trkpt lat="64.17327" lon="-19.75047">
        <ele>228</ele>
        <time>2015-07-10T16:48:20Z</time>
      </trkpt>
      <trkpt lat="64.1732" lon="-19.75044">
        <ele>228</ele>
        <time>2015-07-10T16:48:25Z</time>
      </trkpt>
      <trkpt lat="64.17307" lon="-19.75039">
        <ele>227.5</ele>
        <time>2015-07-10T16:48:37Z</time>
      </trkpt>
      <trkpt lat="64.17299" lon="-19.75029">
        <ele>227</ele>
        <time>2015-07-10T16:48:44Z</time>
      </trkpt>
      <trkpt lat="64.17288" lon="-19.7503">
        <ele>226.3</ele>
        <time>2015-07-10T16:48:49Z</time>
      </trkpt>
      <trkpt lat="64.17278" lon="-19.75025">
        <ele>225.5</ele>
        <time>2015-07-10T16:48:53Z</time>
      </trkpt>
      <trkpt lat="64.17272" lon="-19.75025">
        <ele>225</ele>
        <time>2015-07-10T16:48:58Z</time>
      </trkpt>
      <trkpt lat="64.17266" lon="-19.75022">
        <ele>225</ele>
        <time>2015-07-10T16:49:02Z</time>
      </trkpt>
      <trkpt lat="64.1726" lon="-19.75019">
        <ele>220.1</ele>
        <time>2015-07-10T16:49:17Z</time>
      </trkpt>
      <trkpt lat="64.17254" lon="-19.75019">
        <ele>220</ele>
        <time>2015-07-10T16:49:22Z</time>
      </trkpt>
      <trkpt lat="64.17246" lon="-19.75021">
        <ele>218.3</ele>
        <time>2015-07-10T16:49:27Z</time>
      </trkpt>
      <trkpt lat="64.17232" lon="-19.75018">
        <ele>217.3</ele>
        <time>2015-07-10T16:49:35Z</time>
      </trkpt>
      <trkpt lat="64.17227" lon="-19.75016">
        <ele>216</ele>
        <time>2015-07-10T16:49:37Z</time>
      </trkpt>
      <trkpt lat="64.17214" lon="-19.75018">
        <ele>213.3</ele>
        <time>2015-07-10T16:49:49Z</time>
      </trkpt>
      <trkpt lat="64.17205" lon="-19.75023">
        <ele>211.1</ele>
        <time>2015-07-10T16:49:57Z</time>
      </trkpt>
      <trkpt lat="64.17195" lon="-19.75024">
        <ele>211</ele>
        <time>2015-07-10T16:50:04Z</time>
      </trkpt>
      <trkpt lat="64.17189" lon="-19.75026">
        <ele>210</ele>
        <time>2015-07-10T16:50:06Z</time>
      </trkpt>
      <trkpt lat="64.17184" lon="-19.75027">
        <ele>210</ele>
        <time>2015-07-10T16:50:10Z</time>
      </trkpt>
      <trkpt lat="64.17174" lon="-19.75028">
        <ele>210</ele>
        <time>2015-07-10T16:50:16Z</time>
      </trkpt>
      <trkpt lat="64.17164" lon="-19.75031">
        <ele>210</ele>
        <time>2015-07-10T16:50:23Z</time>
      </trkpt>
      <trkpt lat="64.17158" lon="-19.75032">
        <ele>209</ele>
        <time>2015-07-10T16:50:31Z</time>
      </trkpt>
      <trkpt lat="64.17154" lon="-19.75037">
        <ele>209</ele>
        <time>2015-07-10T16:50:35Z</time>
      </trkpt>
      <trkpt lat="64.17145" lon="-19.75044">
        <ele>208</ele>
        <time>2015-07-10T16:50:41Z</time>
      </trkpt>
      <trkpt lat="64.1714" lon="-19.75041">
        <ele>208</ele>
        <time>2015-07-10T16:50:45Z</time>
      </trkpt>
      <trkpt lat="64.17135" lon="-19.75039">
        <ele>207.3</ele>
        <time>2015-07-10T16:50:51Z</time>
      </trkpt>
      <trkpt lat="64.17128" lon="-19.75032">
        <ele>207</ele>
        <time>2015-07-10T16:50:57Z</time>
      </trkpt>
      <trkpt lat="64.17123" lon="-19.75037">
        <ele>207</ele>
        <time>2015-07-10T16:51:00Z</time>
      </trkpt>
      <trkpt lat="64.17118" lon="-19.75043">
        <ele>207</ele>
        <time>2015-07-10T16:51:05Z</time>
      </trkpt>
      <trkpt lat="64.17115" lon="-19.75052">
        <ele>206.2</ele>
        <time>2015-07-10T16:51:08Z</time>
      </trkpt>
      <trkpt lat="64.17107" lon="-19.75063">
        <ele>204.1</ele>
        <time>2015-07-10T16:51:18Z</time>
      </trkpt>
      <trkpt lat="64.17098" lon="-19.7506">
        <ele>204</ele>
        <time>2015-07-10T16:51:24Z</time>
      </trkpt>
      <trkpt lat="64.17092" lon="-19.7506">
        <ele>203.3</ele>
        <time>2015-07-10T16:51:28Z</time>
      </trkpt>
      <trkpt lat="64.17088" lon="-19.75059">
        <ele>203</ele>
        <time>2015-07-10T16:51:35Z</time>
      </trkpt>
      <trkpt lat="64.17078" lon="-19.75063">
        <ele>203</ele>
        <time>2015-07-10T16:51:42Z</time>
      </trkpt>
      <trkpt lat="64.17072" lon="-19.75063">
        <ele>202.1</ele>
        <time>2015-07-10T16:51:44Z</time>
      </trkpt>
      <trkpt lat="64.17063" lon="-19.75065">
        <ele>201.3</ele>
        <time>2015-07-10T16:51:50Z</time>
      </trkpt>
      <trkpt lat="64.17055" lon="-19.75068">
        <ele>201</ele>
        <time>2015-07-10T16:51:55Z</time>
      </trkpt>
      <trkpt lat="64.1705" lon="-19.75071">
        <ele>201</ele>
        <time>2015-07-10T16:52:00Z</time>
      </trkpt>
      <trkpt lat="64.17044" lon="-19.75073">
        <ele>201.5</ele>
        <time>2015-07-10T16:52:05Z</time>
      </trkpt>
      <trkpt lat="64.1704" lon="-19.75072">
        <ele>202.9</ele>
        <time>2015-07-10T16:52:09Z</time>
      </trkpt>
      <trkpt lat="64.17035" lon="-19.75074">
        <ele>202.9</ele>
        <time>2015-07-10T16:52:13Z</time>
      </trkpt>
      <trkpt lat="64.1703" lon="-19.75076">
        <ele>203</ele>
        <time>2015-07-10T16:52:16Z</time>
      </trkpt>
      <trkpt lat="64.17026" lon="-19.75074">
        <ele>203</ele>
        <time>2015-07-10T16:52:18Z</time>
      </trkpt>
      <trkpt lat="64.17021" lon="-19.75073">
        <ele>202.2</ele>
        <time>2015-07-10T16:52:23Z</time>
      </trkpt>
      <trkpt lat="64.17016" lon="-19.75079">
        <ele>201</ele>
        <time>2015-07-10T16:52:30Z</time>
      </trkpt>
      <trkpt lat="64.17012" lon="-19.75086">
        <ele>201</ele>
        <time>2015-07-10T16:52:35Z</time>
      </trkpt>
      <trkpt lat="64.17009" lon="-19.75097">
        <ele>200.1</ele>
        <time>2015-07-10T16:52:40Z</time>
      </trkpt>
      <trkpt lat="64.17005" lon="-19.75105">
        <ele>200.1</ele>
        <time>2015-07-10T16:52:43Z</time>
      </trkpt>
      <trkpt lat="64.16996" lon="-19.75112">
        <ele>200</ele>
        <time>2015-07-10T16:52:49Z</time>
      </trkpt>
      <trkpt lat="64.16983" lon="-19.75111">
        <ele>200</ele>
        <time>2015-07-10T16:52:59Z</time>
      </trkpt>
      <trkpt lat="64.16978" lon="-19.75107">
        <ele>200</ele>
        <time>2015-07-10T16:53:04Z</time>
      </trkpt>
      <trkpt lat="64.16973" lon="-19.75108">
        <ele>200</ele>
        <time>2015-07-10T16:53:09Z</time>
      </trkpt>
      <trkpt lat="64.16968" lon="-19.75106">
        <ele>200</ele>
        <time>2015-07-10T16:53:13Z</time>
      </trkpt>
      <trkpt lat="64.16964" lon="-19.75107">
        <ele>200</ele>
        <time>2015-07-10T16:53:18Z</time>
      </trkpt>
      <trkpt lat="64.16959" lon="-19.75107">
        <ele>200</ele>
        <time>2015-07-10T16:53:22Z</time>
      </trkpt>
      <trkpt lat="64.16953" lon="-19.75107">
        <ele>200</ele>
        <time>2015-07-10T16:53:27Z</time>
      </trkpt>
      <trkpt lat="64.16948" lon="-19.75111">
        <ele>200</ele>
        <time>2015-07-10T16:53:31Z</time>
      </trkpt>
      <trkpt lat="64.16944" lon="-19.75113">
        <ele>200.5</ele>
        <time>2015-07-10T16:53:36Z</time>
      </trkpt>
      <trkpt lat="64.1693" lon="-19.7511">
        <ele>201</ele>
        <time>2015-07-10T16:53:45Z</time>
      </trkpt>
      <trkpt lat="64.16925" lon="-19.75106">
        <ele>203.2</ele>
        <time>2015-07-10T16:53:49Z</time>
      </trkpt>
      <trkpt lat="64.1692" lon="-19.75102">
        <ele>205.4</ele>
        <time>2015-07-10T16:53:55Z</time>
      </trkpt>
      <trkpt lat="64.16915" lon="-19.75105">
        <ele>205.9</ele>
        <time>2015-07-10T16:53:59Z</time>
      </trkpt>
      <trkpt lat="64.16908" lon="-19.75104">
        <ele>208.8</ele>
        <time>2015-07-10T16:54:06Z</time>
      </trkpt>
      <trkpt lat="64.16903" lon="-19.75104">
        <ele>209</ele>
        <time>2015-07-10T16:54:10Z</time>
      </trkpt>
      <trkpt lat="64.16894" lon="-19.75107">
        <ele>210</ele>
        <time>2015-07-10T16:54:16Z</time>
      </trkpt>
      <trkpt lat="64.16889" lon="-19.75111">
        <ele>210</ele>
        <time>2015-07-10T16:54:21Z</time>
      </trkpt>
      <trkpt lat="64.16884" lon="-19.7511">
        <ele>210</ele>
        <time>2015-07-10T16:54:27Z</time>
      </trkpt>
      <trkpt lat="64.16879" lon="-19.75112">
        <ele>210.8</ele>
        <time>2015-07-10T16:54:32Z</time>
      </trkpt>
      <trkpt lat="64.16873" lon="-19.7511">
        <ele>211</ele>
        <time>2015-07-10T16:54:37Z</time>
      </trkpt>
      <trkpt lat="64.16869" lon="-19.75105">
        <ele>211</ele>
        <time>2015-07-10T16:54:41Z</time>
      </trkpt>
      <trkpt lat="64.16863" lon="-19.75103">
        <ele>211</ele>
        <time>2015-07-10T16:54:45Z</time>
      </trkpt>
      <trkpt lat="64.16858" lon="-19.75102">
        <ele>211.8</ele>
        <time>2015-07-10T16:54:50Z</time>
      </trkpt>
      <trkpt lat="64.16853" lon="-19.75099">
        <ele>212</ele>
        <time>2015-07-10T16:54:53Z</time>
      </trkpt>
      <trkpt lat="64.16859" lon="-19.75101">
        <ele>213</ele>
        <time>2015-07-10T16:55:31Z</time>
      </trkpt>
      <trkpt lat="64.16853" lon="-19.75102">
        <ele>209</ele>
        <time>2015-07-10T16:56:19Z</time>
      </trkpt>
      <trkpt lat="64.16849" lon="-19.751">
        <ele>208</ele>
        <time>2015-07-10T16:56:22Z</time>
      </trkpt>
      <trkpt lat="64.16835" lon="-19.75098">
        <ele>208</ele>
        <time>2015-07-10T16:56:35Z</time>
      </trkpt>
      <trkpt lat="64.16821" lon="-19.751">
        <ele>209</ele>
        <time>2015-07-10T16:56:49Z</time>
      </trkpt>
      <trkpt lat="64.16812" lon="-19.75107">
        <ele>209</ele>
        <time>2015-07-10T16:56:57Z</time>
      </trkpt>
      <trkpt lat="64.16806" lon="-19.75107">
        <ele>209</ele>
        <time>2015-07-10T16:57:02Z</time>
      </trkpt>
      <trkpt lat="64.16793" lon="-19.75101">
        <ele>209</ele>
        <time>2015-07-10T16:57:12Z</time>
      </trkpt>
      <trkpt lat="64.1678" lon="-19.7509">
        <ele>210.7</ele>
        <time>2015-07-10T16:57:23Z</time>
      </trkpt>
      <trkpt lat="64.16773" lon="-19.75088">
        <ele>211</ele>
        <time>2015-07-10T16:57:30Z</time>
      </trkpt>
      <trkpt lat="64.16765" lon="-19.75081">
        <ele>211</ele>
        <time>2015-07-10T16:57:35Z</time>
      </trkpt>
      <trkpt lat="64.1676" lon="-19.75081">
        <ele>211</ele>
        <time>2015-07-10T16:57:39Z</time>
      </trkpt>
      <trkpt lat="64.16756" lon="-19.75083">
        <ele>210.1</ele>
        <time>2015-07-10T16:57:43Z</time>
      </trkpt>
      <trkpt lat="64.16751" lon="-19.75078">
        <ele>210</ele>
        <time>2015-07-10T16:57:49Z</time>
      </trkpt>
      <trkpt lat="64.16747" lon="-19.75071">
        <ele>210</ele>
        <time>2015-07-10T16:57:53Z</time>
      </trkpt>
      <trkpt lat="64.16742" lon="-19.75066">
        <ele>209.2</ele>
        <time>2015-07-10T16:57:58Z</time>
      </trkpt>
      <trkpt lat="64.16737" lon="-19.7506">
        <ele>207.1</ele>
        <time>2015-07-10T16:58:04Z</time>
      </trkpt>
      <trkpt lat="64.16733" lon="-19.75064">
        <ele>207</ele>
        <time>2015-07-10T16:58:10Z</time>
      </trkpt>
      <trkpt lat="64.16729" lon="-19.7507">
        <ele>206</ele>
        <time>2015-07-10T16:58:15Z</time>
      </trkpt>
      <trkpt lat="64.16723" lon="-19.75072">
        <ele>205.3</ele>
        <time>2015-07-10T16:58:20Z</time>
      </trkpt>
      <trkpt lat="64.16718" lon="-19.75077">
        <ele>204.3</ele>
        <time>2015-07-10T16:58:25Z</time>
      </trkpt>
      <trkpt lat="64.16714" lon="-19.75083">
        <ele>202.3</ele>
        <time>2015-07-10T16:58:28Z</time>
      </trkpt>
      <trkpt lat="64.16711" lon="-19.75092">
        <ele>202</ele>
        <time>2015-07-10T16:58:33Z</time>
      </trkpt>
      <trkpt lat="64.16702" lon="-19.75116">
        <ele>201</ele>
        <time>2015-07-10T16:58:42Z</time>
      </trkpt>
      <trkpt lat="64.16698" lon="-19.75125">
        <ele>199.5</ele>
        <time>2015-07-10T16:58:45Z</time>
      </trkpt>
      <trkpt lat="64.16693" lon="-19.75127">
        <ele>199.5</ele>
        <time>2015-07-10T16:58:49Z</time>
      </trkpt>
      <trkpt lat="64.16688" lon="-19.75123">
        <ele>197.3</ele>
        <time>2015-07-10T16:58:53Z</time>
      </trkpt>
      <trkpt lat="64.16683" lon="-19.75123">
        <ele>197.3</ele>
        <time>2015-07-10T16:58:57Z</time>
      </trkpt>
      <trkpt lat="64.16673" lon="-19.75118">
        <ele>196</ele>
        <time>2015-07-10T16:59:06Z</time>
      </trkpt>
      <trkpt lat="64.16669" lon="-19.75123">
        <ele>195.5</ele>
        <time>2015-07-10T16:59:11Z</time>
      </trkpt>
      <trkpt lat="64.16666" lon="-19.75131">
        <ele>195</ele>
        <time>2015-07-10T16:59:17Z</time>
      </trkpt>
      <trkpt lat="64.16665" lon="-19.75144">
        <ele>195</ele>
        <time>2015-07-10T16:59:21Z</time>
      </trkpt>
      <trkpt lat="64.16663" lon="-19.75154">
        <ele>195</ele>
        <time>2015-07-10T16:59:24Z</time>
      </trkpt>
      <trkpt lat="64.1666" lon="-19.75166">
        <ele>195</ele>
        <time>2015-07-10T16:59:27Z</time>
      </trkpt>
      <trkpt lat="64.16656" lon="-19.75174">
        <ele>195</ele>
        <time>2015-07-10T16:59:30Z</time>
      </trkpt>
      <trkpt lat="64.16648" lon="-19.75188">
        <ele>196</ele>
        <time>2015-07-10T16:59:37Z</time>
      </trkpt>
      <trkpt lat="64.16644" lon="-19.75195">
        <ele>196</ele>
        <time>2015-07-10T16:59:40Z</time>
      </trkpt>
      <trkpt lat="64.16638" lon="-19.7521">
        <ele>196</ele>
        <time>2015-07-10T16:59:45Z</time>
      </trkpt>
      <trkpt lat="64.16633" lon="-19.75216">
        <ele>196</ele>
        <time>2015-07-10T16:59:49Z</time>
      </trkpt>
      <trkpt lat="64.16628" lon="-19.75218">
        <ele>196</ele>
        <time>2015-07-10T16:59:54Z</time>
      </trkpt>
      <trkpt lat="64.16623" lon="-19.7522">
        <ele>196</ele>
        <time>2015-07-10T16:59:59Z</time>
      </trkpt>
      <trkpt lat="64.16619" lon="-19.75228">
        <ele>196</ele>
        <time>2015-07-10T17:00:03Z</time>
      </trkpt>
      <trkpt lat="64.16614" lon="-19.75235">
        <ele>196</ele>
        <time>2015-07-10T17:00:07Z</time>
      </trkpt>
      <trkpt lat="64.1661" lon="-19.75241">
        <ele>196</ele>
        <time>2015-07-10T17:00:10Z</time>
      </trkpt>
      <trkpt lat="64.16605" lon="-19.75243">
        <ele>196</ele>
        <time>2015-07-10T17:00:13Z</time>
      </trkpt>
      <trkpt lat="64.16596" lon="-19.75241">
        <ele>196</ele>
        <time>2015-07-10T17:00:18Z</time>
      </trkpt>
      <trkpt lat="64.16589" lon="-19.75243">
        <ele>196</ele>
        <time>2015-07-10T17:00:21Z</time>
      </trkpt>
      <trkpt lat="64.16584" lon="-19.75241">
        <ele>196</ele>
        <time>2015-07-10T17:00:25Z</time>
      </trkpt>
      <trkpt lat="64.16576" lon="-19.75231">
        <ele>194</ele>
        <time>2015-07-10T17:00:32Z</time>
      </trkpt>
      <trkpt lat="64.16572" lon="-19.75232">
        <ele>193.1</ele>
        <time>2015-07-10T17:00:35Z</time>
      </trkpt>
      <trkpt lat="64.16567" lon="-19.75233">
        <ele>193.1</ele>
        <time>2015-07-10T17:00:38Z</time>
      </trkpt>
      <trkpt lat="64.16558" lon="-19.75239">
        <ele>190.2</ele>
        <time>2015-07-10T17:00:44Z</time>
      </trkpt>
      <trkpt lat="64.16556" lon="-19.75228">
        <ele>190</ele>
        <time>2015-07-10T17:00:49Z</time>
      </trkpt>
      <trkpt lat="64.16551" lon="-19.75231">
        <ele>190</ele>
        <time>2015-07-10T17:00:59Z</time>
      </trkpt>
      <trkpt lat="64.16545" lon="-19.75237">
        <ele>189.5</ele>
        <time>2015-07-10T17:01:04Z</time>
      </trkpt>
      <trkpt lat="64.16539" lon="-19.75237">
        <ele>189</ele>
        <time>2015-07-10T17:01:08Z</time>
      </trkpt>
      <trkpt lat="64.16532" lon="-19.75237">
        <ele>189</ele>
        <time>2015-07-10T17:01:13Z</time>
      </trkpt>
      <trkpt lat="64.16528" lon="-19.75242">
        <ele>189</ele>
        <time>2015-07-10T17:01:18Z</time>
      </trkpt>
      <trkpt lat="64.16525" lon="-19.75251">
        <ele>189</ele>
        <time>2015-07-10T17:01:24Z</time>
      </trkpt>
      <trkpt lat="64.16521" lon="-19.75257">
        <ele>189</ele>
        <time>2015-07-10T17:01:29Z</time>
      </trkpt>
      <trkpt lat="64.16511" lon="-19.75263">
        <ele>189</ele>
        <time>2015-07-10T17:01:34Z</time>
      </trkpt>
      <trkpt lat="64.16506" lon="-19.75264">
        <ele>189</ele>
        <time>2015-07-10T17:01:36Z</time>
      </trkpt>
      <trkpt lat="64.16502" lon="-19.75262">
        <ele>189</ele>
        <time>2015-07-10T17:01:39Z</time>
      </trkpt>
      <trkpt lat="64.16497" lon="-19.7526">
        <ele>189</ele>
        <time>2015-07-10T17:01:42Z</time>
      </trkpt>
      <trkpt lat="64.1649" lon="-19.7526">
        <ele>189</ele>
        <time>2015-07-10T17:01:46Z</time>
      </trkpt>
      <trkpt lat="64.16485" lon="-19.75258">
        <ele>189</ele>
        <time>2015-07-10T17:01:49Z</time>
      </trkpt>
      <trkpt lat="64.16481" lon="-19.75255">
        <ele>189</ele>
        <time>2015-07-10T17:01:52Z</time>
      </trkpt>
      <trkpt lat="64.16476" lon="-19.75255">
        <ele>187.6</ele>
        <time>2015-07-10T17:01:58Z</time>
      </trkpt>
      <trkpt lat="64.1647" lon="-19.75256">
        <ele>185</ele>
        <time>2015-07-10T17:02:05Z</time>
      </trkpt>
      <trkpt lat="64.16465" lon="-19.75255">
        <ele>185</ele>
        <time>2015-07-10T17:02:09Z</time>
      </trkpt>
      <trkpt lat="64.1646" lon="-19.75256">
        <ele>183.3</ele>
        <time>2015-07-10T17:02:13Z</time>
      </trkpt>
      <trkpt lat="64.16455" lon="-19.75258">
        <ele>183</ele>
        <time>2015-07-10T17:02:17Z</time>
      </trkpt>
      <trkpt lat="64.16449" lon="-19.75256">
        <ele>180.1</ele>
        <time>2015-07-10T17:02:25Z</time>
      </trkpt>
      <trkpt lat="64.16445" lon="-19.75261">
        <ele>179.1</ele>
        <time>2015-07-10T17:02:35Z</time>
      </trkpt>
      <trkpt lat="64.16437" lon="-19.75269">
        <ele>178.1</ele>
        <time>2015-07-10T17:02:44Z</time>
      </trkpt>
      <trkpt lat="64.16429" lon="-19.75282">
        <ele>177.1</ele>
        <time>2015-07-10T17:02:51Z</time>
      </trkpt>
      <trkpt lat="64.16425" lon="-19.75285">
        <ele>177</ele>
        <time>2015-07-10T17:02:55Z</time>
      </trkpt>
      <trkpt lat="64.16414" lon="-19.75288">
        <ele>177</ele>
        <time>2015-07-10T17:03:02Z</time>
      </trkpt>
      <trkpt lat="64.16405" lon="-19.75299">
        <ele>177</ele>
        <time>2015-07-10T17:03:07Z</time>
      </trkpt>
      <trkpt lat="64.16395" lon="-19.75305">
        <ele>176.8</ele>
        <time>2015-07-10T17:03:14Z</time>
      </trkpt>
      <trkpt lat="64.16391" lon="-19.7531">
        <ele>177</ele>
        <time>2015-07-10T17:03:19Z</time>
      </trkpt>
      <trkpt lat="64.16382" lon="-19.75309">
        <ele>177</ele>
        <time>2015-07-10T17:03:25Z</time>
      </trkpt>
      <trkpt lat="64.16376" lon="-19.75313">
        <ele>177</ele>
        <time>2015-07-10T17:03:28Z</time>
      </trkpt>
      <trkpt lat="64.16372" lon="-19.75317">
        <ele>177</ele>
        <time>2015-07-10T17:03:31Z</time>
      </trkpt>
      <trkpt lat="64.16362" lon="-19.75318">
        <ele>177</ele>
        <time>2015-07-10T17:03:39Z</time>
      </trkpt>
      <trkpt lat="64.16358" lon="-19.75322">
        <ele>177</ele>
        <time>2015-07-10T17:03:43Z</time>
      </trkpt>
      <trkpt lat="64.16348" lon="-19.75321">
        <ele>177</ele>
        <time>2015-07-10T17:03:51Z</time>
      </trkpt>
      <trkpt lat="64.16343" lon="-19.75324">
        <ele>177</ele>
        <time>2015-07-10T17:03:56Z</time>
      </trkpt>
      <trkpt lat="64.16338" lon="-19.7533">
        <ele>177.9</ele>
        <time>2015-07-10T17:03:59Z</time>
      </trkpt>
      <trkpt lat="64.16334" lon="-19.75334">
        <ele>177.9</ele>
        <time>2015-07-10T17:04:02Z</time>
      </trkpt>
      <trkpt lat="64.16324" lon="-19.75341">
        <ele>178</ele>
        <time>2015-07-10T17:04:10Z</time>
      </trkpt>
      <trkpt lat="64.16319" lon="-19.75343">
        <ele>179</ele>
        <time>2015-07-10T17:04:14Z</time>
      </trkpt>
      <trkpt lat="64.16305" lon="-19.75351">
        <ele>179</ele>
        <time>2015-07-10T17:04:24Z</time>
      </trkpt>
      <trkpt lat="64.16298" lon="-19.75352">
        <ele>180</ele>
        <time>2015-07-10T17:04:30Z</time>
      </trkpt>
      <trkpt lat="64.16293" lon="-19.75352">
        <ele>180</ele>
        <time>2015-07-10T17:04:33Z</time>
      </trkpt>
      <trkpt lat="64.16283" lon="-19.75358">
        <ele>180</ele>
        <time>2015-07-10T17:04:41Z</time>
      </trkpt>
      <trkpt lat="64.16279" lon="-19.75366">
        <ele>180.9</ele>
        <time>2015-07-10T17:04:45Z</time>
      </trkpt>
      <trkpt lat="64.16273" lon="-19.75368">
        <ele>180.9</ele>
        <time>2015-07-10T17:04:48Z</time>
      </trkpt>
      <trkpt lat="64.16263" lon="-19.75368">
        <ele>181</ele>
        <time>2015-07-10T17:04:53Z</time>
      </trkpt>
      <trkpt lat="64.16258" lon="-19.75369">
        <ele>181</ele>
        <time>2015-07-10T17:04:57Z</time>
      </trkpt>
      <trkpt lat="64.16254" lon="-19.75373">
        <ele>182.8</ele>
        <time>2015-07-10T17:05:02Z</time>
      </trkpt>
      <trkpt lat="64.1625" lon="-19.75379">
        <ele>183.9</ele>
        <time>2015-07-10T17:05:06Z</time>
      </trkpt>
      <trkpt lat="64.16246" lon="-19.75383">
        <ele>184</ele>
        <time>2015-07-10T17:05:11Z</time>
      </trkpt>
      <trkpt lat="64.16241" lon="-19.75388">
        <ele>184</ele>
        <time>2015-07-10T17:05:16Z</time>
      </trkpt>
      <trkpt lat="64.16228" lon="-19.75398">
        <ele>184</ele>
        <time>2015-07-10T17:05:26Z</time>
      </trkpt>
      <trkpt lat="64.16224" lon="-19.75404">
        <ele>184</ele>
        <time>2015-07-10T17:05:32Z</time>
      </trkpt>
      <trkpt lat="64.16219" lon="-19.75407">
        <ele>184</ele>
        <time>2015-07-10T17:05:35Z</time>
      </trkpt>
      <trkpt lat="64.16214" lon="-19.75414">
        <ele>184</ele>
        <time>2015-07-10T17:05:40Z</time>
      </trkpt>
      <trkpt lat="64.1621" lon="-19.75421">
        <ele>184</ele>
        <time>2015-07-10T17:05:45Z</time>
      </trkpt>
      <trkpt lat="64.16206" lon="-19.75427">
        <ele>183.1</ele>
        <time>2015-07-10T17:05:48Z</time>
      </trkpt>
      <trkpt lat="64.16194" lon="-19.75442">
        <ele>182</ele>
        <time>2015-07-10T17:06:00Z</time>
      </trkpt>
      <trkpt lat="64.1618" lon="-19.75453">
        <ele>182</ele>
        <time>2015-07-10T17:06:11Z</time>
      </trkpt>
      <trkpt lat="64.16175" lon="-19.75451">
        <ele>182</ele>
        <time>2015-07-10T17:06:15Z</time>
      </trkpt>
      <trkpt lat="64.1617" lon="-19.7545">
        <ele>182</ele>
        <time>2015-07-10T17:06:18Z</time>
      </trkpt>
      <trkpt lat="64.16165" lon="-19.7545">
        <ele>182</ele>
        <time>2015-07-10T17:06:21Z</time>
      </trkpt>
      <trkpt lat="64.16151" lon="-19.75455">
        <ele>184</ele>
        <time>2015-07-10T17:06:31Z</time>
      </trkpt>
      <trkpt lat="64.16141" lon="-19.75455">
        <ele>185</ele>
        <time>2015-07-10T17:06:37Z</time>
      </trkpt>
      <trkpt lat="64.16134" lon="-19.75452">
        <ele>185.9</ele>
        <time>2015-07-10T17:06:42Z</time>
      </trkpt>
      <trkpt lat="64.16129" lon="-19.75452">
        <ele>186</ele>
        <time>2015-07-10T17:06:46Z</time>
      </trkpt>
      <trkpt lat="64.16124" lon="-19.75454">
        <ele>186</ele>
        <time>2015-07-10T17:06:50Z</time>
      </trkpt>
      <trkpt lat="64.1612" lon="-19.75455">
        <ele>186</ele>
        <time>2015-07-10T17:06:53Z</time>
      </trkpt>
      <trkpt lat="64.16107" lon="-19.75457">
        <ele>186</ele>
        <time>2015-07-10T17:07:02Z</time>
      </trkpt>
      <trkpt lat="64.16102" lon="-19.75458">
        <ele>186</ele>
        <time>2015-07-10T17:07:05Z</time>
      </trkpt>
      <trkpt lat="64.16097" lon="-19.75455">
        <ele>186</ele>
        <time>2015-07-10T17:07:10Z</time>
      </trkpt>
      <trkpt lat="64.16093" lon="-19.75449">
        <ele>185</ele>
        <time>2015-07-10T17:07:24Z</time>
      </trkpt>
      <trkpt lat="64.16088" lon="-19.75444">
        <ele>185</ele>
        <time>2015-07-10T17:07:28Z</time>
      </trkpt>
      <trkpt lat="64.16082" lon="-19.75442">
        <ele>184.1</ele>
        <time>2015-07-10T17:07:31Z</time>
      </trkpt>
      <trkpt lat="64.16069" lon="-19.75439">
        <ele>184</ele>
        <time>2015-07-10T17:07:39Z</time>
      </trkpt>
      <trkpt lat="64.16059" lon="-19.75439">
        <ele>183.1</ele>
        <time>2015-07-10T17:07:45Z</time>
      </trkpt>
      <trkpt lat="64.16055" lon="-19.75444">
        <ele>183</ele>
        <time>2015-07-10T17:07:50Z</time>
      </trkpt>
      <trkpt lat="64.1605" lon="-19.75449">
        <ele>182.1</ele>
        <time>2015-07-10T17:07:54Z</time>
      </trkpt>
      <trkpt lat="64.16041" lon="-19.75452">
        <ele>182</ele>
        <time>2015-07-10T17:08:01Z</time>
      </trkpt>
      <trkpt lat="64.16036" lon="-19.75451">
        <ele>182</ele>
        <time>2015-07-10T17:08:05Z</time>
      </trkpt>
      <trkpt lat="64.16031" lon="-19.75453">
        <ele>182</ele>
        <time>2015-07-10T17:08:08Z</time>
      </trkpt>
      <trkpt lat="64.16026" lon="-19.75455">
        <ele>181.2</ele>
        <time>2015-07-10T17:08:12Z</time>
      </trkpt>
      <trkpt lat="64.16021" lon="-19.75455">
        <ele>181.2</ele>
        <time>2015-07-10T17:08:17Z</time>
      </trkpt>
      <trkpt lat="64.16011" lon="-19.75458">
        <ele>181</ele>
        <time>2015-07-10T17:08:24Z</time>
      </trkpt>
      <trkpt lat="64.15997" lon="-19.75457">
        <ele>181</ele>
        <time>2015-07-10T17:08:35Z</time>
      </trkpt>
      <trkpt lat="64.15992" lon="-19.75456">
        <ele>182</ele>
        <time>2015-07-10T17:08:39Z</time>
      </trkpt>
      <trkpt lat="64.15985" lon="-19.75451">
        <ele>182</ele>
        <time>2015-07-10T17:08:44Z</time>
      </trkpt>
      <trkpt lat="64.15978" lon="-19.75448">
        <ele>182</ele>
        <time>2015-07-10T17:08:48Z</time>
      </trkpt>
      <trkpt lat="64.15973" lon="-19.75445">
        <ele>183</ele>
        <time>2015-07-10T17:08:51Z</time>
      </trkpt>
      <trkpt lat="64.15968" lon="-19.75438">
        <ele>183</ele>
        <time>2015-07-10T17:08:57Z</time>
      </trkpt>
      <trkpt lat="64.15964" lon="-19.75434">
        <ele>183</ele>
        <time>2015-07-10T17:09:00Z</time>
      </trkpt>
      <trkpt lat="64.15959" lon="-19.75431">
        <ele>183</ele>
        <time>2015-07-10T17:09:04Z</time>
      </trkpt>
      <trkpt lat="64.15953" lon="-19.75432">
        <ele>183</ele>
        <time>2015-07-10T17:09:09Z</time>
      </trkpt>
      <trkpt lat="64.15948" lon="-19.75432">
        <ele>183</ele>
        <time>2015-07-10T17:09:12Z</time>
      </trkpt>
      <trkpt lat="64.15943" lon="-19.75431">
        <ele>183</ele>
        <time>2015-07-10T17:09:18Z</time>
      </trkpt>
      <trkpt lat="64.15938" lon="-19.7543">
        <ele>183.5</ele>
        <time>2015-07-10T17:09:22Z</time>
      </trkpt>
      <trkpt lat="64.15933" lon="-19.75427">
        <ele>184</ele>
        <time>2015-07-10T17:09:26Z</time>
      </trkpt>
      <trkpt lat="64.15928" lon="-19.75428">
        <ele>184</ele>
        <time>2015-07-10T17:09:30Z</time>
      </trkpt>
      <trkpt lat="64.15918" lon="-19.75425">
        <ele>183.1</ele>
        <time>2015-07-10T17:09:37Z</time>
      </trkpt>
      <trkpt lat="64.15914" lon="-19.75426">
        <ele>183</ele>
        <time>2015-07-10T17:09:41Z</time>
      </trkpt>
      <trkpt lat="64.15909" lon="-19.75424">
        <ele>183</ele>
        <time>2015-07-10T17:09:45Z</time>
      </trkpt>
      <trkpt lat="64.159" lon="-19.75425">
        <ele>183</ele>
        <time>2015-07-10T17:09:53Z</time>
      </trkpt>
      <trkpt lat="64.15895" lon="-19.75428">
        <ele>183.9</ele>
        <time>2015-07-10T17:09:57Z</time>
      </trkpt>
      <trkpt lat="64.15886" lon="-19.75428">
        <ele>184</ele>
        <time>2015-07-10T17:10:05Z</time>
      </trkpt>
      <trkpt lat="64.15872" lon="-19.75423">
        <ele>185</ele>
        <time>2015-07-10T17:10:16Z</time>
      </trkpt>
      <trkpt lat="64.15868" lon="-19.75422">
        <ele>186</ele>
        <time>2015-07-10T17:10:20Z</time>
      </trkpt>
      <trkpt lat="64.15863" lon="-19.75421">
        <ele>186</ele>
        <time>2015-07-10T17:10:24Z</time>
      </trkpt>
      <trkpt lat="64.1585" lon="-19.75433">
        <ele>186</ele>
        <time>2015-07-10T17:10:35Z</time>
      </trkpt>
      <trkpt lat="64.1584" lon="-19.75433">
        <ele>187.5</ele>
        <time>2015-07-10T17:10:42Z</time>
      </trkpt>
      <trkpt lat="64.15835" lon="-19.75427">
        <ele>188</ele>
        <time>2015-07-10T17:10:46Z</time>
      </trkpt>
      <trkpt lat="64.1583" lon="-19.75425">
        <ele>188</ele>
        <time>2015-07-10T17:10:51Z</time>
      </trkpt>
      <trkpt lat="64.15825" lon="-19.75432">
        <ele>190</ele>
        <time>2015-07-10T17:10:56Z</time>
      </trkpt>
      <trkpt lat="64.15821" lon="-19.75436">
        <ele>190</ele>
        <time>2015-07-10T17:11:00Z</time>
      </trkpt>
      <trkpt lat="64.15816" lon="-19.75431">
        <ele>191.5</ele>
        <time>2015-07-10T17:11:04Z</time>
      </trkpt>
      <trkpt lat="64.15811" lon="-19.75425">
        <ele>192.8</ele>
        <time>2015-07-10T17:11:08Z</time>
      </trkpt>
      <trkpt lat="64.15805" lon="-19.75421">
        <ele>194</ele>
        <time>2015-07-10T17:11:12Z</time>
      </trkpt>
      <trkpt lat="64.158" lon="-19.75421">
        <ele>194</ele>
        <time>2015-07-10T17:11:16Z</time>
      </trkpt>
      <trkpt lat="64.15797" lon="-19.7543">
        <ele>195</ele>
        <time>2015-07-10T17:11:21Z</time>
      </trkpt>
      <trkpt lat="64.15793" lon="-19.75434">
        <ele>195</ele>
        <time>2015-07-10T17:11:25Z</time>
      </trkpt>
      <trkpt lat="64.15779" lon="-19.75435">
        <ele>195</ele>
        <time>2015-07-10T17:11:35Z</time>
      </trkpt>
      <trkpt lat="64.15765" lon="-19.75444">
        <ele>194.1</ele>
        <time>2015-07-10T17:11:47Z</time>
      </trkpt>
      <trkpt lat="64.15759" lon="-19.75449">
        <ele>194</ele>
        <time>2015-07-10T17:11:51Z</time>
      </trkpt>
      <trkpt lat="64.15746" lon="-19.75464">
        <ele>192</ele>
        <time>2015-07-10T17:12:01Z</time>
      </trkpt>
      <trkpt lat="64.15741" lon="-19.75469">
        <ele>191.3</ele>
        <time>2015-07-10T17:12:05Z</time>
      </trkpt>
      <trkpt lat="64.15736" lon="-19.75471">
        <ele>191</ele>
        <time>2015-07-10T17:12:10Z</time>
      </trkpt>
      <trkpt lat="64.15726" lon="-19.7547">
        <ele>191</ele>
        <time>2015-07-10T17:12:17Z</time>
      </trkpt>
      <trkpt lat="64.15717" lon="-19.75459">
        <ele>190</ele>
        <time>2015-07-10T17:12:24Z</time>
      </trkpt>
      <trkpt lat="64.1571" lon="-19.7546">
        <ele>190</ele>
        <time>2015-07-10T17:12:29Z</time>
      </trkpt>
      <trkpt lat="64.15705" lon="-19.7546">
        <ele>190</ele>
        <time>2015-07-10T17:12:34Z</time>
      </trkpt>
      <trkpt lat="64.157" lon="-19.75462">
        <ele>190</ele>
        <time>2015-07-10T17:12:38Z</time>
      </trkpt>
      <trkpt lat="64.15691" lon="-19.75462">
        <ele>189</ele>
        <time>2015-07-10T17:12:45Z</time>
      </trkpt>
      <trkpt lat="64.1568" lon="-19.75464">
        <ele>187.2</ele>
        <time>2015-07-10T17:12:52Z</time>
      </trkpt>
      <trkpt lat="64.15666" lon="-19.75476">
        <ele>186</ele>
        <time>2015-07-10T17:13:00Z</time>
      </trkpt>
      <trkpt lat="64.15658" lon="-19.75489">
        <ele>181</ele>
        <time>2015-07-10T17:13:09Z</time>
      </trkpt>
      <trkpt lat="64.15653" lon="-19.75489">
        <ele>178.6</ele>
        <time>2015-07-10T17:13:12Z</time>
      </trkpt>
      <trkpt lat="64.15649" lon="-19.75489">
        <ele>178.6</ele>
        <time>2015-07-10T17:13:15Z</time>
      </trkpt>
      <trkpt lat="64.15638" lon="-19.75484">
        <ele>178</ele>
        <time>2015-07-10T17:13:22Z</time>
      </trkpt>
      <trkpt lat="64.15629" lon="-19.75481">
        <ele>177</ele>
        <time>2015-07-10T17:13:29Z</time>
      </trkpt>
      <trkpt lat="64.15624" lon="-19.75484">
        <ele>176.3</ele>
        <time>2015-07-10T17:13:34Z</time>
      </trkpt>
      <trkpt lat="64.15618" lon="-19.75491">
        <ele>176</ele>
        <time>2015-07-10T17:13:39Z</time>
      </trkpt>
      <trkpt lat="64.15613" lon="-19.75494">
        <ele>175.1</ele>
        <time>2015-07-10T17:13:43Z</time>
      </trkpt>
      <trkpt lat="64.15605" lon="-19.75493">
        <ele>175</ele>
        <time>2015-07-10T17:13:49Z</time>
      </trkpt>
      <trkpt lat="64.15601" lon="-19.75488">
        <ele>174.3</ele>
        <time>2015-07-10T17:13:53Z</time>
      </trkpt>
      <trkpt lat="64.15597" lon="-19.7548">
        <ele>174</ele>
        <time>2015-07-10T17:13:57Z</time>
      </trkpt>
      <trkpt lat="64.15591" lon="-19.75476">
        <ele>173.3</ele>
        <time>2015-07-10T17:14:01Z</time>
      </trkpt>
      <trkpt lat="64.15586" lon="-19.7548">
        <ele>173</ele>
        <time>2015-07-10T17:14:05Z</time>
      </trkpt>
      <trkpt lat="64.15577" lon="-19.75484">
        <ele>173</ele>
        <time>2015-07-10T17:14:12Z</time>
      </trkpt>
      <trkpt lat="64.15572" lon="-19.75488">
        <ele>173</ele>
        <time>2015-07-10T17:14:16Z</time>
      </trkpt>
      <trkpt lat="64.15566" lon="-19.75491">
        <ele>173</ele>
        <time>2015-07-10T17:14:20Z</time>
      </trkpt>
      <trkpt lat="64.15557" lon="-19.75497">
        <ele>173</ele>
        <time>2015-07-10T17:14:27Z</time>
      </trkpt>
      <trkpt lat="64.15553" lon="-19.75498">
        <ele>173</ele>
        <time>2015-07-10T17:14:30Z</time>
      </trkpt>
      <trkpt lat="64.15549" lon="-19.75502">
        <ele>173.9</ele>
        <time>2015-07-10T17:14:33Z</time>
      </trkpt>
      <trkpt lat="64.15544" lon="-19.75503">
        <ele>174.9</ele>
        <time>2015-07-10T17:14:37Z</time>
      </trkpt>
      <trkpt lat="64.15537" lon="-19.75508">
        <ele>175.5</ele>
        <time>2015-07-10T17:14:42Z</time>
      </trkpt>
      <trkpt lat="64.15533" lon="-19.75509">
        <ele>175.5</ele>
        <time>2015-07-10T17:14:46Z</time>
      </trkpt>
      <trkpt lat="64.15528" lon="-19.75512">
        <ele>176</ele>
        <time>2015-07-10T17:14:50Z</time>
      </trkpt>
      <trkpt lat="64.15517" lon="-19.75516">
        <ele>176.9</ele>
        <time>2015-07-10T17:15:00Z</time>
      </trkpt>
      <trkpt lat="64.15512" lon="-19.75513">
        <ele>177</ele>
        <time>2015-07-10T17:15:04Z</time>
      </trkpt>
      <trkpt lat="64.15506" lon="-19.75516">
        <ele>177</ele>
        <time>2015-07-10T17:15:09Z</time>
      </trkpt>
      <trkpt lat="64.15502" lon="-19.75521">
        <ele>178</ele>
        <time>2015-07-10T17:15:13Z</time>
      </trkpt>
      <trkpt lat="64.15497" lon="-19.75523">
        <ele>178</ele>
        <time>2015-07-10T17:15:16Z</time>
      </trkpt>
      <trkpt lat="64.15483" lon="-19.75527">
        <ele>178</ele>
        <time>2015-07-10T17:15:27Z</time>
      </trkpt>
      <trkpt lat="64.15472" lon="-19.75525">
        <ele>178</ele>
        <time>2015-07-10T17:15:34Z</time>
      </trkpt>
      <trkpt lat="64.15464" lon="-19.75526">
        <ele>178</ele>
        <time>2015-07-10T17:15:40Z</time>
      </trkpt>
      <trkpt lat="64.15458" lon="-19.75522">
        <ele>178</ele>
        <time>2015-07-10T17:15:45Z</time>
      </trkpt>
      <trkpt lat="64.15454" lon="-19.75519">
        <ele>178</ele>
        <time>2015-07-10T17:15:48Z</time>
      </trkpt>
      <trkpt lat="64.15449" lon="-19.75517">
        <ele>176</ele>
        <time>2015-07-10T17:15:52Z</time>
      </trkpt>
      <trkpt lat="64.15444" lon="-19.75516">
        <ele>176</ele>
        <time>2015-07-10T17:15:56Z</time>
      </trkpt>
      <trkpt lat="64.15434" lon="-19.75516">
        <ele>176</ele>
        <time>2015-07-10T17:16:04Z</time>
      </trkpt>
      <trkpt lat="64.15427" lon="-19.75514">
        <ele>176</ele>
        <time>2015-07-10T17:16:09Z</time>
      </trkpt>
      <trkpt lat="64.15421" lon="-19.75514">
        <ele>176</ele>
        <time>2015-07-10T17:16:13Z</time>
      </trkpt>
      <trkpt lat="64.1541" lon="-19.75512">
        <ele>175</ele>
        <time>2015-07-10T17:16:20Z</time>
      </trkpt>
      <trkpt lat="64.15405" lon="-19.75511">
        <ele>175</ele>
        <time>2015-07-10T17:16:24Z</time>
      </trkpt>
      <trkpt lat="64.154" lon="-19.75511">
        <ele>175</ele>
        <time>2015-07-10T17:16:27Z</time>
      </trkpt>
      <trkpt lat="64.15394" lon="-19.75512">
        <ele>175.9</ele>
        <time>2015-07-10T17:16:31Z</time>
      </trkpt>
      <trkpt lat="64.1539" lon="-19.7551">
        <ele>176</ele>
        <time>2015-07-10T17:16:35Z</time>
      </trkpt>
      <trkpt lat="64.15381" lon="-19.75504">
        <ele>176</ele>
        <time>2015-07-10T17:16:43Z</time>
      </trkpt>
      <trkpt lat="64.15373" lon="-19.7549">
        <ele>176</ele>
        <time>2015-07-10T17:16:49Z</time>
      </trkpt>
      <trkpt lat="64.15364" lon="-19.75482">
        <ele>176</ele>
        <time>2015-07-10T17:16:55Z</time>
      </trkpt>
      <trkpt lat="64.15357" lon="-19.75468">
        <ele>175</ele>
        <time>2015-07-10T17:17:04Z</time>
      </trkpt>
      <trkpt lat="64.15351" lon="-19.75466">
        <ele>174</ele>
        <time>2015-07-10T17:17:09Z</time>
      </trkpt>
      <trkpt lat="64.15347" lon="-19.75462">
        <ele>174</ele>
        <time>2015-07-10T17:17:13Z</time>
      </trkpt>
      <trkpt lat="64.15337" lon="-19.75452">
        <ele>173</ele>
        <time>2015-07-10T17:17:19Z</time>
      </trkpt>
      <trkpt lat="64.15332" lon="-19.7545">
        <ele>173</ele>
        <time>2015-07-10T17:17:23Z</time>
      </trkpt>
      <trkpt lat="64.15321" lon="-19.7545">
        <ele>173</ele>
        <time>2015-07-10T17:17:31Z</time>
      </trkpt>
      <trkpt lat="64.15307" lon="-19.7544">
        <ele>173</ele>
        <time>2015-07-10T17:17:44Z</time>
      </trkpt>
      <trkpt lat="64.15301" lon="-19.75438">
        <ele>173</ele>
        <time>2015-07-10T17:17:48Z</time>
      </trkpt>
      <trkpt lat="64.15291" lon="-19.75437">
        <ele>173</ele>
        <time>2015-07-10T17:17:57Z</time>
      </trkpt>
      <trkpt lat="64.15287" lon="-19.75434">
        <ele>172</ele>
        <time>2015-07-10T17:18:01Z</time>
      </trkpt>
      <trkpt lat="64.15278" lon="-19.75432">
        <ele>172</ele>
        <time>2015-07-10T17:18:08Z</time>
      </trkpt>
      <trkpt lat="64.15272" lon="-19.7543">
        <ele>171.1</ele>
        <time>2015-07-10T17:18:13Z</time>
      </trkpt>
      <trkpt lat="64.15259" lon="-19.75421">
        <ele>170</ele>
        <time>2015-07-10T17:18:23Z</time>
      </trkpt>
      <trkpt lat="64.15245" lon="-19.75412">
        <ele>169.3</ele>
        <time>2015-07-10T17:18:33Z</time>
      </trkpt>
      <trkpt lat="64.15236" lon="-19.75406">
        <ele>169</ele>
        <time>2015-07-10T17:18:40Z</time>
      </trkpt>
      <trkpt lat="64.15231" lon="-19.75403">
        <ele>169</ele>
        <time>2015-07-10T17:18:44Z</time>
      </trkpt>
      <trkpt lat="64.15223" lon="-19.75394">
        <ele>169</ele>
        <time>2015-07-10T17:18:51Z</time>
      </trkpt>
      <trkpt lat="64.15213" lon="-19.75388">
        <ele>169</ele>
        <time>2015-07-10T17:18:58Z</time>
      </trkpt>
      <trkpt lat="64.15207" lon="-19.75382">
        <ele>169</ele>
        <time>2015-07-10T17:19:01Z</time>
      </trkpt>
      <trkpt lat="64.15199" lon="-19.75373">
        <ele>170</ele>
        <time>2015-07-10T17:19:08Z</time>
      </trkpt>
      <trkpt lat="64.15195" lon="-19.75368">
        <ele>170</ele>
        <time>2015-07-10T17:19:11Z</time>
      </trkpt>
      <trkpt lat="64.15186" lon="-19.7536">
        <ele>170.9</ele>
        <time>2015-07-10T17:19:19Z</time>
      </trkpt>
      <trkpt lat="64.15179" lon="-19.75343">
        <ele>171</ele>
        <time>2015-07-10T17:19:26Z</time>
      </trkpt>
      <trkpt lat="64.15176" lon="-19.75335">
        <ele>171</ele>
        <time>2015-07-10T17:19:29Z</time>
      </trkpt>
      <trkpt lat="64.15166" lon="-19.75312">
        <ele>172</ele>
        <time>2015-07-10T17:19:38Z</time>
      </trkpt>
      <trkpt lat="64.15162" lon="-19.75305">
        <ele>172</ele>
        <time>2015-07-10T17:19:42Z</time>
      </trkpt>
      <trkpt lat="64.15156" lon="-19.75303">
        <ele>172</ele>
        <time>2015-07-10T17:20:00Z</time>
      </trkpt>
      <trkpt lat="64.1515" lon="-19.75303">
        <ele>171</ele>
        <time>2015-07-10T17:20:17Z</time>
      </trkpt>
      <trkpt lat="64.15143" lon="-19.75292">
        <ele>170</ele>
        <time>2015-07-10T17:20:23Z</time>
      </trkpt>
      <trkpt lat="64.15137" lon="-19.75289">
        <ele>170</ele>
        <time>2015-07-10T17:20:26Z</time>
      </trkpt>
      <trkpt lat="64.15132" lon="-19.7529">
        <ele>170.9</ele>
        <time>2015-07-10T17:20:29Z</time>
      </trkpt>
      <trkpt lat="64.15128" lon="-19.75296">
        <ele>171</ele>
        <time>2015-07-10T17:20:32Z</time>
      </trkpt>
      <trkpt lat="64.15124" lon="-19.75304">
        <ele>171</ele>
        <time>2015-07-10T17:20:35Z</time>
      </trkpt>
      <trkpt lat="64.15119" lon="-19.75328">
        <ele>171</ele>
        <time>2015-07-10T17:20:42Z</time>
      </trkpt>
      <trkpt lat="64.15113" lon="-19.75356">
        <ele>171</ele>
        <time>2015-07-10T17:20:51Z</time>
      </trkpt>
      <trkpt lat="64.15108" lon="-19.75359">
        <ele>171</ele>
        <time>2015-07-10T17:20:56Z</time>
      </trkpt>
      <trkpt lat="64.15101" lon="-19.75358">
        <ele>171</ele>
        <time>2015-07-10T17:21:02Z</time>
      </trkpt>
      <trkpt lat="64.15097" lon="-19.75354">
        <ele>171</ele>
        <time>2015-07-10T17:21:06Z</time>
      </trkpt>
      <trkpt lat="64.15093" lon="-19.75349">
        <ele>171</ele>
        <time>2015-07-10T17:21:09Z</time>
      </trkpt>
      <trkpt lat="64.15088" lon="-19.75346">
        <ele>170.5</ele>
        <time>2015-07-10T17:21:13Z</time>
      </trkpt>
      <trkpt lat="64.15083" lon="-19.75345">
        <ele>170</ele>
        <time>2015-07-10T17:21:17Z</time>
      </trkpt>
      <trkpt lat="64.15079" lon="-19.75341">
        <ele>170</ele>
        <time>2015-07-10T17:21:21Z</time>
      </trkpt>
      <trkpt lat="64.15073" lon="-19.75336">
        <ele>170</ele>
        <time>2015-07-10T17:21:27Z</time>
      </trkpt>
      <trkpt lat="64.1507" lon="-19.75348">
        <ele>170</ele>
        <time>2015-07-10T17:21:33Z</time>
      </trkpt>
      <trkpt lat="64.15068" lon="-19.7536">
        <ele>169</ele>
        <time>2015-07-10T17:21:37Z</time>
      </trkpt>
      <trkpt lat="64.15062" lon="-19.75388">
        <ele>169</ele>
        <time>2015-07-10T17:21:46Z</time>
      </trkpt>
      <trkpt lat="64.1506" lon="-19.75399">
        <ele>169</ele>
        <time>2015-07-10T17:21:51Z</time>
      </trkpt>
      <trkpt lat="64.1506" lon="-19.75411">
        <ele>169</ele>
        <time>2015-07-10T17:21:55Z</time>
      </trkpt>
      <trkpt lat="64.1506" lon="-19.75422">
        <ele>169</ele>
        <time>2015-07-10T17:21:58Z</time>
      </trkpt>
      <trkpt lat="64.15054" lon="-19.75449">
        <ele>169</ele>
        <time>2015-07-10T17:22:08Z</time>
      </trkpt>
      <trkpt lat="64.15048" lon="-19.75468">
        <ele>169</ele>
        <time>2015-07-10T17:22:16Z</time>
      </trkpt>
      <trkpt lat="64.15044" lon="-19.75491">
        <ele>171.5</ele>
        <time>2015-07-10T17:22:24Z</time>
      </trkpt>
      <trkpt lat="64.15041" lon="-19.75501">
        <ele>172.9</ele>
        <time>2015-07-10T17:22:30Z</time>
      </trkpt>
      <trkpt lat="64.15036" lon="-19.75528">
        <ele>173.5</ele>
        <time>2015-07-10T17:22:43Z</time>
      </trkpt>
      <trkpt lat="64.15031" lon="-19.75531">
        <ele>174</ele>
        <time>2015-07-10T17:22:53Z</time>
      </trkpt>
      <trkpt lat="64.1502" lon="-19.75552">
        <ele>174</ele>
        <time>2015-07-10T17:23:09Z</time>
      </trkpt>
      <trkpt lat="64.15016" lon="-19.75559">
        <ele>174</ele>
        <time>2015-07-10T17:23:12Z</time>
      </trkpt>
      <trkpt lat="64.15015" lon="-19.7557">
        <ele>173.2</ele>
        <time>2015-07-10T17:23:16Z</time>
      </trkpt>
      <trkpt lat="64.15014" lon="-19.7558">
        <ele>173</ele>
        <time>2015-07-10T17:23:21Z</time>
      </trkpt>
      <trkpt lat="64.15009" lon="-19.75578">
        <ele>173</ele>
        <time>2015-07-10T17:23:26Z</time>
      </trkpt>
      <trkpt lat="64.15006" lon="-19.75588">
        <ele>173</ele>
        <time>2015-07-10T17:23:30Z</time>
      </trkpt>
      <trkpt lat="64.15004" lon="-19.75599">
        <ele>173</ele>
        <time>2015-07-10T17:23:35Z</time>
      </trkpt>
      <trkpt lat="64.14996" lon="-19.75625">
        <ele>174</ele>
        <time>2015-07-10T17:23:49Z</time>
      </trkpt>
      <trkpt lat="64.14988" lon="-19.75638">
        <ele>174</ele>
        <time>2015-07-10T17:23:58Z</time>
      </trkpt>
      <trkpt lat="64.14985" lon="-19.75645">
        <ele>175.7</ele>
        <time>2015-07-10T17:24:02Z</time>
      </trkpt>
      <trkpt lat="64.14981" lon="-19.75646">
        <ele>177</ele>
        <time>2015-07-10T17:24:05Z</time>
      </trkpt>
      <trkpt lat="64.14981" lon="-19.75646">
        <time>2015-07-10T17:24:05Z</time>
      </trkpt>
      <trkpt lat="64.14981" lon="-19.75646">
        <time>2015-07-10T17:24:07Z</time>
      </trkpt>
    </trkseg>
  </trk>
</gpx>